     2              OBSERVATION DATA    GPS                 RINEX VERSION / TYPE
teqc 2000Feb29 simon 20000628 01:37:15UTC                   PGM / RUN BY / DATE
                                                            COMMENT
L2: 1 -> 1; 150 -> 5; 250 -> 9                              COMMENT
L2: 1 -> 1; 150 -> 5; 250 -> 9                              COMMENT
L2: 1 -> 1; 150 -> 5; 250 -> 9                              COMMENT
L2: 1 -> 1; 150 -> 5; 250 -> 9                              COMMENT
L2: 1 -> 1; 150 -> 5; 250 -> 9                              COMMENT
Original Marker Name: GS18                                  COMMENT
Campaign Name: China Lake April 2000                        COMMENT
4-Character Station Name: GS18                              COMMENT
6-Character Antenna Code: ASHGD3                            COMMENT
Vertical Measurement Point: TGP                             COMMENT
Vertical Offset to Rinex Ref. Point: 0.0640                 COMMENT
Radial Measurement Point: RRP                               COMMENT
Radial Offset to Rinex Ref. Point: 0.0000                   COMMENT
Antenna Height from Field Measurement: 0.2200 m             COMMENT
Additional Antenna Identification Info.:                    COMMENT
The Whopper (700718AB)                                      COMMENT
Original XYZ: -2371484.0000 -4596808.7500 3721007.0100      COMMENT
New XYZ position is based on association with SCEC monument COMMENT
E1F4B1S3+0011. Position of that monument is believed to be  COMMENT
valid to within 1 m horizontally; vertical accuracy         COMMENT
should be no worse than 3-times this value.                 COMMENT
                                                            COMMENT
Revised Rinex header created by UCSD GPS archive for        COMMENT
GSAC on 14-Sep-2001 (2001:257) 19:53:50 GMT                 COMMENT
For assistance contact dagnew@ucsd.edu                      COMMENT
or anderson@python.ucsd.edu                                 COMMENT
                                                            COMMENT
BLM CA 065-94-66 GO18                                       MARKER NAME
gs18                                                        MARKER NUMBER
HEM US NATIONAL IMAGERY MAPPING AGENCY                      OBSERVER / AGENCY
500 ASHTECH Z-XII3 4J30                                     REC # / TYPE / VERS
113 ASHTECH GEODETIC III                                    ANT # / TYPE
 -2427917.3244 -4591286.9051  3691236.9642                  APPROX POSITION XYZ
        0.1560        0.0000        0.0000                  ANTENNA: DELTA H/E/N
     1     1     0                                          WAVELENGTH FACT L1/2
     7    L1    L2    C1    P1    P2    S1    S2            # / TYPES OF OBSERV
    30                                                      INTERVAL
  2000     5    15    15    20   30.000000                  TIME OF FIRST OBS
  2000     5    15    21    29   60.000000                  TIME OF LAST OBS
                                                            END OF HEADER
 00  5 15 15 20 30.0000000  0  6G24G 2G26G 4G 7G 9
    -26260.66356                  18643105.603                    18643115.909
       227.000         176.000
     17937.80659      8644.49557  18253198.686    18253196.775    18253207.072
       232.000         191.000
      2459.87753                  20688615.677
       217.000          74.000
     -3841.70353                  16718569.180
       240.000          74.000
     19074.37359      8660.51557  17387859.985    17387857.737    17387866.186
       240.000         206.000
    -13375.70757                  17388440.725                    17388447.597
       242.000         206.000
 00  5 15 15 21  0.0000000  0  7G24G 2G26G 4G 5G 7G 9
   -181760.65559   -125879.57156  18618777.788    18618776.139    18618788.610
       227.000         177.000
     42124.11659     27490.86247  18257801.062    18257799.233    18257809.598
       233.000         191.000
     41863.63745                  20698239.218                    20698252.322
       218.000         159.000
   -100632.49959    -64673.69657  16703712.999    16703711.741    16703720.687
       241.000         203.000
    -75629.50255                  19972871.756
       216.000         155.000
     43227.23559     27480.86747  17392455.819    17392453.910    17392462.480
       242.000         206.000
   -100366.77259    -63858.59757  17376112.003    17376110.602    17376119.371
       242.000         206.000
 00  5 15 15 21 30.0010000  0  6G24G 2G26G 4G 7G 9
   -309277.11549   -225242.88746  23091398.948    23091397.383    23091409.844
       227.000         178.000
     66614.31549     46574.02947  22759348.164    22759346.481    22759356.844
       233.000         191.000
    120892.57059     81293.39855  25204755.278    25204754.528    25204768.661
       217.000         159.000
   -178070.51949   -125014.99247  21185863.722    21185862.685    21185871.640
       240.000         204.000
     67591.01849     46465.57847  21893978.934    21893977.109    21893985.655
       242.000         206.000
   -164549.40449   -113871.04447  21860785.256    21860783.966    21860792.737
       243.000         206.000
 00  5 15 15 22  0.0010000  0  7G24G 2G26G 4G 5G 7G 9
   -436648.70849   -324493.31946  23067160.843    23067159.403    23067171.782
       227.000         178.000
     91364.74449     65859.98647  22764058.044    22764056.375    22764066.737
       233.000         191.000
    171505.24649    120731.61145  25214386.625    25214385.846    25214400.136
       217.000         160.000
   -255015.52749   -184972.11647  21171221.537    21171220.558    21171229.501
       241.000         203.000
   -343733.54059   -250975.93255  24426936.232    24426934.311    24426946.117
       216.000         159.000
     92120.20549     65579.18347  21898646.711    21898644.919    21898653.455
       242.000         206.000
   -228253.21549   -163510.37247  21848662.897    21848661.619    21848670.306
       243.000         206.000
 00  5 15 15 22 30.0010000  0  7G24G 2G26G 4G 5G 7G 9
   -563613.66849   -423426.89646  23043000.116    23042998.699    23043011.135
       227.000         178.000
    116563.93149     85495.61547  22768853.403    22768851.718    22768862.058
       234.000         191.000
    222301.94749    160313.21445  25224053.010    25224052.243    25224066.514
       217.000         159.000
   -331229.95349   -244359.96247  21156718.426    21156717.462    21156726.362
       241.000         203.000
   -456098.76649   -338533.17845  24405553.681    24405551.903    24405563.686
       217.000         160.000
    117001.67749     84967.29447  21903381.553    21903379.747    21903388.290
       242.000         206.000
   -291247.00549   -212596.44347  21836675.666    21836674.375    21836682.954
       243.000         206.000
 00  5 15 15 23  0.0010000  0  7G24G 2G26G 4G 5G 7G 9
   -690240.31549   -522096.85146  23018903.744    23018902.400    23018914.859
       228.000         178.000
    142141.08149    105425.76747  22773720.659    22773718.950    22773729.303
       233.000         190.000
    273208.78649    199980.63645  25233740.402    25233739.551    25233753.878
       216.000         159.000
   -406783.19349   -303232.59347  21142341.137    21142340.170    21142349.057
       241.000         204.000
   -568350.74549   -426002.18145  24384192.758    24384191.039    24384202.788
       218.000         160.000
    142162.95549    104573.44147  21908169.640    21908167.813    21908176.364
       242.000         206.000
   -353600.45749   -261183.55047  21824810.224    21824808.914    21824817.484
       242.000         206.000
 00  5 15 15 23 30.0010000  0  7G24G 2G26G 4G 5G 7G 9
   -816564.94449   -620531.47546  22994864.820    22994863.537    22994876.040
       228.000         178.000
    168057.42649    125620.23647  22778652.431    22778650.719    22778661.087
       232.000         190.000
    324183.82849    239701.19645  25243440.773    25243439.882    25243454.138
       215.000         156.000
   -481712.50949   -361619.04747  21128082.587    21128081.618    21128090.509
       241.000         204.000
   -680527.89449   -513412.86445  24362846.175    24362844.519    24362856.211
       218.000         161.000
    167563.52149    124366.04847  21913003.251    21913001.423    21913009.968
       242.000         207.000
   -415351.56149   -309301.28847  21813059.378    21813058.087    21813066.658
       242.000         206.000
 00  5 15 15 24  0.0010000  0  7G24G 2G26G 4G 5G 7G 9
   -942677.12249   -718800.55146  22970866.397    22970865.136    22970877.650
       228.000         178.000
    194220.60849    146007.03247  22783631.172    22783629.457    22783639.833
       232.000         190.000
    375132.05549    279400.86045  25253135.979    25253135.080    25253149.380
       216.000         156.000
   -556108.78449   -419590.15247  21113925.441    21113924.476    21113933.388
       240.000         204.000
   -792721.87949   -600836.66745  24341496.455    24341494.805    24341506.408
       218.000         161.000
    193109.64349    144272.07147  21917864.564    21917862.720    21917871.260
       242.000         206.000
   -476591.35649   -357020.61147  21801405.851    21801404.539    21801413.133
       243.000         206.000
 00  5 15 15 24 30.0010000  0  7G24G 2G26G 4G 5G 7G 9
  -1068666.22349   -816973.73046  22946891.382    22946890.146    22946902.682
       228.000         179.000
    220539.09749    166514.84847  22788639.531    22788637.776    22788648.144
       232.000         190.000
    425958.70149    319005.79245  25262808.174    25262807.181    25262821.487
       217.000         156.000
   -630061.96849   -477215.99647  21099852.599    21099851.661    21099860.574
       240.000         204.000
   -905023.34359   -688344.23755  24320126.287    24320124.597    24320136.155
       219.000         161.000
    218708.31349    164219.03747  21922735.852    21922734.013    21922742.557
       242.000         206.000
   -537410.00949   -404411.77447  21789832.463    21789831.162    21789839.737
       242.000         206.000
 00  5 15 15 25  0.0010000  0  7G24G 2G26G 4G 5G 7G 9
  -1194515.36449   -915037.84946  22922942.976    22922941.794    22922954.315
       228.000         179.000
    247027.03149    187154.71347  22793680.126    22793678.339    22793688.696
       233.000         190.000
    476674.86749    358524.63045  25272459.432    25272458.311    25272472.589
       217.000         158.000
   -703556.53549   -534484.46247  21085867.034    21085866.114    21085875.029
       241.000         204.000
  -1017417.57549   -775924.07645  24298738.437    24298736.746    24298748.198
       218.000         160.000
    244371.88049    184216.58247  21927619.504    21927617.663    21927626.210
       242.000         205.000
   -597792.43849   -451463.01347  21778342.071    21778340.785    21778349.337
       242.000         206.000
 00  5 15 15 25 30.0010000  0  7G24G 2G26G 4G 5G 7G 9
  -1320081.12249  -1012881.17246  22899048.538    22899047.390    22899059.860
       229.000         179.000
    273825.31749    208036.39847  22798779.743    22798777.954    22798788.310
       232.000         190.000
    527418.45449    398064.70245  25282115.913    25282114.676    25282128.895
       217.000         157.000
   -776450.01849   -591284.56647  21071995.931    21071994.967    21072003.861
       241.000         204.000
  -1129762.98749   -863465.88545  24277359.847    24277358.174    24277369.558
       220.000         159.000
    270239.86749    204373.41147  21932542.090    21932540.222    21932548.774
       242.000         206.000
   -657596.87849   -498063.87747  21766961.688    21766960.388    21766968.954
       242.000         206.000
 00  5 15 15 26  0.0010000  0  7G24G 2G26G 4G 5G 7G 9
  -1445486.39249  -1110599.42046  22875184.677    22875183.502    22875195.964
       230.000         180.000
    300808.78949    229062.38747  22803914.618    22803912.810    22803923.194
       232.000         189.000
    578061.73549    437526.90045  25291753.312    25291751.967    25291766.194
       216.000         156.000
   -848866.59649   -647713.05347  21058215.579    21058214.587    21058223.455
       241.000         204.000
  -1242184.29349   -951066.83645  24255966.820    24255965.103    24255976.456
       219.000         159.000
    296185.48549    224590.73447  21937479.482    21937477.572    21937486.108
       242.000         205.000
   -716947.45749   -544311.08647  21755667.737    21755666.398    21755674.944
       243.000         206.000
 00  5 15 15 26 30.0010000  0  7G24G 2G26G 4G 5G 7G 9
  -1570728.82549  -1208190.80046  22851351.786    22851350.618    22851363.042
       229.000         181.000
    327977.18749    250232.46547  22809084.712    22809082.878    22809093.266
       233.000         190.000
    628600.78649    476907.70745  25301370.884    25301369.411    25301383.590
       217.000         154.000
   -920804.71349   -703768.71247  21044526.273    21044525.245    21044534.091
       241.000         204.000
  -1354681.12549  -1038726.63845  24234559.444    24234557.680    24234568.966
       218.000         161.000
    322206.77149    244867.01747  21942431.289    21942429.324    21942437.849
       243.000         205.000
   -775843.28449   -590203.94347  21744460.370    21744458.947    21744467.470
       243.000         206.000
 00  5 15 15 27  0.0010000  0  7G24G 2G26G 4G 5G 7G 9
  -1695739.17149  -1305601.32846  22827563.099    22827561.898    22827574.287
       230.000         181.000
    355397.21649    271598.62547  22814302.740    22814300.833    22814311.221
       232.000         189.000
    679099.78149    516257.31445  25310980.738    25310979.215    25310993.387
       216.000         154.000
   -992196.45349   -759398.61847  21030940.928    21030939.879    21030948.726
       240.000         204.000
  -1467186.07249  -1126392.75445  24213150.569    24213148.706    24213159.946
       218.000         160.000
    348369.16049    265253.25147  21947409.935    21947407.928    21947416.444
       242.000         205.000
   -834216.43049   -635689.51447  21733352.432    21733350.952    21733359.449
       243.000         206.000
 00  5 15 15 27 30.0010000  0  7G24G 2G26G 4G 5G 7G 9
  -1820555.80749  -1402860.91246  22803811.252    22803810.023    22803822.394
       230.000         182.000
    383027.79149    293128.84947  22819560.791    22819558.847    22819569.241
       233.000         188.000
    729514.87249    555541.55845  25320574.621    25320573.059    25320587.225
       217.000         155.000
  -1063081.42449   -814633.64347  21017452.025    21017450.944    21017459.768
       241.000         204.000
  -1579739.39249  -1214096.57245  24191732.385    24191730.558    24191741.721
       218.000         160.000
    374630.19549    285716.35047  21952407.326    21952405.288    21952413.805
       242.000         205.000
   -892106.95649   -680799.01647  21722336.250    21722334.774    21722343.266
       243.000         207.000
 00  5 15 15 28  0.0010000  0  7G24G 2G26G 4G 5G 7G 9
  -1945166.95349  -1499960.39846  22780098.490    22780097.257    22780109.590
       230.000         182.000
    410878.44949    314830.54247  22824860.683    22824858.731    22824869.155
       231.000         188.000
    779852.30249    594765.24445  25330153.753    25330152.132    25330166.336
       217.000         155.000
  -1133448.68649   -869465.27447  21004061.601    21004060.513    21004069.326
       241.000         204.000
  -1692330.82149  -1301830.11245  24170306.921    24170305.104    24170316.251
       219.000         160.000
    400997.72249    306262.42147  21957424.998    21957422.928    21957431.440
       242.000         205.000
   -949504.56949   -725524.44247  21711413.863    21711412.392    21711420.891
       243.000         207.000
 00  5 15 15 28 30.0010000  0  7G24G 2G26G 4G 5G 7G 9
  -2069557.00649  -1596887.60846  22756427.762    22756426.531    22756438.862
       230.000         182.000
    438962.32149    336713.95447  22830204.938    22830202.998    22830213.435
       231.000         188.000
    830122.13049    633936.23045  25339719.998    25339718.346    25339732.578
       214.000         154.000
  -1203284.23049   -923882.57847  20990772.309    20990771.256    20990780.055
       240.000         204.000
  -1804946.85149  -1389582.82045  24148876.699    24148874.977    24148886.097
       218.000         161.000
    427483.24549    326900.43047  21962465.061    21962463.007    21962471.524
       241.000         205.000
  -1006395.33449   -769854.92147  21700587.941    21700586.471    21700594.979
       243.000         207.000
 00  5 15 15 29  0.0010000  0  7G24G 2G26G 4G 5G 7G 9
  -2193721.73149  -1693639.22746  22732799.869    22732798.692    22732811.017
       230.000         183.000
    467280.86149    358780.23647  22835593.844    22835591.929    22835602.383
       231.000         188.000
    880323.15649    673053.61045  25349273.089    25349271.456    25349285.713
       214.000         151.000
  -1272584.92849   -977883.10647  20977584.779    20977583.765    20977592.595
       241.000         205.000
  -1917585.08449  -1477352.82345  24127442.250    24127440.596    24127451.720
       219.000         160.000
    454086.88049    347630.48047  21967527.547    21967525.546    21967534.099
       241.000         205.000
  -1062776.39349   -813788.21947  21689858.932    21689857.522    21689866.061
       242.000         207.000
 00  5 15 15 29 30.0010000  0  7G24G 2G26G 4G 5G 7G 9
  -2317691.66549  -1790239.06346  22709209.083    22709207.942    22709220.227
       231.000         182.000
    495801.27949    381003.83246  22841021.207    22841019.287    22841029.735
       231.000         187.000
    930419.68649    712089.59045  25358806.189    25358804.679    25358818.995
       213.000         151.000
  -1341382.44449  -1031491.54547  20964493.056    20964492.051    20964500.869
       241.000         205.000
  -2030277.53549  -1565165.05545  24105997.541    24105995.905    24106007.023
       219.000         160.000
    480774.32449    368425.84447  21972606.022    21972604.051    21972612.617
       241.000         205.000
  -1118679.62849   -857349.18347  21679220.882    21679219.495    21679228.081
       242.000         207.000
 00  5 15 15 30  0.0010000  0  7G24G 2G26G 4G 5G 7G 9
  -2441491.07849  -1886706.01746  22685650.775    22685649.629    22685661.887
       231.000         183.000
    524496.78649    403363.85347  22846481.884    22846479.956    22846490.417
       231.000         188.000
    980381.77849    751020.79545  25368313.805    25368312.303    25368326.739
       212.000         151.000
  -1409702.48949  -1084727.93547  20951492.215    20951491.197    20951499.990
       240.000         204.000
  -2143050.47749  -1653040.01745  24084537.520    24084535.927    24084546.979
       220.000         162.000
    507517.19149    389264.38847  21977695.074    21977693.102    21977701.692
       242.000         205.000
  -1174130.93249   -900557.99547  21668668.885    21668667.492    21668676.084
       243.000         207.000
 00  5 15 15 30 30.0010000  0  7G24G 2G26G 4G 5G 7G 9
  -2565128.07649  -1983046.43146  22662123.381    22662122.232    22662134.445
       230.000         183.000
    553356.67349    425851.96047  22851973.866    22851971.910    22851982.391
       231.000         188.000
   1030196.05649    789836.82245  25377793.378    25377791.806    25377806.315
       212.000         150.000
  -1477554.28349  -1137599.44747  20938580.457    20938579.436    20938588.211
       241.000         204.000
  -2255913.66249  -1740985.28145  24063060.372    24063058.762    24063069.808
       219.000         162.000
    534303.39749    410136.70847  21982792.382    21982790.400    21982799.006
       242.000         205.000
  -1229140.18149   -943422.34247  21658201.010    21658199.598    21658208.207
       243.000         207.000
 00  5 15 15 31  0.0010000  0  7G24G 2G26G 4G 5G 7G 9
  -2688589.76449  -2079250.22946  22638629.306    22638628.176    22638640.347
       231.000         184.000
    582391.27349    448476.21347  22857499.054    22857497.105    22857507.623
       231.000         188.000
   1079869.98849    828543.48745  25387246.256    25387244.678    25387259.232
       212.000         149.000
  -1544926.20549  -1190097.03047  20925760.002    20925758.989    20925767.762
       241.000         205.000
  -2368855.90649  -1828992.16445  24041568.104    24041566.538    24041577.572
       218.000         161.000
    561142.07449    431049.91247  21987899.680    21987897.690    21987906.306
       241.000         205.000
  -1283695.93849   -985933.32347  21647819.401    21647817.994    21647826.606
       242.000         207.000
 00  5 15 15 31 30.0010000  0  7G24G 2G26G 4G 5G 7G 9
  -2811913.66149  -2175346.66046  22615161.439    22615160.349    22615172.495
       231.000         185.000
    611560.56249    471205.42546  22863049.830    22863047.919    22863058.468
       231.000         187.000
   1129360.81249    867107.47245  25396664.297    25396662.712    25396677.230
       211.000         149.000
  -1611857.15849  -1242251.00247  20913023.436    20913022.466    20913031.253
       241.000         205.000
  -2481916.38849  -1917091.17446  24020053.344    24020051.757    24020062.817
       219.000         163.000
    587991.84449    451971.76547  21993009.025    21993007.081    21993015.728
       241.000         205.000
  -1337837.23749  -1028121.35047  21637516.612    21637515.257    21637523.855
       242.000         207.000
 00  5 15 15 32  0.0010000  0  7G24G 2G26G 4G 5G 7G 9
  -2935064.75949  -2271308.43746  22591726.451    22591725.395    22591737.537
       232.000         185.000
    640896.98649    494064.86746  22868632.407    22868630.535    22868641.127
       230.000         187.000
   1178698.05549    905551.79345  25406053.086    25406051.449    25406066.001
       211.000         150.000
  -1678313.50549  -1294035.14947  20900377.172    20900376.242    20900385.024
       241.000         205.000
  -2595062.10349  -2005256.60145  23998522.376    23998520.783    23998531.863
       218.000         162.000
    614883.61049    472926.33947  21998126.344    21998124.448    21998133.123
       241.000         204.000
  -1391531.18449  -1069960.79047  21627298.976    21627297.648    21627306.257
       242.000         207.000
 00  5 15 15 32 30.0010000  0  7G24G 2G26G 4G 5G 7G 9
  -3057997.40349  -2367099.98746  22568333.033    22568332.007    22568344.144
       231.000         185.000
    670443.47049    517087.99846  22874255.000    22874253.140    22874263.758
       232.000         187.000
   1227921.94749    943907.74745  25415420.224    25415418.612    25415433.296
       213.000         149.000
  -1744250.77349  -1345414.81647  20887829.676    20887828.785    20887837.580
       240.000         204.000
  -2708248.94949  -2093454.08545  23976983.572    23976982.027    23976993.047
       219.000         162.000
    641859.17549    493946.21847  22003259.625    22003257.755    22003266.482
       242.000         204.000
  -1444733.41249  -1111417.07547  21617174.934    21617173.621    21617182.224
       243.000         207.000
 00  5 15 15 33  0.0010000  0  7G24G 2G26G 4G 5G 7G 9
  -3180729.87649  -2462735.56146  22544977.773    22544976.716    22544988.838
       232.000         185.000
    700179.24249    540258.62046  22879913.635    22879911.768    22879922.403
       231.000         186.000
   1277008.93349    982157.02845  25424761.437    25424759.791    25424774.586
       211.000         148.000
  -1809688.74649  -1396405.42547  20875377.243    20875376.350    20875385.142
       241.000         205.000
  -2821496.90249  -2181699.16945  23955433.179    23955431.660    23955442.625
       220.000         162.000
    668896.22249    515013.99947  22008404.666    22008402.792    22008411.524
       241.000         204.000
  -1497463.98349  -1152505.83747  21607140.684    21607139.359    21607147.925
       243.000         207.000
 00  5 15 15 33 30.0010000  0  7G24G 2G26G 4G 5G 7G 9
  -3303268.53049  -2558220.11946  22521659.417    22521658.323    22521670.411
       233.000         185.000
    730095.48249    563569.86246  22885606.655    22885604.750    22885615.390
       230.000         186.000
   1325947.25849   1020290.46145  25434074.375    25434072.635    25434087.511
       212.000         149.000
  -1874635.33049  -1447013.13347  20863018.396    20863017.462    20863026.224
       242.000         205.000
  -2934813.82449  -2269998.00545  23933869.712    23933868.189    23933879.096
       220.000         162.000
    695984.72949    536121.88047  22013559.541    22013557.624    22013566.353
       242.000         204.000
  -1549730.76449  -1193233.20547  21597194.739    21597193.362    21597201.915
       243.000         207.000
 00  5 15 15 34  0.0010000  0  7G24G 2G26G 4G 5G 7G 9
  -3425594.07249  -2653538.61546  22498381.616    22498380.512    22498392.539
       233.000         186.000
    760208.82449    587034.69346  22891337.205    22891335.242    22891345.896
       230.000         186.000
   1374751.16249   1058319.17145  25443361.743    25443359.956    25443374.881
       211.000         148.000
  -1939072.33949  -1497223.76847  20850756.516    20850755.530    20850764.294
       241.000         205.000
  -3048182.10849  -2358336.86746  23912296.448    23912294.890    23912305.779
       219.000         163.000
    723140.02649    557281.81147  22018727.140    22018725.178    22018733.900
       242.000         204.000
  -1601516.18749  -1233585.49247  21587340.350    21587338.959    21587347.481
       243.000         207.000
 00  5 15 15 34 30.0010000  0  7G24G 2G26G 4G 5G 7G 9
  -3547704.54649  -2748689.53146  22475144.789    22475143.619    22475155.590
       233.000         186.000
    790518.85549    610652.79246  22897105.109    22897103.148    22897113.821
       230.000         185.000
   1423417.15549   1096240.41045  25452622.924    25452621.070    25452636.002
       212.000         148.000
  -2002999.19949  -1547036.88547  20838591.697    20838590.677    20838599.421
       241.000         205.000
  -3161601.37749  -2446715.45145  23890713.440    23890711.896    23890722.766
       219.000         162.000
    750360.26049    578492.33647  22023907.085    22023905.089    22023913.802
       241.000         204.000
  -1652819.88949  -1273562.41347  21577577.655    21577576.220    21577584.732
       243.000         207.000
 00  5 15 15 35  0.0010000  0  7G24G 2G26G 4G 5G 7G 9
  -3669572.98749  -2843651.85046  22451953.975    22451952.768    22451964.702
       233.000         186.000
    821049.92649    634443.13146  22902915.087    22902913.113    22902923.795
       230.000         186.000
   1471966.84349   1134071.01645  25461861.941    25461860.049    25461875.023
       212.000         147.000
  -2066390.69949  -1596432.83647  20826528.726    20826527.669    20826536.428
       241.000         205.000
  -3275046.38649  -2535114.09746  23869125.541    23869123.971    23869134.857
       219.000         163.000
    777668.52149    599771.45947  22029103.756    22029101.736    22029110.458
       241.000         204.000
  -1703616.98449  -1313144.57647  21567911.358    21567909.902    21567918.361
       243.000         207.000
 00  5 15 15 35 30.0010000  0  7G24G 2G26G 4G 5G 7G 9
  -3791199.37949  -2938425.55746  22428809.202    22428807.994    22428819.861
       233.000         186.000
    851799.70349    658403.88346  22908766.703    22908764.716    22908775.400
       230.000         185.000
   1520395.00149   1171806.92945  25471077.847    25471075.898    25471090.861
       211.000         146.000
  -2129248.02449  -1645412.55247  20814567.392    20814566.341    20814575.056
       241.000         205.000
  -3388518.73549  -2623534.05746  23847532.416    23847530.846    23847541.723
       219.000         163.000
    805060.98249    621116.18647  22034316.442    22034314.409    22034323.136
       241.000         204.000
  -1753908.83049  -1352333.04147  21558341.177    21558339.712    21558348.162
       243.000         207.000
 00  5 15 15 36  0.0010000  0  7G24G 2G26G 4G 5G 7G 9
  -3912568.98649  -3032999.17446  22405713.303    22405712.077    22405723.903
       234.000         187.000
    882780.35949    682544.55046  22914662.252    22914660.233    22914670.928
       229.000         185.000
   1568711.19649   1209455.60445  25480272.394    25480270.413    25480285.372
       210.000         144.000
  -2191557.97149  -1693965.73147  20802710.241    20802709.167    20802717.864
       241.000         205.000
  -3502005.13649  -2711964.95446  23825936.602    23825935.055    23825945.952
       220.000         164.000
    832548.72749    642535.16347  22039547.270    22039545.213    22039553.944
       241.000         204.000
  -1803682.46249  -1391117.70047  21548869.599    21548868.130    21548876.547
       243.000         208.000
 00  5 15 15 36 30.0010000  0  7G24G 2G26G 4G 5G 7G 9
  -4033691.66249  -3127380.37746  22382664.360    22382663.139    22382674.919
       234.000         187.000
    913979.40449    706855.37646  22920599.321    22920597.304    22920608.037
       230.000         185.000
   1616900.36649   1247005.28145  25489442.765    25489440.746    25489455.753
       209.000         143.000
  -2253331.74349  -1742101.11847  20790955.094    20790954.025    20790962.724
       241.000         205.000
  -3615517.17849  -2800415.83746  23804335.971    23804334.409    23804345.299
       220.000         163.000
    860117.95349    664017.62447  22044793.608    22044791.529    22044800.255
       242.000         203.000
  -1852949.49649  -1429507.61347  21539494.432    21539492.953    21539501.377
       243.000         208.000
 00  5 15 15 37  0.0010000  0  7G24G 2G26G 4G 5G 7G 9
  -4154563.02649  -3221565.75547  22359663.249    22359662.028    22359673.768
       235.000         189.000
    945398.71649    731337.85946  22926578.312    22926576.292    22926587.055
       230.000         185.000
   1664961.65649   1284455.30545  25498588.732    25498586.793    25498601.816
       210.000         142.000
  -2314566.68849  -1789816.63347  20779302.453    20779301.390    20779310.085
       241.000         205.000
  -3729051.79349  -2888884.30246  23782731.099    23782729.501    23782740.341
       220.000         164.000
    887769.37949    685564.14847  22050055.575    22050053.485    22050062.201
       242.000         203.000
  -1901707.29349  -1467500.70347  21530216.191    21530214.688    21530223.116
       243.000         208.000
 00  5 15 15 37 30.0010000  0  7G24G 2G26G 4G 5G 7G 9
  -4275172.97349  -3315547.43347  22336711.867    22336710.657    22336722.378
       235.000         190.000
    977045.69149    755997.73046  22932600.654    22932598.598    22932609.408
       230.000         184.000
   1712899.77949   1321809.34845  25507711.376    25507709.401    25507724.560
       207.000         142.000
  -2375254.35049  -1837105.69547  20767753.975    20767752.922    20767761.599
       241.000         205.000
  -3842600.58449  -2977363.82646  23761123.522    23761121.892    23761132.681
       221.000         164.000
    915509.14149    707179.49747  22055334.331    22055332.248    22055340.960
       242.000         203.000
  -1949947.57949  -1505090.53847  21521036.352    21521034.881    21521043.334
       243.000         208.000
 00  5 15 15 38  0.0010000  0  7G24G 2G26G 4G 5G 7G 9
  -4395516.52649  -3409321.52947  22313811.175    22313809.961    22313821.683
       235.000         190.000
   1008922.48649    780836.68846  22938666.722    22938664.647    22938675.487
       230.000         184.000
   1760714.54349   1359067.25145  25516810.416    25516808.472    25516823.751
       208.000         142.000
  -2435391.23749  -1883965.59347  20756310.309    20756309.256    20756317.922
       241.000         205.000
  -3956160.37149  -3065851.91646  23739513.788    23739512.154    23739522.940
       221.000         165.000
    943338.45849    728864.63147  22060630.111    22060628.042    22060636.757
       241.000         204.000
  -1997667.28449  -1542274.73447  21511955.590    21511954.131    21511962.603
       243.000         208.000
 00  5 15 15 38 30.0010000  0  7G24G 2G26G 4G 5G 7G 9
  -4515592.57449  -3502887.18347  22290961.375    22290960.170    22290971.890
       234.000         189.000
   1041027.86749    805853.76546  22944776.271    22944774.202    22944785.055
       230.000         185.000
   1808401.83749   1396225.83145  25525885.160    25525883.298    25525898.634
       208.000         139.000
  -2494977.59149  -1930396.49347  20744971.387    20744970.334    20744979.011
       241.000         205.000
  -4069731.29249  -3154348.68646  23717901.950    23717900.281    23717911.052
       220.000         166.000
    971254.83549    750617.60347  22065942.475    22065940.395    22065949.139
       242.000         203.000
  -2044867.00849  -1579053.74947  21502973.808    21502972.340    21502980.817
       243.000         208.000
 00  5 15 15 39  0.0010000  0  7G24G 2G26G 4G 5G 7G 9
  -4635401.42849  -3596244.63747  22268162.422    22268161.230    22268172.935
       235.000         189.000
   1073359.22449    831046.91746  22950928.793    22950926.744    22950937.630
       230.000         183.000
   1855956.41349   1433281.00845  25534934.718    25534932.842    25534948.230
       207.000         139.000
  -2554015.38849  -1976399.94947  20733736.823    20733735.802    20733744.471
       241.000         205.000
  -4183315.00649  -3242855.41146  23696287.650    23696286.016    23696296.687
       221.000         163.000
    999254.36249    772435.36547  22071270.667    22071268.592    22071277.327
       241.000         203.000
  -2091548.70549  -1615429.10347  21494090.591    21494089.123    21494097.597
       243.000         208.000
 00  5 15 15 39 30.0010000  0  7G24G 2G26G 4G 5G 7G 9
  -4754900.71849  -3689360.87247  22245422.374    22245421.194    22245432.893
       235.000         189.000
   1105956.26949    856447.09946  22957131.880    22957129.825    22957140.760
       230.000         184.000
   1903415.27549   1470261.58045  25543966.116    25543964.211    25543979.696
       205.000         138.000
  -2612463.92849  -2021944.24647  20722614.429    20722613.414    20722622.083
       241.000         205.000
  -4296870.76149  -3331340.35946  23674678.622    23674677.020    23674687.683
       221.000         164.000
   1027375.38449    794347.79947  22076621.984    22076619.896    22076628.642
       241.000         203.000
  -2137672.24649  -1651369.53347  21485313.572    21485312.130    21485320.584
       243.000         208.000
 00  5 15 15 40  0.0010000  0  7G24G 2G26G 4G 5G 7G 9
  -4874067.62649  -3782218.11147  22222745.579    22222744.412    22222756.098
       235.000         190.000
   1138839.17449    882070.02946  22963389.362    22963387.324    22963398.296
       229.000         183.000
   1950796.19549   1507181.43445  25552982.582    25552980.707    25552996.257
       205.000         137.000
  -2670302.08649  -2067012.92247  20711608.175    20711607.174    20711615.830
       241.000         205.000
  -4410377.20749  -3419786.86846  23653078.970    23653077.391    23653088.064
       221.000         166.000
   1055637.13249    816369.88547  22082000.048    22081997.973    22082006.736
       241.000         203.000
  -2183216.51949  -1686858.58847  21476646.800    21476645.357    21476653.822
       243.000         208.000
 00  5 15 15 40 30.0010000  0  7G24G 2G26G 4G 5G 7G 9
  -4992917.37549  -3874828.22247  22200129.109    22200127.979    22200139.642
       235.000         190.000
   1171990.06749    907901.77446  22969697.865    22969695.832    22969706.806
       229.000         183.000
   1998078.81949   1544024.69045  25561980.428    25561978.505    25561994.299
       204.000         137.000
  -2727546.55349  -2111618.99047  20700714.897    20700713.896    20700722.549
       240.000         205.000
  -4523851.01649  -3508207.96646  23631485.479    23631483.970    23631494.652
       221.000         164.000
   1084020.83149    838486.99647  22087401.308    22087399.259    22087408.028
       241.000         203.000
  -2228198.59549  -1721909.57847  21468087.009    21468085.567    21468094.038
       243.000         208.000
 00  5 15 15 41  0.0010000  0  7G24G 2G26G 4G 5G 7G 9
  -5111501.66549  -3967231.47747  22177563.233    22177562.077    22177573.707
       237.000         191.000
   1205354.70949    933900.07246  22976047.023    22976044.987    22976056.020
       230.000         182.000
   2045206.14349   1580746.91745  25570948.655    25570946.753    25570962.600
       204.000         136.000
  -2784250.93149  -2155804.20347  20689924.399    20689923.413    20689932.047
       241.000         205.000
  -4637345.37949  -3596645.08046  23609888.186    23609886.643    23609897.335
       221.000         165.000
   1112470.86949    860655.79847  22092815.200    22092813.162    22092821.963
       241.000         203.000
  -2272672.13349  -1756564.29947  21459623.977    21459622.558    21459631.021
       243.000         208.000
 00  5 15 15 41 30.0000000  0  7G24G 2G26G 4G 5G 7G 9
  -5229762.05249  -4059382.33947  22155058.982    22155057.815    22155069.410
       237.000         190.000
   1238984.30949    960104.83146  22982446.599    22982444.573    22982455.642
       228.000         182.000
   2092226.47749   1617385.77745  25579896.664    25579894.639    25579910.555
       204.000         136.000
  -2840360.12749  -2199525.63747  20679247.175    20679246.186    20679254.811
       242.000         205.000
  -4750803.19549  -3685053.70746  23588297.766    23588296.289    23588306.963
       220.000         166.000
   1141037.56149    882915.50147  22098251.279    22098249.256    22098258.083
       241.000         202.000
  -2316582.73949  -1790780.37247  21451268.080    21451266.654    21451275.127
       243.000         208.000
 00  5 15 15 42  0.0000000  0  7G24G 2G26G 4G 5G 7G 9
  -5347721.78549  -4151298.92347  22132611.921    22132610.750    22132622.312
       237.000         191.000
   1272862.76449    986503.49246  22988893.536    22988891.525    22988902.640
       228.000         183.000
   2139122.13349   1653927.50145  25588820.895    25588818.846    25588834.659
       204.000         133.000
  -2895895.27249  -2242799.76447  20668679.209    20668678.200    20668686.823
       242.000         206.000
  -4864248.85149  -3773452.85646  23566709.635    23566708.207    23566718.949
       221.000         165.000
   1169703.39449    905252.45247  22103706.246    22103704.221    22103713.088
       241.000         202.000
  -2359950.84249  -1824573.71347  21443015.413    21443013.993    21443022.477
       243.000         208.000
 00  5 15 15 42 30.0000000  0  7G24G 2G26G 4G 5G 7G 9
  -5465344.41149  -4242952.83647  22110229.003    22110227.824    22110239.389
       237.000         191.000
   1307018.91949   1013118.53946  22995393.344    22995391.338    22995402.469
       228.000         182.000
   2185919.09649   1690392.29845  25597726.159    25597724.214    25597740.254
       202.000         133.000
  -2950823.65849  -2285601.09347  20658226.674    20658225.681    20658234.290
       242.000         205.000
  -4977647.45149  -3861815.35046  23545130.485    23545129.063    23545139.851
       223.000         165.000
   1198496.54449    927688.61447  22109185.441    22109183.416    22109192.324
       241.000         202.000
  -2402744.65149  -1857919.55847  21434872.005    21434870.590    21434879.113
       243.000         208.000
 00  5 15 15 43  0.0000000  0  7G24G 2G26G 4G 5G 7G 9
  -5582631.55949  -4334345.33447  22087909.912    22087908.755    22087920.291
       237.000         192.000
   1341448.77749   1039946.86546  23001945.247    23001943.232    23001954.359
       228.000         182.000
   2232610.70449   1726775.01544  25606611.364    25606609.376    25606625.719
       201.000         130.000
  -3005148.50449  -2327932.13347  20647888.985    20647887.991    20647896.602
       242.000         205.000
  -5091001.84149  -3950143.39446  23523559.755    23523558.386    23523569.181
       221.000         165.000
   1227411.81849    950219.93447  22114687.846    22114685.836    22114694.793
       241.000         203.000
  -2444967.62749  -1890820.59547  21426837.248    21426835.848    21426844.361
       243.000         208.000
 00  5 15 15 43 30.0000000  0  7G24G 2G26G 4G 5G 7G 9
  -5699607.45649  -4425495.30247  22065650.085    22065648.925    22065660.426
       238.000         192.000
   1376125.20649   1066967.31246  23008544.055    23008542.037    23008553.182
       228.000         181.000
   2279167.57949   1763052.74844  25615470.980    25615469.079    25615485.527
       202.000         129.000
  -3058895.95449  -2369813.25347  20637661.184    20637660.190    20637668.787
       242.000         206.000
  -5204337.94849  -4038457.17346  23501992.544    23501991.163    23502001.988
       221.000         166.000
   1256421.17149    972824.56547  22120208.160    22120206.167    22120215.171
       240.000         202.000
  -2486645.86849  -1923297.16747  21418906.144    21418904.743    21418913.265
       243.000         208.000
 00  5 15 15 44  0.0000000  0  7G24G 2G26G 4G 5G 7G 9
  -5816214.24649  -4516357.65247  22043460.517    22043459.343    22043470.814
       238.000         193.000
   1411103.64949   1094223.11146  23015200.286    23015198.298    23015209.478
       227.000         181.000
   2325642.75949   1799266.80144  25624315.250    25624313.287    25624329.844
       203.000         129.000
  -3112009.76549  -2411200.63147  20627553.957    20627552.969    20627561.567
       242.000         206.000
  -5317598.84649  -4126712.35746  23480439.575    23480438.262    23480449.114
       221.000         167.000
   1285579.05049    995544.92447  22125756.726    22125754.760    22125763.805
       240.000         202.000
  -2527723.38949  -1955305.64047  21411089.376    21411087.970    21411096.500
       243.000         208.000
 00  5 15 15 44 30.0000000  0  7G24G 2G26G 4G 5G 7G 9
  -5932488.12249  -4606960.59547  22021334.278    22021333.106    22021344.556
       238.000         193.000
   1446345.32949   1121684.01146  23021906.599    23021904.647    23021915.893
       227.000         181.000
   2371994.73449   1835384.89444  25633136.079    25633134.064    25633150.692
       204.000         130.000
  -3164528.22249  -2452124.09447  20617559.983    20617559.017    20617567.624
       242.000         205.000
  -5430822.18649  -4214938.28746  23458893.786    23458892.478    23458903.407
       222.000         166.000
   1314845.56049   1018349.93147  22131325.968    22131324.022    22131333.123
       240.000         202.000
  -2568238.54449  -1986875.90847  21403379.573    21403378.198    21403386.743
       243.000         209.000
 00  5 15 15 45  0.0000000  0  7G24G 2G26G 4G 5G 7G 9
  -6048397.69949  -4697279.66147  21999277.335    21999276.179    21999287.610
       238.000         193.000
   1481879.55749   1149372.87746  23028668.650    23028666.684    23028677.959
       228.000         180.000
   2418250.39549   1871427.94244  25641938.588    25641936.632    25641953.127
       203.000         129.000
  -3216421.12349  -2492560.11147  20607685.042    20607684.114    20607692.724
       242.000         206.000
  -5543977.79749  -4303111.43146  23437360.923    23437359.631    23437370.535
       223.000         168.000
   1344248.93549   1041261.59247  22136921.273    22136919.339    22136928.476
       240.000         202.000
  -2608161.61649  -2017984.80647  21395782.428    21395781.073    21395789.667
       242.000         208.000
 00  5 15 15 45 30.0000000  0  7G24G 2G26G 4G 5G 7G 9
  -6163958.52949  -4787326.98347  21977286.769    21977285.619    21977297.044
       238.000         193.000
   1517687.55249   1177275.06346  23035482.795    23035480.826    23035492.132
       228.000         181.000
   2464388.71349   1907379.55844  25650718.698    25650716.699    25650733.392
       200.000         126.000
  -3267706.65149  -2532522.85247  20597925.721    20597924.788    20597933.404
       242.000         206.000
  -5657082.90449  -4391245.22646  23415837.709    23415836.385    23415847.302
       223.000         167.000
   1373769.53949   1064264.59347  22142538.877    22142536.957    22142546.137
       240.000         201.000
  -2647510.63149  -2048646.39247  21388294.557    21388293.224    21388301.809
       243.000         209.000
 00  5 15 15 46  0.0000000  0  6G24G 2G 4G 5G 7G 9
  -6279168.76249  -4877101.11747  21955362.931    21955361.788    21955373.199
       238.000         194.000
   1553768.81349   1205390.19346  23042348.975    23042346.972    23042358.323
       227.000         180.000
  -3318384.31349  -2572011.93347  20588282.084    20588281.152    20588289.759
       242.000         205.000
  -5770136.51649  -4479338.90246  23394324.289    23394322.961    23394333.904
       223.000         168.000
   1403405.93949   1087357.82647  22148178.543    22148176.615    22148185.834
       240.000         202.000
  -2686285.59949  -2078860.66547  21380915.957    21380914.612    21380923.190
       243.000         209.000
 00  5 15 15 46 30.0000000  0  6G24G 2G 4G 5G 7G 9
  -6394004.79349  -4966583.66647  21933510.315    21933509.166    21933520.554
       239.000         193.000
   1590144.64549   1233734.83646  23049271.185    23049269.167    23049280.559
       226.000         180.000
  -3368432.31349  -2611010.36847  20578758.283    20578757.335    20578765.941
       242.000         206.000
  -5883116.14649  -4567374.91246  23372825.004    23372823.624    23372834.551
       222.000         168.000
   1433178.43249   1110557.10347  22153844.099    22153842.175    22153851.422
       240.000         201.000
  -2724464.80549  -2108610.71347  21373650.742    21373649.374    21373657.945
       243.000         209.000
 00  5 15 15 47  0.0000000  0  6G24G 2G 4G 5G 7G 9
  -6508453.55949  -5055764.44347  21911731.410    21911730.237    21911741.598
       239.000         194.000
   1626825.41149   1262317.11146  23056251.412    23056249.387    23056260.813
       227.000         180.000
  -3417839.62049  -2649509.56147  20569356.409    20569355.442    20569364.043
       242.000         205.000
  -5996010.13149  -4655344.19546  23351341.987    23351340.576    23351351.508
       222.000         168.000
   1463096.50149   1133869.82147  22159537.370    22159535.440    22159544.708
       240.000         201.000
  -2762037.27649  -2137887.98047  21366500.978    21366499.588    21366508.174
       243.000         209.000
 00  5 15 15 47 30.0000000  0  6G24G 2G 4G 5G 7G 9
  -6622541.11549  -5144663.77447  21890021.235    21890020.044    21890031.378
       239.000         194.000
   1663782.46349   1291114.66046  23063284.240    23063282.201    23063293.650
       227.000         180.000
  -3466633.98049  -2687531.13747  20560071.165    20560070.202    20560078.793
       241.000         205.000
  -6108845.44549  -4743267.76346  23329870.157    23329868.715    23329879.596
       223.000         168.000
   1493130.74149   1157273.05447  22165252.787    22165250.816    22165260.099
       240.000         201.000
  -2799031.09449  -2166714.35347  21359461.327    21359459.919    21359468.503
       243.000         209.000
 00  5 15 15 48  0.0000000  0  6G24G 2G 4G 5G 7G 9
  -6736238.43549  -5233259.00447  21868385.290    21868384.096    21868395.416
       238.000         195.000
   1701042.40849   1320148.22846  23070374.703    23070372.657    23070384.121
       226.000         179.000
  -3514788.51849  -2725054.14547  20550907.634    20550906.674    20550915.293
       242.000         205.000
  -6221594.51149  -4831124.12146  23308414.720    23308413.260    23308424.133
       223.000         169.000
   1523306.60149   1180786.65047  22170995.139    22170993.146    22171002.430
       240.000         201.000
  -2835419.44449  -2195068.92847  21352536.834    21352535.451    21352544.059
       243.000         209.000
 00  5 15 15 48 30.0000000  0  6G24G 2G 4G 5G 7G 9
  -6849571.10049  -5321570.10147  21846818.711    21846817.544    21846828.844
       238.000         196.000
   1738576.72849   1349395.59346  23077517.375    23077515.320    23077526.814
       226.000         179.000
  -3562330.79149  -2762100.07347  20541860.607    20541859.683    20541868.307
       241.000         206.000
  -6334284.26049  -4918934.26446  23286970.529    23286969.078    23286979.944
       224.000         170.000
   1553594.98949   1204387.92247  22176758.857    22176756.890    22176766.192
       239.000         200.000
  -2871230.13949  -2222973.38747  21345722.272    21345720.907    21345729.532
       243.000         209.000
 00  5 15 15 49  0.0000000  0  6G24G 2G 4G 5G 7G 9
  -6962532.64149  -5409592.00847  21825322.734    21825321.618    21825332.912
       238.000         196.000
   1776389.83549   1378860.18546  23084713.007    23084711.022    23084722.557
       225.000         178.000
  -3609256.12049  -2798665.26247  20532930.969    20532930.078    20532938.710
       241.000         206.000
  -6446909.17249  -5006693.88346  23265538.667    23265537.224    23265548.094
       223.000         170.000
   1583999.16549   1228079.41547  22182544.587    22182542.659    22182551.966
       239.000         200.000
  -2906458.58349  -2250424.14547  21339018.514    21339017.181    21339025.804
       243.000         209.000
 00  5 15 15 49 30.0000000  0  6G24G 2G 4G 5G 7G 9
  -7075112.34049  -5497316.37047  21803899.451    21803898.353    21803909.643
       239.000         196.000
   1814489.62749   1408548.17546  23091963.218    23091961.265    23091972.867
       225.000         178.000
  -3655555.80149  -2834742.92747  20524120.407    20524119.523    20524128.185
       242.000         205.000
  -6559459.56749  -5094395.43546  23244121.014    23244119.572    23244130.400
       224.000         171.000
   1614526.31949   1251866.73847  22188353.687    22188351.816    22188361.146
       238.000         199.000
  -2941096.33149  -2277414.61747  21332427.161    21332425.852    21332434.487
       243.000         209.000
 00  5 15 15 50  0.0000000  0  6G24G 2G 4G 5G 7G 9
  -7187306.48249  -5584740.30647  21782549.548    21782548.458    21782559.716
       239.000         197.000
   1852877.43149   1438460.58846  23099268.240    23099266.332    23099277.973
       225.000         177.000
  -3701227.78549  -2870331.48547  20515429.288    20515428.421    20515437.086
       241.000         205.000
  -6671932.81149  -5182036.87746  23222718.095    23222716.613    23222727.401
       224.000         171.000
   1645176.98549   1275750.30547  22194186.356    22194184.479    22194193.826
       238.000         199.000
  -2975141.49949  -2303943.34047  21325948.577    21325947.282    21325955.918
       243.000         208.000
 00  5 15 15 50 30.0000000  0  6G24G 2G 4G 5G 7G 9
  -7299098.74449  -5671851.08447  21761276.142    21761275.045    21761286.286
       238.000         196.000
   1891566.85949   1468608.02746  23106630.709    23106628.806    23106640.504
       224.000         178.000
  -3746258.00849  -2905419.96347  20506860.332    20506859.456    20506868.102
       241.000         205.000
  -6784313.98649  -5269606.58446  23201332.711    23201331.149    23201341.905
       225.000         173.000
   1675963.99449   1299740.11147  22200044.998    22200043.103    22200052.450
       238.000         199.000
  -3008580.20349  -2329999.49447  21319585.407    21319584.117    21319592.739
       242.000         208.000
 00  5 15 15 51  0.0000000  0  6G24G 2G 4G 5G 7G 9
  -7410487.26349  -5758647.26047  21740079.512    21740078.445    21740089.663
       238.000         195.000
   1930557.35449   1498990.07346  23114050.419    23114048.542    23114060.290
       224.000         176.000
  -3790646.67249  -2940008.52647  20498413.408    20498412.564    20498421.225
       241.000         205.000
  -6896601.94049  -5357103.63746  23179965.015    23179963.457    23179974.147
       224.000         171.000
   1706885.96949   1323835.08647  22205929.309    22205927.422    22205936.768
       238.000         199.000
  -3041412.53049  -2355583.14947  21313337.623    21313336.351    21313344.981
       242.000         209.000
 00  5 15 15 51 30.0000000  0  6G24G 2G 4G 5G 7G 9
  -7521473.39749  -5845129.89447  21718959.467    21718958.420    21718969.609
       239.000         197.000
   1969844.82849   1529603.53146  23121526.635    23121524.799    23121536.600
       224.000         176.000
  -3834397.08749  -2974099.75047  20490087.958    20490087.141    20490095.783
       241.000         205.000
  -7008799.03549  -5444529.90346  23158614.542    23158613.050    23158623.678
       224.000         173.000
   1737938.12949   1348031.50047  22211838.383    22211836.502    22211845.858
       238.000         199.000
  -3073642.24749  -2380697.24047  21307204.494    21307203.253    21307211.895
       243.000         209.000
 00  5 15 15 52  0.0000000  0  6G24G 2G 4G 5G 7G 9
  -7632066.90849  -5931306.58547  21697914.143    21697913.119    21697924.294
       239.000         197.000
   2009417.01349   1560438.83746  23129057.036    23129055.224    23129067.101
       223.000         176.000
  -3877521.15649  -3007702.92047  20481881.714    20481880.893    20481889.561
       241.000         205.000
  -7120916.08249  -5531893.79246  23137279.353    23137277.876    23137288.443
       226.000         173.000
   1769107.45349   1372319.21047  22217769.774    22217767.896    22217777.254
       239.000         199.000
  -3105281.29149  -2405351.06947  21301183.785    21301182.563    21301191.213
       242.000         209.000
 00  5 15 15 52 30.0000000  0  6G24G 2G 4G 5G 7G 9
  -7742272.76149  -6017181.19947  21676942.634    21676941.591    21676952.755
       239.000         197.000
   2049266.34849   1591490.11246  23136640.267    23136638.435    23136650.348
       225.000         176.000
  -3920025.74949  -3040823.37347  20473793.358    20473792.540    20473801.194
       241.000         205.000
  -7232959.07649  -5619199.97146  23115958.250    23115956.781    23115967.288
       225.000         173.000
   1800385.77049   1396691.85247  22223721.901    22223720.022    22223729.396
       238.000         199.000
  -3136336.82049  -2429550.20947  21295274.131    21295272.904    21295281.561
       243.000         209.000
 00  5 15 15 53  0.0000000  0  6G24G 2G 4G 5G 7G 9
  -7852088.16549  -6102751.57047  21656045.462    21656044.383    21656055.528
       240.000         198.000
   2089393.20549   1622757.62846  23144276.376    23144274.465    23144286.412
       224.000         176.000
  -3961910.08349  -3073460.50747  20465823.085    20465822.236    20465830.872
       241.000         205.000
  -7344926.05449  -5706446.92146  23094651.615    23094650.162    23094660.610
       226.000         173.000
   1831772.63849   1421149.08147  22229694.717    22229692.817    22229702.203
       238.000         199.000
  -3166807.96549  -2453293.97747  21289475.739    21289474.467    21289483.124
       243.000         209.000
 00  5 15 15 53 30.0000000  0  6G24G 2G 4G 5G 7G 9
  -7961495.34449  -6188003.84947  21635225.952    21635224.846    21635235.972
       240.000         198.000
   2129812.83149   1654253.27646  23151968.179    23151966.204    23151978.193
       224.000         175.000
  -4003158.48949  -3105602.11147  20457973.829    20457972.949    20457981.560
       241.000         205.000
  -7456800.08449  -5793621.44646  23073362.664    23073361.222    23073371.631
       226.000         172.000
   1863282.54049   1445702.17947  22235690.985    22235689.038    22235698.410
       238.000         198.000
  -3196679.39449  -2476570.43847  21283791.484    21283790.169    21283798.802
       243.000         209.000
 00  5 15 15 54  0.0000000  0  6G24G 2G 4G 5G 7G 9
  -8070501.24749  -6272943.44247  21614482.832    21614481.682    21614492.758
       240.000         197.000
   2170515.63049   1685969.57346  23159713.828    23159711.834    23159723.863
       223.000         176.000
  -4043780.06549  -3137255.28047  20450243.850    20450242.938    20450251.531
       241.000         205.000
  -7568589.40149  -5880729.93746  23052089.831    23052088.385    23052098.771
       226.000         175.000
   1894905.36649   1470343.26647  22241708.721    22241706.744    22241716.107
       238.000         198.000
  -3225960.36949  -2499386.80547  21278219.570    21278218.221    21278226.839
       243.000         209.000
 00  5 15 15 54 30.0000000  0  6G24G 2G 4G 5G 7G 9
  -8179084.75649  -6357553.90847  21593820.030    21593818.890    21593829.921
       240.000         197.000
   2211520.13349   1717920.94646  23167516.832    23167514.858    23167526.921
       223.000         175.000
  -4083755.76149  -3168405.16747  20442636.738    20442635.822    20442644.406
       241.000         205.000
  -7680273.64949  -5967756.58946  23030836.922    23030835.539    23030845.898
       226.000         175.000
   1926659.06649   1495086.33547  22247751.331    22247749.354    22247758.690
       238.000         198.000
  -3254631.90649  -2521728.28847  21272763.540    21272762.229    21272770.849
       243.000         209.000
 00  5 15 15 55  0.0000000  0  6G24G 2G 4G 5G 7G 9
  -8287253.23249  -6441840.96947  21573236.202    21573235.074    21573246.060
       240.000         198.000
   2252816.49149   1750099.74646  23175375.381    23175373.416    23175385.523
       224.000         174.000
  -4123095.38949  -3199059.41647  20435150.630    20435149.744    20435158.315
       240.000         205.000
  -7791861.27049  -6054707.94046  23009602.428    23009601.085    23009611.411
       226.000         175.000
   1958532.99649   1519923.08647  22253816.792    22253814.820    22253824.153
       238.000         198.000
  -3282703.67349  -2543602.41947  21267421.679    21267420.375    21267429.009
       243.000         209.000
 00  5 15 15 55 30.0000000  0  6G24G 2G 4G 5G 7G 9
  -8394979.85549  -6525783.72947  21552736.423    21552735.332    21552746.294
       239.000         198.000
   2294429.06449   1782524.95246  23183294.028    23183292.141    23183304.291
       222.000         173.000
  -4161773.81249  -3229198.44247  20427790.326    20427789.481    20427798.044
       240.000         205.000
  -7903326.21149  -6141563.68246  22988391.235    22988389.935    22988400.283
       226.000         174.000
   1990550.81949   1544871.96447  22259909.568    22259907.649    22259917.009
       237.000         197.000
  -3310150.99649  -2564989.96847  21262198.642    21262197.351    21262205.983
       242.000         209.000
 00  5 15 15 56  0.0000000  0  6G24G 2G 4G 5G 7G 9
  -8502292.36349  -6609403.79847  21532315.471    21532314.405    21532325.333
       240.000         199.000
   2336327.39849   1815172.82746  23191267.144    23191265.254    23191277.448
       223.000         173.000
  -4199821.00249  -3258845.59447  20420550.159    20420549.343    20420557.892
       241.000         205.000
  -8014696.95849  -6228346.04046  22967198.003    22967196.732    22967207.059
       226.000         175.000
   2022681.82849   1569909.03647  22266023.895    22266022.025    22266031.416
       237.000         197.000
  -3337003.99749  -2585914.40847  21257088.679    21257087.410    21257096.049
       243.000         209.000
 00  5 15 15 56 30.0000000  0  6G24G 2G 4G 5G 7G 9
  -8609171.09849  -6692685.87047  21511977.111    21511976.031    21511986.924
       240.000         199.000
   2378528.64149   1848056.74246  23199297.918    23199295.993    23199308.246
       222.000         172.000
  -4237219.72949  -3287987.45247  20413433.447    20413432.615    20413441.145
       241.000         205.000
  -8125955.07049  -6315040.61946  22946026.311    22946024.988    22946035.291
       227.000         175.000
   2054942.39349   1595047.06347  22272162.953    22272161.065    22272170.475
       237.000         197.000
  -3363245.29849  -2606362.19747  21252095.162    21252093.895    21252102.523
       243.000         209.000
 00  5 15 15 57  0.0000000  0  6G24G 2G 4G 5G 7G 9
  -8715636.87149  -6775646.15247  21491717.303    21491716.218    21491727.104
       240.000         199.000
   2421009.74149   1881158.71246  23207381.931    23207380.015    23207392.295
       223.000         173.000
  -4273992.99349  -3316641.94147  20406435.751    20406434.911    20406443.437
       240.000         205.000
  -8237121.65249  -6401663.87146  22924872.000    22924870.662    22924880.955
       226.000         176.000
   2087308.67149   1620267.46147  22278322.093    22278320.211    22278329.648
       237.000         197.000
  -3388898.15949  -2626351.46247  21247213.667    21247212.356    21247220.970
       243.000         209.000
 00  5 15 15 57 30.0000000  0  6G24G 2G 4G 5G 7G 9
  -8821686.25649  -6858281.97947  21471536.742    21471535.645    21471546.533
       240.000         199.000
   2463771.72849   1914479.56046  23215519.390    23215517.462    23215529.819
       223.000         173.000
  -4310139.14449  -3344807.76747  20399557.398    20399556.548    20399565.047
       241.000         205.000
  -8348194.00049  -6488213.70746  22903735.629    22903734.282    22903744.526
       227.000         176.000
   2119781.15949   1645570.62447  22284501.472    22284499.590    22284509.040
       237.000         197.000
  -3413960.90049  -2645880.89347  21242444.419    21242443.100    21242451.716
       243.000         209.000
 00  5 15 15 58  0.0000000  0  6G24G 2G 4G 5G 7G 9
  -8927286.76949  -6940568.02547  21451441.600    21451440.505    21451451.379
       241.000         200.000
   2506844.23349   1948042.37246  23223715.983    23223714.022    23223726.427
       222.000         171.000
  -4345628.41549  -3372461.74047  20392804.060    20392803.166    20392811.648
       241.000         205.000
  -8459140.68049  -6574665.61046  22882623.206    22882621.821    22882632.032
       228.000         176.000
   2152389.01949   1670979.27247  22290706.634    22290704.724    22290714.209
       237.000         197.000
  -3438403.90549  -2664927.42147  21237793.086    21237791.769    21237800.378
       243.000         209.000
 00  5 15 15 58 30.0000000  0  6G24G 2G 4G 5G 7G 9
  -9032476.04749  -7022533.63747  21431424.723    21431423.615    21431434.463
       240.000         200.000
   2550187.48549   1981816.14746  23231964.040    23231962.085    23231974.553
       221.000         171.000
  -4380500.19649  -3399634.55647  20386168.193    20386167.308    20386175.767
       239.000         205.000
  -8569999.91149  -6661049.38746  22861527.387    22861525.985    22861536.159
       227.000         176.000
   2185091.84049   1696461.91547  22296929.840    22296927.934    22296937.435
       236.000         197.000
  -3462266.83349  -2683521.93247  21233252.162    21233250.844    21233259.447
       243.000         209.000
 00  5 15 15 59  0.0000000  0  6G24G 2G 4G 5G 7G 9
  -9137210.29149  -7104144.67247  21411494.448    21411493.332    21411504.144
       241.000         200.000
   2593842.39549   2015832.79446  23240271.359    23240269.447    23240281.960
       220.000         170.000
  -4414713.33749  -3426294.14247  20379657.654    20379656.767    20379665.218
       239.000         205.000
  -8680728.98749  -6747331.73146  22840456.258    22840454.912    22840465.084
       228.000         176.000
   2217930.25149   1722050.21247  22303178.853    22303176.947    22303186.486
       236.000         197.000
  -3485508.59649  -2701632.42247  21228829.459    21228828.123    21228836.709
       243.000         209.000
 00  5 15 15 59 30.0000000  0  6G24G 2G 4G 5G 7G 9
  -9241508.54849  -7185415.98847  21391647.117    21391645.999    21391656.794
       241.000         200.000
   2637787.41149   2050075.47946  23248633.927    23248632.039    23248644.586
       221.000         171.000
  -4448288.94849  -3452456.95747  20373268.389    20373267.554    20373276.004
       238.000         204.000
  -8791347.30249  -6833527.77346  22819406.251    22819404.923    22819415.066
       227.000         178.000
   2250882.24749   1747727.01547  22309449.451    22309447.561    22309457.139
       236.000         197.000
  -3508150.54949  -2719275.52647  21224520.810    21224519.514    21224528.121
       243.000         209.000
 00  5 15 16  0  0.0000000  0  6G24G 2G 4G 5G 7G 9
  -9345385.45049  -7266358.96547  21371879.941    21371878.845    21371889.613
       241.000         201.000
   2682005.57749   2084531.01446  23257048.579    23257046.623    23257059.199
       221.000         170.000
  -4481243.83649  -3478136.08747  20366997.295    20366996.457    20367004.898
       239.000         205.000
  -8901870.23149  -6919649.49146  22798374.407    22798373.058    22798383.204
       227.000         178.000
   2283930.27449   1773478.65147  22315738.349    22315736.470    22315746.059
       237.000         197.000
  -3530209.38249  -2736464.24947  21220323.186    21220321.881    21220330.487
       243.000         209.000
 00  5 15 16  0 30.0000000  0  6G24G 2G 4G 5G 7G 9
  -9448814.54649  -7346953.01247  21352198.013    21352196.895    21352207.645
       241.000         200.000
   2726520.83049   2119218.03046  23265519.803    23265517.798    23265530.366
       222.000         172.000
  -4513554.05749  -3503312.88647  20360848.911    20360848.039    20360856.472
       239.000         205.000
  -9012272.02349  -7005676.81646  22777365.666    22777364.281    22777374.404
       229.000         178.000
   2317097.93649   1799323.50547  22322050.059    22322048.147    22322057.762
       236.000         196.000
  -3551661.35349  -2753180.09547  21216241.076    21216239.738    21216248.344
       243.000         208.000
 00  5 15 16  1  0.0000000  0  6G24G 2G 4G 5G 7G 9
  -9551791.69449  -7427194.88547  21332602.121    21332600.968    21332611.687
       241.000         201.000
   2771334.93549   2154137.93546  23274047.876    23274045.820    23274058.378
       221.000         170.000
  -4545217.57349  -3527985.75647  20354823.576    20354822.681    20354831.100
       238.000         204.000
  -9122549.34449  -7091607.15446  22756380.580    22756379.175    22756389.274
       229.000         178.000
   2350386.32449   1825262.43547  22328384.745    22328382.797    22328392.425
       236.000         196.000
  -3572504.44849  -2769421.49047  21212274.791    21212273.460    21212282.066
       243.000         208.000
 00  5 15 16  1 30.0000000  0  6G24G 2G 4G 5G 7G 9
  -9654340.16649  -7507102.73347  21313087.779    21313086.630    21313097.290
       241.000         201.000
   2816421.94649   2189270.48046  23282627.823    23282625.755    23282638.319
       220.000         169.000
  -4576260.05049  -3552174.69947  20348916.371    20348915.484    20348923.930
       238.000         205.000
  -9232725.87849  -7177458.96146  22735414.641    22735413.236    22735423.371
       228.000         178.000
   2383769.13949   1851274.94147  22334737.359    22334735.414    22334745.041
       236.000         196.000
  -3592764.42149  -2785208.50947  21208419.460    21208418.131    21208426.752
       243.000         209.000
 00  5 15 16  2  0.0000000  0  6G24G 2G 4G 5G 7G 9
  -9756419.77049  -7586645.22747  21293662.668    21293661.505    21293672.129
       242.000         202.000
   2861819.57549   2224645.06046  23291266.821    23291264.787    23291277.397
       220.000         169.000
  -4606643.65449  -3575850.23847  20343134.577    20343133.701    20343142.125
       238.000         205.000
  -9342761.78549  -7263201.18146  22714475.496    22714474.088    22714484.213
       229.000         180.000
   2417283.96949   1877390.31747  22341115.071    22341113.137    22341122.776
       236.000         195.000
  -3612403.55849  -2800511.75947  21204682.274    21204680.957    21204689.579
       243.000         209.000
 00  5 15 16  2 30.0000000  0  6G24G 2G 4G 5G 7G 9
  -9858066.79249  -7665850.64747  21274319.873    21274318.708    21274329.300
       241.000         201.000
   2907488.98149   2260231.41546  23299957.630    23299955.548    23299968.160
       220.000         168.000
  -4636407.16649  -3599042.59247  20337470.807    20337469.910    20337478.299
       238.000         205.000
  -9452694.31749  -7348862.85846  22693556.081    22693554.620    22693564.715
       230.000         180.000
   2450891.39249   1903577.83347  22347510.450    22347508.474    22347518.119
       236.000         195.000
  -3631460.59349  -2815361.42747  21201055.909    21201054.569    21201063.164
       243.000         209.000
 00  5 15 16  3  0.0000000  0  6G24G 2G 4G 5G 7G 9
  -9959248.40249  -7744693.40747  21255065.619    21255064.439    21255075.022
       242.000         201.000
   2953460.80249   2296053.42446  23308705.993    23308703.866    23308716.489
       220.000         168.000
  -4665519.72649  -3621727.70947  20331930.889    20331929.986    20331938.375
       239.000         204.000
  -9562490.92149  -7434418.62346  22672662.534    22672661.025    22672671.090
       229.000         180.000
   2484621.54149   1929860.98847  22353929.153    22353927.178    22353936.819
       235.000         194.000
  -3649904.98549  -2829733.70747  21197546.115    21197544.751    21197553.349
       244.000         209.000
 00  5 15 16  3 30.0000000  0  6G24G 2G 4G 5G 7G 9
 -10059975.03949  -7823181.64347  21235897.898    21235896.747    21235907.314
       241.000         202.000
   2999722.21149   2332101.08146  23317509.346    23317507.272    23317519.923
       220.000         168.000
  -4693994.09149  -3643915.52947  20326512.362    20326511.475    20326519.889
       238.000         205.000
  -9672162.62049  -7519877.03946  22651792.708    22651791.201    22651801.222
       230.000         181.000
   2518461.23949   1956229.50647  22360368.659    22360366.727    22360376.363
       235.000         194.000
  -3667749.68649  -2843638.69147  21194150.416    21194149.059    21194157.656
       243.000         209.000
 00  5 15 16  4  0.0000000  0  6G24G 2G 4G 5G 7G 9
 -10160256.62549  -7901323.08747  21216814.879    21216813.765    21216824.315
       242.000         202.000
   3046260.65249   2368364.60746  23326365.419    23326363.394    23326376.097
       219.000         167.000
  -4721842.64549  -3665615.70447  20321212.938    20321212.095    20321220.487
       238.000         205.000
  -9781719.99949  -7605246.38046  22630944.596    22630943.122    22630953.100
       229.000         181.000
   2552397.78749   1982673.48547  22366826.600    22366824.691    22366834.346
       235.000         194.000
  -3685007.11149  -2857086.05347  21190866.434    21190865.107    21190873.701
       243.000         209.000
 00  5 15 16  4 30.0000000  0  6G24G 2G 4G 5G 7G 9
 -10260084.77049  -7979111.20747  21197818.156    21197817.068    21197827.602
       242.000         203.000
   3093081.92849   2404848.52546  23335275.330    23335273.347    23335286.071
       218.000         166.000
  -4749059.58349  -3686823.71347  20316033.727    20316032.891    20316041.272
       239.000         205.000
  -9891154.92549  -7690520.30846  22610119.760    22610118.336    22610128.291
       229.000         180.000
   2586436.68249   2009197.22147  22373304.025    22373302.133    22373311.799
       234.000         193.000
  -3701671.31149  -2870071.17447  21187695.367    21187694.043    21187702.620
       243.000         209.000
 00  5 15 16  5  0.0000000  0  6G24G 2G 4G 5G 7G 9
 -10359448.34549  -8056537.31547  21178909.837    21178908.772    21178919.297
       241.000         202.000
   3140194.62649   2441559.50946  23344240.719    23344238.750    23344251.513
       219.000         166.000
  -4775635.95849  -3707532.57847  20310976.389    20310975.576    20310983.955
       238.000         205.000
 -10000456.82549  -7775690.57646  22589320.231    22589318.837    22589328.794
       229.000         181.000
   2620586.25749   2035807.19747  22379802.477    22379800.628    22379810.315
       235.000         194.000
  -3717733.60249  -2882587.26847  21184638.793    21184637.504    21184646.090
       243.000         209.000
 00  5 15 16  5 30.0000000  0  6G24G 2G 4G 5G 7G 9
 -10458352.49649  -8133605.43747  21160088.888    21160087.879    21160098.425
       241.000         202.000
   3187591.29249   2478491.78246  23353260.120    23353258.169    23353270.968
       217.000         166.000
  -4801579.60749  -3727748.41547  20306039.428    20306038.659    20306047.043
       238.000         205.000
 -10109631.39649  -7860761.63046  22568544.858    22568543.560    22568553.536
       229.000         180.000
   2654838.61349   2062497.26847  22386320.528    22386318.690    22386328.398
       235.000         194.000
  -3733201.54649  -2894640.23947  21181695.287    21181694.062    21181702.662
       243.000         209.000
 00  5 15 16  6  0.0000000  0  6G24G 2G 4G 5G 7G 9
 -10556791.39549  -8210311.02547  21141356.502    21141355.532    21141366.069
       241.000         203.000
   3235275.55649   2515648.14846  23362334.196    23362332.305    23362345.141
       218.000         166.000
  -4826886.90649  -3747468.39547  20301223.598    20301222.843    20301231.231
       238.000         205.000
 -10218672.95849  -7945729.04146  22547794.811    22547793.581    22547803.574
       228.000         182.000
   2689197.11449   2089270.04747  22392858.784    22392856.962    22392866.684
       234.000         193.000
  -3748071.79449  -2906227.46747  21178865.549    21178864.361    21178872.989
       243.000         209.000
 00  5 15 16  6 30.0000000  0  6G24G 2G 4G 5G 7G 9
 -10654761.30449  -8286651.16747  21122713.404    21122712.447    21122722.954
       241.000         203.000
   3283248.37149   2553029.36646  23371463.236    23371461.390    23371474.257
       217.000         165.000
  -4851556.46349  -3766691.43547  20296529.138    20296528.405    20296536.779
       238.000         205.000
 -10327578.22249  -8030590.23946  22527070.724    22527069.528    22527079.531
       229.000         181.000
   2723662.70449   2116126.27047  22399417.392    22399415.602    22399425.351
       234.000         193.000
  -3762343.10849  -2917347.99747  21176149.858    21176148.659    21176157.281
       243.000         209.000
 00  5 15 16  7  0.0000000  0  6G24G 2G 4G 5G 7G 9
 -10752262.74749  -8362626.27547  21104159.459    21104158.505    21104169.001
       242.000         203.000
   3331507.05849   2590633.32546  23380646.699    23380644.855    23380657.755
       216.000         165.000
  -4875591.41149  -3785419.97447  20291955.392    20291954.690    20291963.084
       238.000         205.000
 -10436348.11749  -8115345.95646  22506372.429    22506371.264    22506381.249
       230.000         182.000
   2758232.20249   2143063.45947  22405995.819    22405994.017    22406003.789
       234.000         193.000
  -3776018.33249  -2928004.04447  21173547.535    21173546.363    21173554.993
       243.000         209.000
 00  5 15 16  7 30.0000000  0  6G24G 2G 4G 5G 7G 9
 -10849283.55149  -8438226.85247  21085696.981    21085696.035    21085706.511
       242.000         203.000
   3380061.27249   2628467.56446  23389886.431    23389884.600    23389897.524
       217.000         165.000
  -4898981.80049  -3803646.26247  20287504.337    20287503.658    20287512.037
       238.000         205.000
 -10544970.64649  -8199986.84046  22485702.175    22485701.026    22485711.032
       229.000         182.000
   2792915.15049   2170089.04747  22412595.841    22412594.042    22412603.815
       234.000         193.000
  -3789088.25849  -2938188.42647  21171060.430    21171059.262    21171067.899
       243.000         209.000
 00  5 15 16  8  0.0000000  0  6G24G 2G 4G 5G 7G 9
 -10945843.01549  -8513467.95047  21067322.301    21067321.330    21067331.818
       242.000         203.000
   3428889.11949   2666515.03246  23399178.235    23399176.376    23399189.385
       217.000         163.000
  -4921749.69549  -3821387.49147  20283171.799    20283171.088    20283179.463
       238.000         205.000
 -10653465.57349  -8284528.30646  22465056.260    22465055.081    22465065.066
       231.000         182.000
   2827689.51949   2197185.87347  22419213.261    22419211.462    22419221.265
       234.000         193.000
  -3801574.56149  -2947918.03847  21168684.418    21168683.235    21168691.871
       243.000         209.000
 00  5 15 16  8 30.0000000  0  6G24G 2G 4G 5G 7G 9
 -11041932.53949  -8588342.85847  21049037.051    21049036.083    21049046.550
       241.000         203.000
   3477996.96749   2704780.67146  23408523.340    23408521.461    23408534.490
       217.000         164.000
  -4943888.82349  -3838638.77147  20278958.878    20278958.150    20278966.534
       238.000         205.000
 -10761824.57749  -8368963.84746  22444436.241    22444435.021    22444444.980
       230.000         183.000
   2862561.48349   2224358.74847  22425849.243    22425847.454    22425857.286
       234.000         193.000
  -3813471.18949  -2957188.16447  21166420.545    21166419.406    21166428.042
       243.000         209.000
 00  5 15 16  9  0.0000000  0  6G24G 2G 4G 5G 7G 9
 -11137566.69649  -8662862.93347  21030838.458    21030837.487    21030847.940
       242.000         203.000
   3527367.82649   2743251.24446  23417918.459    23417916.580    23417929.655
       218.000         164.000
  -4965416.15249  -3855413.32547  20274862.357    20274861.649    20274870.032
       238.000         205.000
 -10870062.26649  -8453304.86746  22423839.277    22423838.046    22423847.990
       231.000         183.000
   2897513.94549   2251594.34947  22432500.572    22432498.755    22432508.625
       234.000         193.000
  -3824795.03449  -2966011.97147  21164265.681    21164264.557    21164273.209
       243.000         209.000
 00  5 15 16  9 29.9990000  0  6G24G 2G 4G 5G 7G 9
 -11232709.48449  -8737000.13147  21012733.395    21012732.399    21012742.827
       242.000         203.000
   3577030.58349   2781949.27746  23427369.181    23427367.265    23427380.386
       217.000         163.000
  -4986300.59749  -3871686.93947  20270888.222    20270887.492    20270895.863
       238.000         205.000
 -10978142.68149  -8537523.33446  22403272.303    22403271.027    22403280.905
       231.000         183.000
   2932576.00449   2278915.34747  22439172.764    22439170.909    22439180.803
       233.000         192.000
  -3835515.39949  -2974365.53247  21162225.722    21162224.564    21162233.214
       243.000         209.000
 00  5 15 16  9 59.9990000  0  6G24G 2G 4G 5G 7G 9
 -11327384.98149  -8810773.20247  20994717.232    20994716.205    20994726.629
       241.000         203.000
   3626968.17349   2820861.45546  23436872.215    23436870.264    23436883.412
       217.000         163.000
  -5006563.88249  -3887476.52947  20267032.318    20267031.550    20267039.900
       238.000         205.000
 -11086091.14749  -8621638.98746  22382730.435    22382729.117    22382738.951
       231.000         184.000
   2967729.62749   2306307.69147  22445862.329    22445860.493    22445870.405
       233.000         191.000
  -3845653.61749  -2982265.47147  21160296.571    21160295.373    21160303.988
       244.000         209.000
 00  5 15 16 10 29.9990000  0  6G24G 2G 4G 5G 7G 9
 -11421593.67049  -8884182.53147  20976789.907    20976788.863    20976799.281
       242.000         204.000
   3677173.02649   2859981.88545  23446426.097    23446424.095    23446437.293
       216.000         162.000
  -5026211.50649  -3902786.38447  20263293.565    20263292.749    20263301.098
       238.000         205.000
 -11193907.57049  -8705651.74846  22362213.713    22362212.337    22362222.143
       231.000         184.000
   3002967.52949   2333765.70847  22452567.933    22452566.107    22452576.032
       233.000         190.000
  -3855215.30949  -2989716.17547  21158477.129    21158475.889    21158484.495
       244.000         209.000
 00  5 15 16 10 59.9990000  0  6G24G 2G 4G 5G 7G 9
 -11515331.65149  -8957225.06647  20958952.177    20958951.096    20958961.503
       242.000         204.000
   3727646.59949   2899311.71245  23456031.103    23456029.052    23456042.285
       216.000         161.000
  -5045242.07949  -3917615.42247  20259672.218    20259671.367    20259679.706
       238.000         205.000
 -11301588.54149  -8789558.96946  22341722.734    22341721.317    22341731.115
       232.000         184.000
   3038291.04549   2361290.43847  22459289.811    22459288.002    22459297.941
       233.000         190.000
  -3864199.30149  -2996716.72247  21156767.614    21156766.344    21156774.932
       244.000         209.000
 00  5 15 16 11 29.9990000  0  6G24G 2G 4G 5G 7G 9
 -11608598.08349  -9029900.16647  20941204.154    20941203.069    20941213.453
       242.000         204.000
   3778387.54149   2938849.86445  23465686.867    23465684.906    23465698.246
       215.000         161.000
  -5063657.19049  -3931964.88347  20256167.939    20256167.124    20256175.431
       238.000         205.000
 -11409133.03349  -8873359.83246  22321257.671    22321256.254    22321266.063
       231.000         185.000
   3073698.89349   2388880.87647  22466027.747    22466025.958    22466035.899
       233.000         190.000
  -3872607.22249  -3003268.38847  21155167.644    21155166.400    21155175.000
       243.000         208.000
 00  5 15 16 11 59.9990000  0  6G24G 2G 4G 5G 7G 9
 -11701396.23749  -9102210.37147  20923545.280    20923544.166    20923554.513
       242.000         204.000
   3829390.12649   2978591.90345  23475392.464    23475390.530    23475403.915
       214.000         162.000
  -5081462.55549  -3945839.21447  20252779.733    20252778.901    20252787.186
       238.000         205.000
 -11516544.57249  -8957057.10146  22300817.934    22300816.504    22300826.323
       232.000         184.000
   3109185.08249   2416532.37147  22472780.661    22472778.833    22472788.758
       233.000         190.000
  -3880444.78749  -3009375.61247  21153676.263    21153675.005    21153683.585
       243.000         208.000
 00  5 15 16 12 29.9990000  0  6G24G 2G 4G 5G 7G 9
 -11793719.63749  -9174150.64347  20905976.705    20905975.600    20905985.900
       242.000         204.000
   3880658.50949   3018541.06245  23485148.763    23485146.756    23485160.197
       215.000         161.000
  -5098654.33449  -3959235.42747  20249508.252    20249507.430    20249515.719
       238.000         205.000
 -11623816.64749  -9040645.70346  22280404.732    22280403.291    22280413.100
       232.000         185.000
   3144753.87949   2444248.22547  22479549.283    22479547.439    22479557.359
       233.000         190.000
  -3887707.99749  -3015035.29647  21152294.127    21152292.878    21152301.471
       243.000         208.000
 00  5 15 16 12 59.9990000  0  6G24G 2G 4G 5G 7G 9
 -11885556.95749  -9245712.14647  20888500.588    20888499.500    20888509.791
       241.000         204.000
   3932201.54349   3058704.21245  23494957.220    23494955.232    23494968.769
       213.000         160.000
  -5115223.82549  -3972146.73947  20246355.199    20246354.371    20246362.678
       238.000         205.000
 -11730938.14249  -9124116.96246  22260020.144    22260018.729    22260028.527
       232.000         185.000
   3180414.13649   2472035.35547  22486335.317    22486333.446    22486343.360
       232.000         191.000
  -3894388.33249  -3020240.78747  21151022.887    21151021.668    21151030.275
       243.000         208.000
 00  5 15 16 13 29.9990000  0  6G24G 2G 4G 5G 7G 9
 -11976926.15649  -9316908.88047  20871113.552    20871112.495    20871122.770
       241.000         204.000
   3983999.02249   3099065.63445  23504814.095    23504812.132    23504825.745
       214.000         159.000
  -5131191.47749  -3984589.09247  20243316.669    20243315.863    20243324.145
       237.000         205.000
 -11837926.98449  -9207484.85746  22239660.768    22239659.410    22239669.201
       232.000         185.000
   3216145.56949   2499877.94047  22493134.914    22493133.010    22493142.927
       233.000         190.000
  -3900506.50349  -3025008.22847  21149858.673    21149857.447    21149866.063
       244.000         208.000
 00  5 15 16 13 59.9990000  0  6G24G 2G 4G 5G 7G 9
 -12067815.85449  -9387731.97347  20853817.843    20853816.752    20853827.000
       242.000         204.000
   4036060.01249   3139632.38945  23514721.129    23514719.206    23514732.831
       212.000         157.000
  -5146548.41749  -3996555.56347  20240394.404    20240393.557    20240401.843
       238.000         205.000
 -11944771.79549  -9290740.52446  22219328.881    22219327.525    22219337.276
       232.000         186.000
   3251957.36549   2527783.14847  22499949.832    22499947.882    22499957.804
       232.000         190.000
  -3906053.58349  -3029330.66547  21148803.173    21148801.919    21148810.510
       243.000         208.000
 00  5 15 16 14 29.9990000  0  6G24G 2G 4G 5G 7G 9
 -12158224.49849  -9458180.22347  20836613.601    20836612.528    20836622.775
       242.000         204.000
   4088383.53849   3180403.72545  23524678.172    23524676.201    23524689.923
       214.000         160.000
  -5161295.88749  -4008047.12447  20237588.074    20237587.232    20237595.502
       238.000         205.000
 -12051471.29149  -9373882.94846  22199024.604    22199023.264    22199033.005
       233.000         186.000
   3287848.52549   2555750.19347  22506779.750    22506777.831    22506787.789
       233.000         190.000
  -3911030.63349  -3033208.91947  21147856.090    21147854.858    21147863.432
       243.000         207.000
 00  5 15 16 14 59.9990000  0  6G24G 2G 4G 5G 7G 9
 -12248172.18149  -9528269.28047  20819497.083    20819496.024    20819506.261
       242.000         204.000
   4140947.48749   3221362.40145  23534680.939    23534678.963    23534692.695
       213.000         158.000
  -5175456.18549  -4019081.14247  20234893.482    20234892.637    20234900.910
       238.000         205.000
 -12158045.19249  -9456927.50846  22178744.209    22178742.903    22178752.635
       233.000         185.000
   3323796.91849   2583761.84247  22513620.505    22513618.626    22513628.634
       231.000         189.000
  -3915460.18149  -3036660.54947  21147013.180    21147011.966    21147020.545
       243.000         207.000
 00  5 15 16 15 29.9990000  0  6G24G 2G 4G 5G 7G 9
 -12337621.28949  -9597969.84047  20802475.439    20802474.392    20802484.615
       241.000         204.000
   4193786.93649   3262535.73745  23544736.079    23544734.169    23544747.959
       214.000         158.000
  -5188994.63949  -4029630.61647  20232317.248    20232316.388    20232324.651
       238.000         205.000
 -12264455.84249  -9539844.86046  22158494.937    22158493.601    22158503.319
       233.000         185.000
   3359837.69949   2611845.47147  22520478.842    22520477.013    22520487.072
       232.000         189.000
  -3919307.62249  -3039658.59347  21146281.112    21146279.870    21146288.440
       243.000         208.000
 00  5 15 16 15 59.9990000  0  6G24G 2G 4G 5G 7G 9
 -12426581.64049  -9667289.54647  20785546.848    20785545.772    20785555.982
       241.000         204.000
   4246890.03049   3303914.51745  23554841.521    23554839.514    23554853.376
       213.000         158.000
  -5201923.29749  -4039704.91647  20229857.101    20229856.197    20229864.425
       239.000         205.000
 -12370712.92249  -9622642.55146  22138274.921    22138273.541    22138283.212
       234.000         185.000
   3395959.11349   2639991.94047  22527352.617    22527350.750    22527360.844
       232.000         189.000
  -3922585.10849  -3042212.51047  21145657.499    21145656.211    21145664.783
       243.000         207.000
 00  5 15 16 16 29.9990000  0  6G24G 2G 4G 5G 7G 9
 -12515060.25949  -9736233.87847  20768709.916    20768708.822    20768719.019
       242.000         205.000
   4300247.23249   3345491.30145  23564995.273    23564993.262    23565007.158
       214.000         157.000
  -5214252.06549  -4049311.77347  20227511.070    20227510.150    20227518.358
       238.000         205.000
 -12476823.50049  -9705326.08446  22118082.717    22118081.338    22118091.003
       233.000         186.000
   3432151.78449   2668193.92447  22534239.943    22534238.079    22534248.182
       232.000         189.000
  -3925302.25949  -3044329.80647  21145140.482    21145139.190    21145147.751
       243.000         208.000
 00  5 15 16 16 59.9990000  0  6G24G 2G 4G 5G 7G 9
 -12603043.86449  -9804792.48447  20751967.156    20751966.062    20751976.264
       241.000         204.000
   4353869.58349   3387274.67445  23575199.477    23575197.440    23575211.371
       213.000         157.000
  -5225969.91549  -4058442.59047  20225281.260    20225280.347    20225288.546
       238.000         204.000
 -12582773.97249  -9787884.86346  22097920.965    22097919.621    22097929.258
       234.000         186.000
   3468426.90749   2696460.15947  22541142.975    22541141.087    22541151.195
       232.000         188.000
  -3927448.40849  -3046002.16947  21144732.129    21144730.843    21144739.386
       243.000         208.000
 00  5 15 16 17 29.9990000  0  6G24G 2G 4G 5G 7G 9
 -12690560.74349  -9872987.40247  20735313.219    20735312.130    20735322.323
       241.000         204.000
   4407726.54249   3429240.85445  23585448.362    23585446.312    23585460.232
       213.000         157.000
  -5237108.18449  -4067121.77947  20223161.731    20223160.836    20223169.027
       238.000         205.000
 -12688592.60249  -9870340.90946  22077784.341    22077782.971    22077792.590
       233.000         187.000
   3504753.85349   2724766.77646  22548055.875    22548053.957    22548064.065
       232.000         187.000
  -3929054.74949  -3047253.89747  21144426.533    21144425.223    21144433.751
       244.000         208.000
 00  5 15 16 17 59.9990000  0  6G24G 2G 4G 5G 7G 9
 -12777575.48749  -9940791.05747  20718754.864    20718753.755    20718763.922
       242.000         204.000
   4461851.39149   3471415.76945  23595748.263    23595746.116    23595760.090
       213.000         157.000
  -5247633.78149  -4075323.56547  20221158.823    20221157.901    20221166.103
       238.000         205.000
 -12794243.74149  -9952666.43746  22057679.609    22057678.225    22057687.797
       234.000         187.000
   3541166.20049   2753139.94747  22554985.005    22554983.095    22554993.198
       231.000         188.000
  -3930088.21249  -3048059.23047  21144229.912    21144228.607    21144237.127
       243.000         207.000
 00  5 15 16 18 29.9990000  0  6G24G 2G 4G 5G 7G 9
 -12864082.60949 -10008199.15647  20702293.084    20702291.974    20702302.124
       242.000         204.000
   4516247.10549   3513801.75445  23606099.706    23606097.505    23606111.489
       214.000         157.000
  -5257543.72449  -4083045.61547  20219273.079    20219272.133    20219280.329
       238.000         205.000
 -12899721.66649 -10034856.99546  22037607.848    22037606.430    22037615.982
       234.000         187.000
   3577667.10949   2781582.12546  22561930.998    22561929.070    22561939.177
       232.000         187.000
  -3930546.19149  -3048416.13447  21144142.814    21144141.483    21144150.017
       244.000         208.000
 00  5 15 16 18 59.9990000  0  6G24G 2G 4G 5G 7G 9
 -12950115.11349 -10075237.42147  20685921.617    20685920.511    20685930.645
       244.000         205.000
   4570878.56749   3556371.43545  23616496.050    23616493.767    23616507.763
       215.000         158.000
  -5266873.94049  -4090315.92847  20217497.621    20217496.685    20217504.868
       239.000         205.000
 -13005059.03949 -10116938.03046  22017562.857    22017561.401    22017570.909
       234.000         187.000
   3614221.84149   2810066.24346  22568887.262    22568885.303    22568895.403
       231.000         187.000
  -3930464.05749  -3048352.17047  21144158.498    21144157.148    21144165.691
       243.000         208.000
 00  5 15 16 19 29.9990000  0  6G24G 2G 4G 5G 7G 9
 -13035671.84649 -10141904.95647  20669640.739    20669639.606    20669649.699
       244.000         205.000
   4625744.59849   3599123.88845  23626936.998    23626934.667    23626948.664
       214.000         158.000
  -5275625.75149  -4097135.53247  20215832.265    20215831.308    20215839.451
       239.000         205.000
 -13110254.84949 -10198908.75747  21997544.768    21997543.287    21997552.770
       235.000         188.000
   3650829.04749   2838591.25347  22575853.518    22575851.517    22575861.602
       232.000         188.000
  -3929843.46349  -3047868.63047  21144276.653    21144275.289    21144283.833
       244.000         207.000
 00  5 15 16 19 59.9990000  0  6G24G 2G 4G 5G 7G 9
 -13120742.43349 -10208193.67847  20653452.334    20653451.184    20653461.275
       243.000         205.000
   4680853.33449   3642065.46545  23637424.122    23637421.739    23637435.777
       214.000         158.000
  -5283791.50449  -4103498.47447  20214278.417    20214277.445    20214285.593
       239.000         205.000
 -13215298.33849 -10280760.79247  21977555.646    21977554.165    21977563.630
       234.000         188.000
   3687497.23649   2867163.77346  22582831.291    22582829.300    22582839.428
       231.000         187.000
  -3928676.54749  -3046959.38847  21144498.737    21144497.384    21144505.911
       243.000         207.000
 00  5 15 16 20 29.9990000  0  6G24G 2G 4G 5G 7G 9
 -13205336.18949 -10274110.84247  20637354.638    20637353.498    20637363.575
       244.000         205.000
   4736193.43549   3685187.31645  23647955.148    23647952.857    23647966.928
       212.000         157.000
  -5291382.93949  -4109413.88947  20212833.805    20212832.863    20212841.008
       238.000         205.000
 -13320198.33149 -10362501.01547  21957593.789    21957592.328    21957601.815
       234.000         188.000
   3724215.20249   2895775.08746  22589818.475    22589816.547    22589826.734
       230.000         187.000
  -3926975.55149  -3045633.97747  21144822.430    21144821.095    21144829.619
       244.000         207.000
 00  5 15 16 20 59.9990000  0  6G24G 2G 4G 5G 7G 9
 -13289419.72849 -10339630.44147  20621354.067    20621352.915    20621362.968
       243.000         205.000
   4791796.08049   3728513.74245  23658536.218    23658533.908    23658548.050
       213.000         157.000
  -5298369.67549  -4114858.11047  20211504.260    20211503.340    20211511.500
       239.000         205.000
 -13424921.22149 -10444103.23747  21937665.641    21937664.201    21937673.686
       235.000         188.000
   3761014.35049   2924449.64346  22596821.102    22596819.219    22596829.480
       230.000         187.000
  -3924709.97549  -3043868.63947  21145253.586    21145252.262    21145260.775
       243.000         207.000
 00  5 15 16 21 29.9990000  0  6G24G 2G 4G 5G 7G 9
 -13372992.49949 -10404752.03047  20605450.654    20605449.522    20605459.556
       243.000         205.000
   4847659.52949   3772043.39945  23669166.985    23669164.618    23669178.790
       212.000         157.000
  -5304753.53949  -4119832.55347  20210289.486    20210288.563    20210296.704
       239.000         205.000
 -13529466.07949 -10525566.72347  21917771.376    21917769.961    21917779.450
       235.000         189.000
   3797893.15549   2953186.28746  22603838.944    22603837.081    22603847.397
       230.000         186.000
  -3921881.59249  -3041664.74147  21145791.834    21145790.521    21145799.049
       243.000         207.000
 00  5 15 16 21 59.9990000  0  6G24G 2G 4G 5G 7G 9
 -13456053.45549 -10469474.81247  20589644.628    20589643.509    20589653.539
       243.000         205.000
   4903782.67349   3815775.39945  23679847.133    23679844.740    23679858.965
       213.000         157.000
  -5310536.17049  -4124338.51147  20209189.080    20209188.184    20209196.325
       238.000         205.000
 -13633831.44549 -10606890.36447  21897911.241    21897909.864    21897919.347
       235.000         188.000
   3834850.96449   2981984.47646  22610871.863    22610869.993    22610880.329
       230.000         187.000
  -3918491.94349  -3039023.50247  21146436.903    21146435.581    21146444.123
       243.000         207.000
 00  5 15 16 22 29.9990000  0  6G24G 2G 4G 5G 7G 9
 -13538620.74649 -10533812.91347  20573932.491    20573931.426    20573941.460
       243.000         205.000
   4960144.97549   3859693.76645  23690572.750    23690570.343    23690584.632
       211.000         158.000
  -5315738.38349  -4128392.18947  20208199.052    20208198.215    20208206.402
       238.000         205.000
 -13738035.16349 -10688088.03047  21878081.883    21878080.530    21878089.996
       234.000         189.000
   3871867.55549   3010828.49246  22617915.986    22617914.115    22617924.461
       231.000         186.000
  -3914561.91949  -3035961.18947  21147184.733    21147183.455    21147192.007
       243.000         207.000
 00  5 15 16 22 59.9990000  0  6G24G 2G 4G 5G 7G 9
 -13620691.66649 -10597764.23647  20558314.838    20558313.809    20558323.845
       243.000         205.000
   5016747.19249   3903799.07945  23701343.930    23701341.637    23701355.993
       212.000         158.000
  -5320360.05649  -4131993.49447  20207319.506    20207318.721    20207326.953
       238.000         205.000
 -13842073.77649 -10769157.04747  21858283.949    21858282.613    21858292.066
       234.000         189.000
   3908944.03049   3039719.15946  22624971.521    22624969.646    22624979.974
       231.000         186.000
  -3910091.34549  -3032477.66947  21148035.426    21148034.192    21148042.775
       243.000         207.000
 00  5 15 16 23 29.9990000  0  6G24G 2G 4G 5G 7G 9
 -13702264.29949 -10661327.27947  20542791.985    20542791.008    20542801.053
       242.000         205.000
   5073588.94749   3948091.04145  23712160.714    23712158.486    23712172.902
       212.000         158.000
  -5324402.02249  -4135143.09147  20206550.293    20206549.567    20206557.799
       238.000         205.000
 -13945944.99649 -10850095.63247  21838517.829    21838516.549    21838525.996
       234.000         190.000
   3946080.17149   3068656.32246  22632038.350    22632036.506    22632046.852
       230.000         186.000
  -3905081.35749  -3028573.83247  21148988.752    21148987.572    21148996.178
       243.000         207.000
 00  5 15 16 23 59.9990000  0  6G24G 2G 4G 5G 7G 9
 -13783332.85649 -10724497.54047  20527365.034    20527364.118    20527374.185
       242.000         205.000
   5130674.27249   3992572.79445  23723023.851    23723021.666    23723036.174
       212.000         156.000
  -5327860.88449  -4137838.31247  20205892.035    20205891.347    20205899.614
       238.000         205.000
 -14049642.22249 -10930898.63447  21818784.807    21818783.568    21818793.041
       234.000         189.000
   3983280.46949   3097643.46946  22639117.287    22639115.531    22639125.903
       229.000         185.000
  -3899528.56249  -3024247.02447  21150045.391    21150044.272    21150052.881
       243.000         207.000
 00  5 15 16 24 29.9990000  0  6G24G 2G 4G 5G 7G 9
 -13863881.22749 -10787262.46047  20512037.116    20512036.233    20512046.290
       243.000         205.000
   5188016.51349   4037254.72745  23733935.853    23733933.737    23733948.323
       211.000         156.000
  -5330723.58549  -4140068.99547  20205347.243    20205346.600    20205354.864
       238.000         205.000
 -14153149.17449 -11011553.37447  21799087.975    21799086.806    21799096.301
       234.000         190.000
   4020558.62549   3126691.29146  22646210.998    22646209.337    22646219.777
       229.000         185.000
  -3893419.74849  -3019486.95947  21151207.904    21151206.772    21151215.393
       243.000         207.000
 00  5 15 16 24 59.9990000  0  7G24G 2G30G 4G 5G 7G 9
 -13943945.50049 -10849650.16447  20496801.384    20496800.486    20496810.511
       243.000         205.000
   5245577.67849   4082107.25745  23744889.520    23744887.466    23744902.173
       212.000         156.000
  -1238891.38559   -648897.08055  24927020.151    24927019.448    24927032.269
       211.000         136.000
  -5333028.59249  -4141865.11347  20204908.620    20204907.968    20204916.245
       238.000         205.000
 -14256501.25649 -11092087.44147  21779420.674    21779419.513    21779429.033
       234.000         190.000
   4057877.24649   3155770.64946  22653312.522    22653310.865    22653321.359
       229.000         185.000
  -3886793.54049  -3014323.72547  21152468.868    21152467.744    21152476.375
       244.000         207.000
 00  5 15 16 25 29.9990000  0  7G24G 2G30G 4G 5G 7G 9
 -14023484.55549 -10911628.60247  20481665.527    20481664.652    20481674.696
       242.000         205.000
   5303397.00949   4127160.96245  23755892.340    23755890.322    23755905.127
       212.000         157.000
  -1365320.40549   -747413.15945  24902961.470    24902960.815    24902973.835
       212.000         138.000
  -5334737.54049  -4143196.77047  20204583.414    20204582.780    20204591.054
       238.000         205.000
 -14359656.84449 -11172468.38547  21759790.809    21759789.639    21759799.170
       235.000         190.000
   4095275.48049   3184912.04046  22660429.227    22660427.569    22660438.098
       229.000         185.000
  -3879611.55549  -3008727.42047  21153835.578    21153834.467    21153843.110
       243.000         207.000
 00  5 15 16 25 59.9990000  0  7G24G 2G30G 4G 5G 7G 9
 -14102559.18949 -10973245.15847  20466618.075    20466617.212    20466627.250
       243.000         205.000
   5361411.39249   4172366.63745  23766932.391    23766930.363    23766945.178
       211.000         157.000
  -1491829.78749   -845991.87845  24878887.541    24878886.859    24878900.001
       213.000         142.000
  -5335914.10249  -4144113.59147  20204359.563    20204358.895    20204367.177
       239.000         205.000
 -14462676.27649 -11252743.25047  21740186.907    21740185.696    21740195.189
       235.000         190.000
   4132690.90449   3214066.81646  22667549.286    22667547.589    22667558.108
       230.000         185.000
  -3871937.29849  -3002747.53147  21155295.973    21155294.854    21155303.513
       243.000         207.000
 00  5 15 16 26 29.9990000  0  7G24G 2G30G 4G 5G 7G 9
 -14181108.75349 -11034452.56547  20451670.579    20451669.691    20451679.724
       243.000         205.000
   5419679.40849   4217769.94945  23778020.734    23778018.659    23778033.511
       213.000         157.000
  -1618358.89049   -944585.91945  24854809.883    24854809.217    24854822.214
       212.000         142.000
  -5336499.92149  -4144570.07947  20204248.081    20204247.433    20204255.700
       239.000         205.000
 -14565498.14549 -11332864.15447  21720620.552    21720619.326    21720628.821
       235.000         191.000
   4170182.53149   3243280.98846  22674683.861    22674682.116    22674692.635
       230.000         185.000
  -3863712.55849  -2996338.68847  21156861.103    21156859.991    21156868.666
       243.000         207.000
 00  5 15 16 26 59.9990000  0  7G24G 2G30G 4G 5G 7G 9
 -14259149.52249 -11095263.51747  20436819.889    20436819.003    20436829.023
       242.000         205.000
   5478182.40249   4263356.35245  23789153.745    23789151.682    23789166.583
       211.000         156.000
  -1744924.22949  -1043208.24845  24830725.302    24830724.651    24830737.591
       214.000         142.000
  -5336514.35449  -4144581.34147  20204245.341    20204244.705    20204252.967
       239.000         205.000
 -14668138.10249 -11412843.31447  21701088.771    21701087.581    21701097.061
       235.000         191.000
   4207732.25149   3272540.42446  22681829.433    22681827.686    22681838.222
       230.000         184.000
  -3854956.51749  -2989515.84847  21158527.345    21158526.251    21158534.923
       244.000         207.000
 00  5 15 16 27 29.9990000  0  7G24G 2G30G 4G 5G 7G 9
 -14336700.69749 -11155692.96447  20422062.356    20422061.473    20422071.484
       242.000         205.000
   5536899.41549   4309109.51345  23800327.491    23800325.431    23800340.386
       209.000         156.000
  -1871544.77249  -1141873.55645  24806630.303    24806629.573    24806642.361
       213.000         144.000
  -5335978.92649  -4144164.14447  20204347.279    20204346.611    20204354.867
       238.000         205.000
 -14770614.57149 -11492695.08147  21681588.130    21681586.927    21681596.410
       235.000         190.000
   4245319.50949   3301829.10146  22688982.126    22688980.367    22688990.942
       228.000         184.000
  -3845690.81549  -2982295.86947  21160290.592    21160289.492    21160298.173
       244.000         207.000
 00  5 15 16 27 59.9990000  0  7G24G 2G30G 4G 5G 7G 9
 -14413759.14049 -11215738.45847  20407398.615    20407397.705    20407407.711
       242.000         205.000
   5595831.52649   4355030.28445  23811542.106    23811540.101    23811555.165
       210.000         156.000
  -1998217.09149  -1240579.20945  24782525.382    24782524.668    24782537.325
       213.000         143.000
  -5334893.02949  -4143318.00847  20204553.946    20204553.262    20204561.505
       239.000         205.000
 -14872923.65149 -11572416.40947  21662119.336    21662118.122    21662127.611
       235.000         191.000
   4282945.98249   3331148.33946  22696142.254    22696140.502    22696151.110
       228.000         182.000
  -3835915.10449  -2974678.48347  21162150.921    21162149.800    21162158.472
       244.000         207.000
 00  5 15 16 28 29.9990000  0  7G24G 2G30G 4G 5G 7G 9
 -14490279.78549 -11275364.89847  20392837.226    20392836.284    20392846.285
       242.000         205.000
   5655021.50749   4401151.98545  23822805.844    23822803.786    23822818.956
       210.000         155.000
  -2124896.32249  -1339290.24545  24758419.046    24758418.462    24758430.921
       213.000         143.000
  -5333214.71449  -4142010.24847  20204873.329    20204872.659    20204880.891
       239.000         205.000
 -14975019.69549 -11651971.74047  21642691.127    21642689.881    21642699.356
       235.000         191.000
   4320654.86349   3360531.78646  22703318.047    22703316.313    22703326.956
       229.000         183.000
  -3825587.01149  -2966630.67047  21164116.368    21164115.219    21164123.895
       243.000         207.000
 00  5 15 16 28 59.9990000  0  7G24G 2G30G 4G 5G 7G 9
 -14566290.59649 -11334594.06747  20378372.847    20378371.894    20378381.875
       241.000         205.000
   5714439.68849   4447451.49745  23834113.033    23834110.932    23834126.197
       211.000         155.000
  -2251610.07149  -1438028.18445  24734306.178    24734305.562    24734318.011
       214.000         146.000
  -5330974.28249  -4140264.48147  20205299.708    20205299.021    20205307.245
       238.000         205.000
 -15076929.80249 -11731382.18547  21623298.290    21623297.018    21623306.477
       235.000         191.000
   4358416.76949   3389956.55646  22710503.987    22710502.245    22710512.902
       228.000         182.000
  -3814737.18549  -2958176.30947  21166181.078    21166179.911    21166188.592
       244.000         206.000
 00  5 15 16 29 29.9990000  0  7G24G 2G30G 4G 5G 7G 9
 -14641789.10949 -11393424.03947  20364005.970    20364004.999    20364014.941
       241.000         204.000
   5774086.14149   4493928.87745  23845463.633    23845461.535    23845476.949
       209.000         154.000
  -2378355.94749  -1536791.14145  24710187.220    24710186.584    24710199.006
       214.000         147.000
  -5328172.29549  -4138081.14047  20205832.960    20205832.252    20205840.457
       239.000         205.000
 -15178650.97949 -11810645.40547  21603941.374    21603940.101    21603949.549
       235.000         191.000
   4396232.39849   3419423.18346  22717700.175    22717698.401    22717709.042
       228.000         182.000
  -3803365.99849  -2949315.69847  21168345.016    21168343.834    21168352.509
       243.000         206.000
 00  5 15 16 29 59.9990000  0  7G24G 2G30G 4G 5G 7G 9
 -14716773.32349 -11451853.26547  20349736.932    20349735.960    20349745.869
       241.000         204.000
   5833961.08349   4540584.28145  23856857.701    23856855.615    23856871.145
       209.000         154.000
  -2505131.55249  -1635577.27045  24686062.607    24686061.967    24686074.332
       216.000         149.000
  -5324809.04149  -4135460.45347  20206473.012    20206472.286    20206480.480
       239.000         205.000
 -15280180.03749 -11889758.93447  21584621.008    21584619.750    21584629.183
       235.000         191.000
   4434102.64349   3448932.36446  22724906.749    22724904.955    22724915.583
       228.000         182.000
  -3791473.93549  -2940049.21447  21170608.047    21170606.860    21170615.541
       243.000         206.000
 00  5 15 16 30 29.9990000  0  7G24G 2G30G 4G 5G 7G 9
 -14791255.99449 -11509891.68047  20335563.337    20335562.357    20335572.244
       241.000         204.000
   5894049.76049   4587406.24645  23868292.496    23868290.411    23868305.942
       211.000         155.000
  -2631949.45549  -1734396.37145  24661929.960    24661929.290    24661941.624
       217.000         147.000
  -5320900.07749  -4132414.53947  20207216.892    20207216.162    20207224.337
       239.000         205.000
 -15381529.13249 -11968732.23347  21565334.900    21565333.658    21565343.055
       235.000         191.000
   4472013.24049   3478472.98546  22732120.983    22732119.200    22732129.797
       228.000         181.000
  -3779076.58849  -2930389.00747  21172967.198    21172966.030    21172974.710
       243.000         206.000
 00  5 15 16 30 59.9990000  0  7G24G 2G30G 4G 5G 7G 9
 -14865221.04249 -11567526.74647  20321488.251    20321487.267    20321497.129
       241.000         205.000
   5954365.96849   4634405.47745  23879770.589    23879768.471    23879784.073
       210.000         154.000
  -2758793.51649  -1833235.84745  24637792.311    24637791.681    24637803.947
       216.000         149.000
  -5316432.02049  -4128932.96047  20208067.170    20208066.426    20208074.607
       239.000         205.000
 -15482681.30449 -12047552.07747  21546086.291    21546085.031    21546094.394
       235.000         191.000
   4509978.71249   3508056.36746  22739345.647    22739343.865    22739354.492
       228.000         181.000
  -3766160.62849  -2920324.67947  21175425.067    21175423.890    21175432.569
       243.000         206.000
 00  5 15 16 31 29.9990000  0  7G24G 2G30G 4G 5G 7G 9
 -14938665.16349 -11624755.90147  20307512.287    20307511.300    20307521.141
       241.000         204.000
   6014911.10149   4681583.10245  23891292.254    23891290.119    23891305.840
       212.000         154.000
  -2885659.85249  -1932092.69045  24613650.388    24613649.801    24613661.977
       216.000         149.000
  -5311404.25249  -4125015.24647  20209023.960    20209023.222    20209031.378
       239.000         205.000
 -15583632.32949 -12126215.18247  21526875.962    21526874.692    21526884.014
       236.000         191.000
   4548000.91649   3537683.96646  22746581.114    22746579.330    22746589.959
       227.000         180.000
  -3752725.70249  -2909855.96147  21177981.697    21177980.533    21177989.188
       244.000         206.000
 00  5 15 16 31 59.9990000  0  7G24G 2G30G 4G 5G 7G 9
 -15011591.21949 -11681581.35547  20293634.891    20293633.914    20293643.742
       240.000         204.000
   6075680.43449   4728935.42545  23902856.589    23902854.397    23902870.247
       211.000         154.000
  -3012551.17449  -2030968.97145  24589503.667    24589503.150    24589515.283
       217.000         149.000
  -5305822.31349  -4120665.71147  20210086.188    20210085.460    20210093.612
       238.000         205.000
 -15684384.16949 -12204723.07547  21507703.545    21507702.261    21507711.561
       236.000         192.000
   4586075.78249   3567352.60646  22753826.593    22753824.827    22753835.458
       227.000         180.000
  -3738777.00649  -2898986.90147  21180636.099    21180634.932    21180643.601
       243.000         205.000
 00  5 15 16 32 29.9990000  0  7G24G 2G30G 4G 5G 7G 9
 -15083982.99349 -11737990.50347  20279859.166    20279858.195    20279868.008
       241.000         204.000
   6136688.40449   4776473.68245  23914466.302    23914464.130    23914479.998
       210.000         153.000
  -3139450.54549  -2129851.54745  24565355.461    24565354.993    24565367.092
       215.000         151.000
  -5299672.43949  -4115873.63447  20211256.491    20211255.771    20211263.911
       238.000         205.000
 -15784919.41549 -12283062.20747  21488572.304    21488571.026    21488580.329
       236.000         192.000
   4624218.19449   3597073.85446  22761084.947    22761083.169    22761093.821
       226.000         180.000
  -3724301.02149  -2887706.97747  21183390.852    21183389.676    21183398.361
       243.000         206.000
 00  5 15 16 32 59.9990000  0  7G24G 2G30G 4G 5G 7G 9
 -15155867.01349 -11794003.99647  20266180.059    20266179.102    20266188.906
       240.000         204.000
   6197906.30549   4824175.53145  23926116.003    23926113.823    23926129.743
       211.000         154.000
  -3266384.73649  -2228761.23745  24541200.665    24541200.231    24541212.294
       215.000         151.000
  -5292984.10749  -4110661.97647  20212529.259    20212528.539    20212536.686
       239.000         205.000
 -15885263.89949 -12361252.69247  21469477.334    21469476.070    21469485.399
       235.000         192.000
   4662400.14849   3626825.91446  22768350.812    22768349.034    22768359.726
       226.000         178.000
  -3709326.80649  -2876038.82047  21186240.388    21186239.219    21186247.904
       243.000         205.000
 00  5 15 16 33 29.9990000  0  7G24G 2G30G 4G 5G 7G 9
 -15227263.16649 -11849637.33247  20252593.796    20252592.861    20252602.642
       241.000         204.000
   6259312.37649   4872023.97045  23937801.536    23937799.319    23937815.330
       210.000         154.000
  -3393372.86349  -2327712.94745  24517035.548    24517035.172    24517047.185
       218.000         152.000
  -5285779.69949  -4105048.18147  20213900.209    20213899.513    20213907.668
       239.000         205.000
 -15985436.50249 -12439309.24047  21450415.045    21450413.831    21450423.163
       236.000         192.000
   4700600.59249   3656592.38246  22775620.145    22775618.408    22775629.156
       226.000         178.000
  -3693877.08049  -2864000.13047  21189180.417    21189179.256    21189187.946
       243.000         205.000
 00  5 15 16 33 59.9990000  0  7G24G 2G30G 4G 5G 7G 9
 -15298142.71349 -11904868.12147  20239105.826    20239104.892    20239114.684
       240.000         204.000
   6320933.29949   4920039.82845  23949527.838    23949525.667    23949541.762
       208.000         154.000
  -3520385.61149  -2426683.84145  24492865.812    24492865.410    24492877.402
       218.000         153.000
  -5278033.04649  -4099011.85847  20215374.379    20215373.674    20215381.831
       239.000         205.000
 -16085407.22349 -12517208.47947  21431391.182    21431390.000    21431399.334
       235.000         192.000
   4738847.02749   3686394.69646  22782898.234    22782896.527    22782907.317
       226.000         179.000
  -3677925.65049  -2851570.50647  21192215.903    21192214.751    21192223.429
       243.000         205.000
 00  5 15 16 34 29.9990000  0  7G24G 2G30G 4G 5G 7G 9
 -15368459.65949 -11959660.51947  20225724.907    20225724.000    20225733.785
       240.000         204.000
   6382813.29849   4968257.54745  23961303.435    23961301.305    23961317.529
       211.000         153.000
  -3647376.77349  -2525637.93445  24468700.205    24468699.801    24468711.654
       217.000         153.000
  -5269700.99749  -4092519.38347  20216959.903    20216959.228    20216967.381
       238.000         205.000
 -16185129.06849 -12594913.78547  21412414.700    21412413.540    21412422.874
       235.000         193.000
   4777184.07349   3716267.61046  22790193.576    22790191.894    22790202.703
       227.000         180.000
  -3661429.24449  -2838716.23147  21195355.092    21195353.954    21195362.646
       243.000         205.000
 00  5 15 16 34 59.9990000  0  7G24G 2G30G 4G 5G 7G 9
 -15438234.55449 -12014030.53547  20212447.151    20212446.253    20212456.039
       240.000         204.000
   6444929.80749   5016659.56045  23973124.195    23973121.961    23973138.277
       211.000         154.000
  -3774366.29549  -2624590.72945  24444534.954    24444534.492    24444546.273
       218.000         153.000
  -5260806.75049  -4085588.82947  20218652.448    20218651.772    20218659.918
       238.000         205.000
 -16284621.67249 -12672440.46447  21393481.877    21393480.718    21393490.039
       237.000         193.000
   4815590.03849   3746194.22746  22797502.107    22797500.413    22797511.210
       227.000         180.000
  -3644411.24949  -2825455.51547  21198593.533    21198592.427    21198601.127
       243.000         206.000
 00  5 15 16 35 29.9990000  0  7G24G 2G30G 4G 5G 7G 9
 -15507451.64749 -12067965.90447  20199275.543    20199274.656    20199284.433
       240.000         204.000
   6507296.86449   5065256.79545  23984992.615    23984990.353    23985006.746
       210.000         154.000
  -3901337.88249  -2723529.57445  24420373.036    24420372.561    24420384.338
       217.000         152.000
  -5251336.96049  -4078209.80147  20220454.503    20220453.832    20220461.986
       239.000         205.000
 -16383868.06449 -12749775.28847  21374595.939    21374594.764    21374604.034
       236.000         193.000
   4854079.49549   3776185.91146  22804826.529    22804824.817    22804835.600
       226.000         179.000
  -3626858.47949  -2811778.09247  21201933.788    21201932.659    21201941.375
       243.000         205.000
 00  5 15 16 35 59.9990000  0  7G24G 2G30G 4G 5G 7G 9
 -15576141.86149 -12121490.71847  20186204.206    20186203.337    20186213.089
       240.000         204.000
   6569881.60949   5114023.66145  23996902.441    23996900.165    23996916.637
       210.000         153.000
  -4028321.99849  -2822478.19045  24396208.695    24396208.258    24396219.977
       218.000         155.000
  -5241325.43749  -4070408.64247  20222359.681    20222358.981    20222367.154
       239.000         205.000
 -16482898.02349 -12826941.46947  21355751.133    21355749.953    21355759.225
       236.000         193.000
   4892620.31249   3806217.60446  22812160.662    22812158.965    22812169.773
       227.000         179.000
  -3608804.57249  -2797710.17647  21205369.386    21205368.257    21205376.983
       243.000         205.000
 00  5 15 16 36 29.9990000  0  7G24G 2G30G 4G 5G 7G 9
 -15644305.45049 -12174605.17547  20173233.098    20173232.212    20173241.964
       240.000         204.000
   6632681.83749   5162958.42945  24008853.282    24008850.957    24008867.581
       209.000         152.000
  -4155318.34349  -2921436.31845  24372042.040    24372041.558    24372053.344
       219.000         156.000
  -5230775.10649  -4062187.64047  20224367.365    20224366.686    20224374.842
       239.000         205.000
 -16581710.86249 -12903938.46647  21336947.646    21336946.483    21336955.730
       236.000         193.000
   4931211.18349   3836288.29646  22819504.314    22819502.634    22819513.464
       226.000         178.000
  -3590252.41549  -2783254.01547  21208899.785    21208898.674    21208907.389
       243.000         205.000
 00  5 15 16 36 59.9990000  0  7G24G 2G30G 4G 5G 7G 9
 -15711958.63949 -12227321.92147  20160359.122    20160358.225    20160367.968
       239.000         204.000
   6695679.44449   5212047.00145  24020841.771    24020839.398    24020856.041
       209.000         152.000
  -4282342.17249  -3020415.88145  24347870.242    24347869.712    24347881.503
       218.000         155.000
  -5219704.55349  -4053561.26647  20226474.059    20226473.366    20226481.516
       240.000         205.000
 -16680321.48549 -12980777.89147  21318182.610    21318181.473    21318190.745
       236.000         193.000
   4969834.87949   3866384.57346  22826854.202    22826852.534    22826863.431
       226.000         178.000
  -3571220.58249  -2768424.08147  21212521.481    21212520.360    21212529.076
       243.000         204.000
 00  5 15 16 37 29.9990000  0  7G24G 2G30G 4G 5G 7G 9
 -15779072.08549 -12279618.08747  20147587.857    20147586.952    20147596.673
       239.000         204.000
   6758901.94949   5261310.81045  24032873.022    24032870.607    24032887.308
       210.000         151.000
  -4409363.54349  -3119393.52045  24323698.925    24323698.372    24323710.122
       219.000         155.000
  -5208087.03849  -4044508.69147  20228684.866    20228684.134    20228692.274
       239.000         205.000
 -16778699.31049 -13057435.92447  21299461.908    21299460.768    21299470.041
       236.000         193.000
   5008519.60449   3896528.38746  22834215.760    22834214.076    22834225.010
       226.000         178.000
  -3551682.66349  -2753199.79747  21216239.501    21216238.355    21216247.090
       243.000         205.000
 00  5 15 16 37 59.9990000  0  7G24G 2G30G 4G 5G 7G 9
 -15845685.43449 -12331524.56447  20134911.775    20134910.846    20134920.548
       240.000         204.000
   6822307.72749   5310717.42245  24044939.072    24044936.680    24044953.458
       209.000         150.000
  -4536421.71949  -3218399.85945  24299520.496    24299519.966    24299531.695
       219.000         157.000
  -5195965.44949  -4035063.32747  20230991.574    20230990.840    20230998.968
       239.000         206.000
 -16876882.99849 -13133942.67747  21280778.194    21280777.034    21280786.287
       236.000         194.000
   5047224.43249   3926687.86746  22841581.195    22841579.460    22841590.414
       227.000         178.000
  -3531681.24849  -2737614.34347  21220045.705    21220044.547    21220053.306
       243.000         204.000
 00  5 15 16 38 29.9980000  0  7G24G 2G30G 4G 5G 7G 9
 -15911753.71649 -12383006.32047  20122339.401    20122338.462    20122348.142
       239.000         203.000
   6885935.86849   5360297.30145  24057047.474    24057045.002    24057061.927
       208.000         149.000
  -4663468.84149  -3317397.56345  24275344.161    24275343.691    24275355.340
       219.000         156.000
  -5183299.43749  -4025193.73447  20233401.887    20233401.139    20233409.282
       239.000         206.000
 -16974824.84749 -13210260.98047  21262140.510    21262139.308    21262148.565
       236.000         194.000
   5085990.23549   3956894.87146  22848958.252    22848956.473    22848967.409
       227.000         177.000
  -3511176.40449  -2721636.60947  21223947.710    21223946.547    21223955.302
       243.000         204.000
 00  5 15 16 38 59.9980000  0  7G24G 2G30G 4G 5G 7G 9
 -15977309.33649 -12434088.59747  20109864.537    20109863.617    20109873.292
       239.000         203.000
   6949760.65349   5410030.38845  24069193.244    24069190.786    24069207.780
       210.000         150.000
  -4790540.32049  -3416414.24745  24251163.151    24251162.743    24251174.406
       219.000         155.000
  -5170119.19649  -4014923.44947  20235910.012    20235909.282    20235917.430
       239.000         205.000
 -17072558.30549 -13286416.90047  21243542.477    21243541.242    21243550.488
       237.000         194.000
   5124790.37649   3987128.61946  22856341.776    22856339.985    22856350.940
       225.000         177.000
  -3490197.66549  -2705289.60247  21227939.889    21227938.719    21227947.460
       243.000         204.000
 00  5 15 16 39 29.9980000  0  8G24G 2G30G 4G 5G 7G 9G16
 -16042330.09849 -12484754.10347  20097491.484    20097490.560    20097500.229
       239.000         204.000
   7013798.37249   5459929.40145  24081379.542    24081377.127    24081394.250
       211.000         149.000
  -4917611.42549  -3515430.64145  24226982.272    24226981.838    24226993.521
       219.000         156.000
  -5156407.34549  -4004238.92447  20238519.320    20238518.581    20238526.727
       239.000         205.000
 -17170058.70749 -13362391.22847  21224988.753    21224987.528    21224996.769
       237.000         194.000
   5163642.68649   4017403.01646  22863735.185    22863733.424    22863744.421
       226.000         178.000
  -3468728.33149  -2688560.32047  21232025.418    21232024.261    21232032.991
       243.000         204.000
  -8493248.21259  -6600252.42855  24003854.733    24003853.381    24003866.911
       212.000         159.000
 00  5 15 16 39 59.9980000  0  8G24G 2G30G 4G 5G 7G 9G16
 -16106808.55049 -12534997.02947  20085221.641    20085220.719    20085230.370
       239.000         204.000
   7078054.93449   5509998.91745  24093607.502    24093605.129    24093622.302
       209.000         150.000
  -5044673.60949  -3614440.10545  24202803.136    24202802.669    24202814.336
       219.000         157.000
  -5142159.09449  -3993136.42247  20241230.714    20241229.963    20241238.097
       240.000         206.000
 -17267317.14949 -13438177.00547  21206481.110    21206479.857    21206489.099
       237.000         194.000
   5202553.83049   4047723.27146  22871139.826    22871138.061    22871149.082
       225.000         177.000
  -3446763.42249  -2671444.87947  21236205.297    21236204.116    21236212.848
       244.000         205.000
  -8509152.34549  -6612645.25145  24000828.372    24000826.948    24000840.411
       215.000         158.000
 00  5 15 16 40 29.9980000  0  8G24G 2G30G 4G 5G 7G 9G16
 -16170737.82849 -12584812.02247  20073056.306    20073055.377    20073065.019
       239.000         203.000
   7142534.95449   5560242.55245  24105877.969    24105875.661    24105892.820
       210.000         150.000
  -5171719.48449  -3713436.79845  24178627.072    24178626.602    24178638.242
       218.000         156.000
  -5127370.42249  -3981612.80547  20244044.986    20244044.206    20244052.327
       240.000         206.000
 -17364325.85949 -13513768.18647  21188020.961    21188019.702    21188028.932
       237.000         195.000
   5241529.58249   4078093.86746  22878556.728    22878554.982    22878566.032
       224.000         176.000
  -3424298.83049  -2653940.07547  21240480.267    21240479.055    21240487.806
       243.000         204.000
  -8524493.60949  -6624599.47545  23997908.991    23997907.603    23997921.060
       214.000         159.000
 00  5 15 16 40 59.9980000  0  8G24G 2G30G 4G 5G 7G 9G16
 -16234134.16749 -12634211.74847  20060992.375    20060991.431    20061001.068
       239.000         203.000
   7207220.69949   5610646.48145  24118187.624    24118185.303    24118202.568
       210.000         153.000
  -5298764.25449  -3812432.67145  24154451.169    24154450.727    24154462.340
       219.000         155.000
  -5112060.15749  -3969682.75847  20246958.485    20246957.705    20246965.802
       240.000         205.000
 -17461099.40649 -13589176.12647  21169605.541    21169604.288    21169613.514
       236.000         195.000
   5280552.81649   4108501.45646  22885982.688    22885980.927    22885992.008
       224.000         176.000
  -3401353.43449  -2636060.61847  21244846.688    21244845.484    21244854.225
       243.000         203.000
  -8539288.75849  -6636128.14345  23995093.604    23995092.165    23995105.616
       215.000         159.000
 00  5 15 16 41 29.9980000  0  8G24G 2G30G 4G 5G 7G 9G16
 -16297003.21849 -12683200.60447  20049028.821    20049027.860    20049037.450
       239.000         203.000
   7272104.76249   5661204.95445  24130535.139    24130532.718    24130550.094
       210.000         152.000
  -5425812.82149  -3911431.48845  24130274.534    24130274.121    24130285.734
       220.000         156.000
  -5096236.23749  -3957352.46047  20249969.695    20249968.924    20249977.032
       239.000         205.000
 -17557641.88349 -13664404.01547  21151234.106    21151232.849    21151242.083
       237.000         194.000
   5319617.06549   4138940.99446  22893416.464    22893414.693    22893425.784
       225.000         176.000
  -3377935.38949  -2617812.86547  21249303.075    21249301.868    21249310.569
       243.000         203.000
  -8553543.65949  -6647235.84645  23992381.017    23992379.551    23992393.028
       214.000         159.000
 00  5 15 16 41 59.9980000  0  8G24G 2G30G 4G 5G 7G 9G16
 -16359329.22849 -12731766.30247  20037168.607    20037167.604    20037177.177
       239.000         203.000
   7337200.77449   5711928.56445  24142922.980    24142920.503    24142937.957
       209.000         151.000
  -5552848.49949  -4010420.26245  24106100.430    24106100.026    24106111.596
       219.000         156.000
  -5079885.98549  -3944612.02847  20253081.045    20253080.297    20253088.408
       240.000         205.000
 -17653936.28949 -13739438.59147  21132909.868    21132908.635    21132917.853
       237.000         195.000
   5358737.26349   4169424.14846  22900860.953    22900859.153    22900870.236
       225.000         175.000
  -3354031.72349  -2599186.70047  21253851.896    21253850.662    21253859.342
       243.000         203.000
     -4862.14653                  23989773.978
       214.000          74.000
 00  5 15 16 42 29.9980000  0  8G24G 2G30G 4G 5G 7G 9G16
 -16421096.60149 -12779896.71047  20025414.676    20025413.668    20025423.232
       239.000         203.000
   7402523.17249   5762828.57445  24155353.827    24155351.304    24155368.928
       209.000         150.000
  -5679854.32349  -4109385.78645  24081932.108    24081931.581    24081943.119
       218.000         157.000
  -5062995.73049  -3931450.82247  20256295.182    20256294.432    20256302.542
       240.000         205.000
 -17749965.25949 -13814266.34547  21114636.150    21114634.918    21114644.134
       237.000         195.000
   5397928.40649   4199962.56646  22908318.947    22908317.136    22908328.174
       225.000         176.000
  -3329629.39449  -2580171.97747  21258495.540    21258494.315    21258503.016
       243.000         203.000
    -22364.80949    -15091.90945  23987275.825    23987274.641    23987287.239
       214.000         158.000
 00  5 15 16 42 59.9980000  0  8G24G 2G30G 4G 5G 7G 9G16
 -16482334.56249 -12827614.57947  20013761.472    20013760.469    20013770.015
       239.000         202.000
   7468040.83749   5813880.76145  24167821.951    24167819.303    24167837.051
       210.000         150.000
  -5806858.66849  -4208350.14845  24057763.974    24057763.435    24057774.969
       220.000         158.000
  -5045597.76949  -3917893.99847  20259605.954    20259605.195    20259613.293
       240.000         205.000
 -17845756.77049 -13888909.06147  21096407.672    21096406.405    21096415.601
       238.000         195.000
   5437160.36649   4230532.80346  22915784.687    22915782.845    22915793.946
       224.000         176.000
  -3304760.32749  -2560793.56047  21263227.994    21263226.791    21263235.515
       243.000         203.000
    -34952.29759    -24900.35555  23984880.482    23984878.746    23984891.815
       214.000         158.000
 00  5 15 16 43 29.9980000  0  8G24G 2G30G 4G 5G 7G 9G16
 -16543059.99549 -12874933.08147  20002205.790    20002204.796    20002214.318
       239.000         202.000
   7533735.13649   5865070.56745  24180323.577    24180320.893    24180338.798
       209.000         149.000
  -5933877.58449  -4307325.87545  24033593.086    24033592.504    24033604.056
       220.000         157.000
  -5027711.32349  -3903956.53447  20263009.644    20263008.908    20263017.006
       240.000         205.000
 -17941326.19149 -13963378.72147  21078221.447    21078220.159    21078229.319
       238.000         195.000
   5476415.44149   4261121.03546  22923254.736    22923252.910    22923264.109
       223.000         175.000
  -3279443.99749  -2541066.62647  21268045.559    21268044.377    21268053.129
       243.000         202.000
    -47015.90049    -34300.58345  23982584.720    23982583.261    23982596.468
       212.000         159.000
 00  5 15 16 43 59.9980000  0  7G24G 2G30G 4G 5G 7G 9
 -16603263.54949 -12921844.92747  19990749.449    19990748.449    19990757.940
       238.000         202.000
   7599613.53749   5916403.83145  24192860.215    24192857.562    24192875.580
       210.000         149.000
  -6060900.65849  -4406304.84645  24009421.316    24009420.799    24009432.340
       219.000         158.000
  -5009329.75849  -3889633.26747  20266507.558    20266506.830    20266514.930
       240.000         205.000
 -18036662.63749 -14037666.84447  21060079.505    21060078.228    21060087.389
       237.000         194.000
   5515702.29449   4291734.03746  22930730.814    22930729.023    22930740.323
       223.000         173.000
  -3253673.57249  -2520985.84947  21272949.552    21272948.366    21272957.142
       242.000         202.000
 00  5 15 16 44 29.9980000  0  8G24G 2G30G 4G 5G 7G 9G16
 -16662919.55049 -12968330.10347  19979397.265    19979396.270    19979405.756
       238.000         201.000
   7665700.11649   5967899.31045  24205436.539    24205433.845    24205451.947
       208.000         147.000
  -6187900.98849  -4505266.08145  23985253.856    23985253.382    23985264.944
       220.000         157.000
  -4990429.95849  -3874906.18047  20270104.098    20270103.369    20270111.463
       240.000         205.000
 -18131738.77649 -14111752.13347  21041987.105    21041985.832    21041994.967
       237.000         195.000
   5555045.92449   4322391.28346  22938217.698    22938215.957    22938227.306
       223.000         173.000
  -3227426.06849  -2500533.33047  21277944.338    21277943.148    21277951.946
       242.000         201.000
     -7334.99955                  23978301.816
       212.000         152.000
 00  5 15 16 44 59.9980000  0  8G24G 2G30G 4G 5G 7G 9G16
 -16722024.67449 -13014386.03247  19968149.898    19968148.919    19968158.401
       238.000         201.000
   7731996.83349   6019558.51845  24218052.743    24218050.110    24218068.359
       211.000         147.000
  -6314873.93549  -4604205.99145  23961091.620    23961091.205    23961102.760
       219.000         157.000
  -4971010.92349  -3859774.49847  20273799.445    20273798.712    20273806.818
       240.000         205.000
 -18226549.67549 -14185630.74447  21023945.110    21023943.877    21023953.048
       237.000         195.000
   5594449.29949   4353095.06146  22945715.976    22945714.245    22945725.637
       223.000         172.000
  -3200700.57749  -2479708.35547  21283030.080    21283028.882    21283037.715
       242.000         202.000
      -483.52053                  23976320.351
       213.000          74.000
 00  5 15 16 45 29.9980000  0  8G24G 2G30G 4G 5G 7G 9G16
 -16780535.27349 -13059978.68347  19957015.678    19957014.710    19957024.188
       238.000         201.000
   7798545.40449   6071413.98945  24230716.938    24230714.292    24230732.687
       210.000         145.000
  -6441774.86049  -4703089.76045  23936943.144    23936942.708    23936954.264
       219.000         159.000
  -4951031.77449  -3844206.35747  20277601.391    20277600.653    20277608.747
       240.000         204.000
 -18321050.37749 -14259267.64247  21005962.158    21005960.961    21005970.146
       237.000         194.000
   5633955.00449   4383878.59946  22953233.804    22953232.061    22953243.426
       224.000         172.000
  -3173456.06649  -2458478.94947  21288214.561    21288213.401    21288222.253
       242.000         202.000
     -8125.63345                  23974453.955
       211.000         156.000
 00  5 15 16 45 59.9980000  0  8G24G 2G30G 4G 5G 7G 9G16
 -16838442.68649 -13105101.32447  19945996.308    19945995.306    19946004.750
       238.000         201.000
   7865353.42549   6123471.61145  24243430.567    24243427.867    24243446.390
       208.000         145.000
  -6568593.70949  -4801909.60345  23912810.333    23912809.855    23912821.387
       218.000         159.000
  -4930486.25649  -3828196.89947  20281511.111    20281510.367    20281518.453
       240.000         205.000
 -18415230.16649 -14332654.48147  20988040.360    20988039.152    20988048.321
       238.000         195.000
   5673571.47849   4414748.44646  22960772.807    22960770.993    22960782.263
       224.000         172.000
  -3145686.34249  -2436840.28747  21293499.038    21293497.856    21293506.746
       242.000         201.000
    -22511.66149    -15290.76145  23972704.498    23972702.982    23972716.318
       213.000         158.000
 00  5 15 16 46 29.9980000  0  8G24G 2G30G 4G 5G 7G 9G16
 -16895882.90649 -13149859.92247  19935065.823    19935064.801    19935074.212
       238.000         201.000
   7932282.82349   6175623.81145  24256167.188    24256164.480    24256183.177
       210.000         145.000
  -6695465.50649  -4900770.68245  23888667.414    23888666.931    23888678.392
       219.000         156.000
  -4909512.75849  -3811853.94547  20285502.260    20285501.521    20285509.606
       240.000         204.000
 -18509223.58749 -14405896.09447  20970154.063    20970152.798    20970161.958
       237.000         195.000
   5713161.85049   4445597.96246  22968306.814    22968304.925    22968316.193
       223.000         171.000
  -3117530.34749  -2414900.63847  21298857.052    21298855.839    21298864.739
       243.000         201.000
    -31230.82859    -22084.90655  23971045.534    23971044.737    23971057.977
       215.000         158.000
 00  5 15 16 46 59.9980000  0  8G24G 2G30G 4G 5G 7G 9G16
 -16952789.74249 -13194202.89547  19924236.757    19924235.764    19924245.174
       237.000         200.000
   7999398.38849   6227921.07845  24268939.289    24268936.539    24268955.333
       209.000         145.000
  -6822322.83749  -4999620.49145  23864527.149    23864526.732    23864538.164
       218.000         154.000
  -4888047.79149  -3795128.03247  20289586.923    20289586.196    20289594.285
       240.000         204.000
 -18602962.61549 -14478939.47947  20952316.127    20952314.872    20952323.994
       237.000         194.000
   5752791.98949   4476478.46246  22975848.231    22975846.384    22975857.737
       221.000         171.000
  -3088924.21649  -2392610.22647  21304300.702    21304299.484    21304308.375
       242.000         201.000
    -39408.20649    -28456.86045  23969489.505    23969488.376    23969501.846
       214.000         158.000
 00  5 15 16 47 29.9980000  0  8G24G 2G30G 4G 5G 7G 9G16
 -17009183.84449 -13238146.32647  19913505.253    19913504.298    19913513.725
       237.000         200.000
   8066678.11849   6280346.27545  24281742.669    24281739.871    24281758.816
       209.000         146.000
  -6949184.75549  -5098473.87945  23840386.014    23840385.670    23840397.066
       218.000         156.000
  -4866114.36849  -3778037.08847  20293760.741    20293760.028    20293768.109
       240.000         204.000
 -18696466.18449 -14551799.38847  20934522.959    20934521.731    20934530.852
       236.000         195.000
   5792440.78249   4507373.49446  22983393.082    22983391.322    22983402.828
       221.000         171.000
  -3059891.02849  -2369987.04847  21309825.606    21309824.380    21309833.263
       242.000         200.000
    -47064.97149    -34423.15245  23968032.476    23968031.230    23968044.742
       213.000         158.000
 00  5 15 16 47 59.9980000  0  8G24G 2G30G 4G 5G 7G 9G16
 -17065017.89449 -13281653.36247  19902880.330    19902879.429    19902888.860
       237.000         200.000
   8134167.56849   6332934.87945  24294585.926    24294583.101    24294602.245
       206.000         143.000
  -7076002.81449  -5197293.09345  23816253.221    23816252.893    23816264.325
       216.000         157.000
  -4843667.78649  -3760546.28647  20298032.205    20298031.508    20298039.579
       240.000         204.000
 -18789685.29249 -14624437.63847  20916783.904    20916782.699    20916791.849
       237.000         195.000
   5832154.88649   4538319.41446  22990950.441    22990948.733    22990960.345
       221.000         170.000
  -3030386.23149  -2346996.38447  21315440.204    21315439.012    21315447.917
       242.000         201.000
    -54154.10949    -39947.12945  23966683.439    23966682.191    23966695.733
       211.000         157.000
 00  5 15 16 48 29.9980000  0  8G24G 2G30G 4G 5G 7G 9G16
 -17120272.92949 -13324709.21747  19892365.624    19892364.728    19892374.154
       237.000         200.000
   8201884.12849   6385700.43445  24307472.366    24307469.538    24307488.841
       208.000         142.000
  -7202756.59649  -5296062.22445  23792132.660    23792132.374    23792143.805
       218.000         157.000
  -4820691.53849  -3742642.75347  20302404.424    20302403.758    20302411.840
       240.000         204.000
 -18882599.17549 -14696838.05447  20899102.950    20899101.769    20899110.906
       237.000         195.000
   5871952.74649   4569330.59946  22998523.784    22998522.099    22998533.762
       222.000         171.000
  -3000393.37349  -2323625.41647  21321147.701    21321146.518    21321155.448
       242.000         200.000
    -60657.21449    -45014.46845  23965446.000    23965444.756    23965458.196
       212.000         158.000
 00  5 15 16 48 59.9980000  0  8G24G 2G30G 4G 5G 7G 9G16
 -17175036.12449 -13367381.81847  19881944.478    19881943.623    19881953.049
       237.000         200.000
   8269739.08449   6438573.82145  24320385.090    24320382.270    24320401.721
       206.000         142.000
  -7329532.22749  -5394848.37245  23768008.006    23768007.722    23768019.124
       217.000         156.000
  -4797275.23349  -3724396.32347  20306860.377    20306859.746    20306867.849
       240.000         204.000
 -18975293.25749 -14769067.19347  20881463.807    20881462.649    20881471.799
       237.000         195.000
   5911746.92249   4600338.92446  23006096.493    23006094.803    23006106.449
       222.000         170.000
  -2970002.07649  -2299943.97747  21326931.025    21326929.864    21326938.797
       241.000         200.000
    -66661.62949    -49693.21545  23964303.348    23964302.059    23964315.609
       212.000         157.000
 00  5 15 16 49 29.9980000  0  8G24G 2G30G 4G 5G 7G 9G16
 -17229282.23049 -13409651.49447  19871621.739    19871620.908    19871630.339
       237.000         200.000
   8337756.25549   6491573.61045  24333328.740    24333325.976    24333345.539
       209.000         144.000
  -7456302.66849  -5493630.48145  23743884.355    23743884.045    23743895.423
       218.000         156.000
  -4773395.93049  -3705789.12347  20311404.470    20311403.852    20311411.949
       240.000         204.000
 -19067740.12749 -14841103.69947  20863871.680    20863870.569    20863879.722
       237.000         195.000
   5951562.35349   4631363.80246  23013673.244    23013671.543    23013683.192
       221.000         170.000
  -2939189.08949  -2275933.95447  21332794.564    21332793.445    21332802.386
       242.000         200.000
    -72142.71449    -53964.17445  23963260.231    23963259.008    23963272.569
       213.000         157.000
 00  5 15 16 49 59.9980000  0  8G24G 2G30G 4G 5G 7G 9G16
 -17282998.19749 -13451508.07747  19861399.940    19861399.105    19861408.506
       237.000         200.000
   8405947.21349   6544708.80245  24346305.491    24346302.696    24346322.433
       209.000         142.000
  -7583053.62049  -5592397.43345  23719764.405    23719764.111    23719775.417
       219.000         157.000
  -4749043.16149  -3686812.98447  20316038.670    20316038.062    20316046.153
       240.000         204.000
 -19159925.26249 -14912936.25847  20846329.386    20846328.315    20846337.461
       237.000         196.000
   5991411.47749   4662414.94146  23021256.417    23021254.712    23021266.362
       221.000         169.000
  -2907944.46049  -2251587.58347  21338740.254    21338739.148    21338748.112
       241.000         200.000
    -77087.87749    -57817.53545  23962319.096    23962317.915    23962331.482
       210.000         156.000
 00  5 15 16 50 29.9980000  0  9G24G 2G30G 4G 5G10G 7G 9G16
 -17336166.28849 -13492937.74447  19851282.404    19851281.565    19851290.939
       237.000         200.000
   8474328.18249   6597992.08745  24359318.475    24359315.675    24359335.490
       205.000         141.000
  -7709765.48149  -5691133.88145  23695651.960    23695651.610    23695662.853
       219.000         159.000
  -4724201.68249  -3667456.03447  20320765.885    20320765.268    20320773.360
       240.000         203.000
 -19251829.13449 -14984549.64447  20828840.701    20828839.587    20828848.726
       237.000         196.000
   -220377.02755                  24215742.661
       206.000         134.000
   6031311.99649   4693506.13146  23028849.360    23028847.641    23028859.310
       221.000         167.000
  -2876252.84349  -2226892.90347  21344771.029    21344769.931    21344778.921
       241.000         200.000
    -81479.45749    -61239.53045  23961483.416    23961482.201    23961495.776
       213.000         158.000
 00  5 15 16 50 59.9980000  0  9G24G 2G30G 4G 5G10G 7G 9G16
 -17388804.99749 -13533954.89947  19841265.612    19841264.753    19841274.122
       236.000         199.000
   8542879.15649   6651407.82545  24372363.784    24372360.902    24372380.816
       206.000         139.000
  -7836455.47049  -5789853.28545  23671543.709    23671543.308    23671554.464
       221.000         159.000
  -4698892.29049  -3647734.47347  20325582.145    20325581.528    20325589.612
       240.000         203.000
 -19343468.09049 -15055956.59847  20811402.420    20811401.280    20811410.389
       237.000         195.000
   -432753.89449   -317973.62245  24191908.291    24191903.765    24191925.266
       206.000         137.000
   6071244.77049   4724622.44546  23036448.384    23036446.681    23036458.404
       219.000         167.000
  -2844135.34949  -2201866.37247  21350882.886    21350881.755    21350890.780
       241.000         200.000
    -85336.94349    -64245.34545  23960749.462    23960748.170    23960761.724
       213.000         157.000
 00  5 15 16 51 29.9980000  0  9G24G 2G30G 4G 5G10G 7G 9G16
 -17440900.92649 -13574549.12047  19831352.119    19831351.236    19831360.562
       236.000         199.000
   8611611.98449   6704965.25245  24385443.626    24385440.776    24385460.788
       206.000         141.000
  -7963108.73849  -5888544.10545  23647442.548    23647441.988    23647453.081
       220.000         158.000
  -4673104.25649  -3627639.95547  20330489.515    20330488.857    20330496.943
       240.000         203.000
 -19434826.95549 -15127145.30547  20794017.457    20794016.274    20794025.354
       238.000         196.000
   -558080.13949   -415630.07955  24168059.347    24168057.462    24168077.109
       206.000         139.000
   6111223.01949   4755774.19846  23044056.157    23044054.391    23044066.194
       219.000         168.000
  -2811581.08549  -2176499.50747  21357077.873    21357076.711    21357085.748
       241.000         199.000
    -88647.12749    -66824.71045  23960119.635    23960118.329    23960131.780
       213.000         157.000
 00  5 15 16 51 59.9980000  0  9G24G 2G30G 4G 5G10G 7G 9G16
 -17492451.46249 -13614718.35747  19821542.453    19821541.516    19821550.814
       236.000         199.000
   8680527.87949   6758665.34145  24398558.348    24398555.534    24398575.730
       202.000         138.000
  -8089720.78149  -5987202.76645  23623349.217    23623348.535    23623359.564
       221.000         158.000
  -4646837.19049  -3607172.15947  20335488.085    20335487.376    20335495.441
       240.000         204.000
 -19525901.13649 -15198112.17847  20776686.649    20776685.438    20776694.503
       237.000         196.000
   -683477.90059   -513342.30645  24144196.758    24144194.813    24144214.483
       210.000         141.000
   6151249.21549   4786963.31046  23051673.061    23051671.249    23051683.055
       219.000         168.000
  -2778589.59749  -2150791.94747  21363356.081    21363354.887    21363363.879
       241.000         199.000
    -91407.86649    -68975.94345  23959594.296    23959592.971    23959606.389
       213.000         156.000
 00  5 15 16 52 29.9980000  0  8G24G30G 4G 5G10G 7G 9G16
 -17543471.77649 -13654474.43547  19811833.681    19811832.701    19811841.965
       236.000         199.000
  -8216305.40349  -6085840.07145  23599261.059    23599260.320    23599271.252
       221.000         158.000
  -4620108.65449  -3586344.77847  20340574.498    20340573.725    20340581.746
       241.000         204.000
 -19616703.93649 -15268867.58947  20759407.499    20759406.258    20759415.296
       238.000         196.000
   -808959.58749   -611119.90545  24120318.191    24120316.079    24120335.749
       207.000         142.000
   6191307.78449   4818177.64746  23059296.115    23059294.304    23059306.055
       222.000         168.000
  -2745178.88849  -2124757.72247  21369714.067    21369712.814    21369721.791
       241.000         198.000
    -93634.77049    -70711.19045  23959170.471    23959169.162    23959182.552
       213.000         156.000
 00  5 15 16 52 59.9980000  0  8G24G30G 4G 5G10G 7G 9G16
 -17593929.14849 -13693791.86747  19802232.009    19802230.998    19802240.236
       236.000         199.000
  -8342828.20749  -6184429.21145  23575184.636    23575183.886    23575194.673
       221.000         159.000
  -4592888.35249  -3565134.20847  20345754.433    20345753.634    20345761.638
       240.000         204.000
 -19707200.65149 -15339384.49747  20742186.575    20742185.310    20742194.311
       238.000         196.000
   -934489.71549   -708935.25845  24096430.375    24096428.243    24096448.225
       209.000         141.000
   6231431.29449   4849442.59846  23066931.582    23066929.702    23066941.420
       220.000         167.000
  -2711318.70549  -2098373.26947  21376157.554    21376156.282    21376165.248
       241.000         199.000
    -95295.42549    -72005.21845  23958854.511    23958853.159    23958866.534
       214.000         157.000
 00  5 15 16 53 29.9980000  0  8G24G30G 4G 5G10G 7G 9G16
 -17643725.41749 -13732594.14947  19792756.114    19792755.097    19792764.326
       236.000         199.000
  -8469189.35749  -6282892.39145  23551138.929    23551138.156    23551148.898
       222.000         159.000
  -4565080.49449  -3543465.79547  20351046.136    20351045.333    20351053.344
       240.000         203.000
 -19797290.99949 -15409584.75047  20725042.983    20725041.690    20725050.655
       238.000         196.000
  -1059967.52649   -806709.87145  24072552.372    24072550.494    24072570.363
       207.000         142.000
   6271717.86049   4880834.60746  23074597.987    23074596.105    23074607.810
       220.000         167.000
  -2676913.09549  -2071563.79847  21382704.842    21382703.551    21382712.522
       241.000         199.000
    -96292.35349    -72782.05245  23958665.003    23958663.501    23958676.825
       216.000         159.000
 00  5 15 16 53 59.9980000  0  8G24G30G 4G 5G10G 7G 9G16
 -17692927.65449 -13770933.54747  19783393.223    19783392.216    19783401.444
       236.000         199.000
  -8595454.44649  -6381280.71845  23527111.470    23527110.709    23527121.374
       222.000         158.000
  -4536754.55149  -3521393.67347  20356436.424    20356435.621    20356443.632
       241.000         203.000
 -19887040.22149 -15479519.18947  20707964.273    20707962.999    20707971.927
       238.000         197.000
  -1185457.31949   -904493.78745  24048672.151    24048670.334    24048690.135
       208.000         143.000
   6312100.03049   4912301.11346  23082282.603    23082280.695    23082292.395
       219.000         167.000
  -2642031.75749  -2044383.63247  21389342.640    21389341.338    21389350.308
       241.000         199.000
    -96693.12349    -73094.34245  23958588.788    23958587.296    23958600.566
       215.000         158.000
 00  5 15 16 54 29.9980000  0  8G24G30G 4G 5G10G 7G 9G16
 -17741532.94349 -13808807.80147  19774143.974    19774142.950    19774152.154
       236.000         199.000
  -8721618.43949  -6479590.27245  23503103.201    23503102.507    23503113.113
       221.000         159.000
  -4507909.86749  -3498917.34547  20361925.421    20361924.627    20361932.638
       240.000         203.000
 -19976442.92249 -15549183.61847  20690951.479    20690950.217    20690959.138
       238.000         197.000
  -1310952.74349  -1002282.11845  24024790.891    24024789.174    24024809.046
       208.000         143.000
   6352580.77149   4943844.41646  23089985.916    23089984.003    23089995.751
       218.000         166.000
  -2606674.07149  -2016832.29847  21396071.046    21396069.759    21396078.747
       241.000         198.000
    -96494.96149    -72939.94645  23958626.430    23958624.966    23958638.269
       212.000         157.000
 00  5 15 16 54 59.9980000  0  8G24G30G 4G 5G10G 7G 9G16
 -17789561.80649 -13846232.89147  19765004.388    19765003.359    19765012.547
       236.000         198.000
  -8847700.21449  -6577835.76645  23479110.592    23479109.932    23479120.481
       221.000         160.000
  -4478569.36249  -3476054.66347  20367508.779    20367507.988    20367515.998
       241.000         203.000
 -20065517.81449 -15618592.61447  20674001.046    20673999.808    20674008.750
       239.000         197.000
  -1436471.88549  -1100088.91145  24000905.096    24000903.562    24000923.447
       208.000         145.000
   6393139.36949   4975448.38546  23097703.996    23097702.111    23097713.926
       219.000         166.000
  -2570863.22749  -1988927.84747  21402885.691    21402884.419    21402893.409
       241.000         198.000
    -95718.98849    -72335.31145  23958774.138    23958772.612    23958785.845
       215.000         158.000
 00  5 15 16 55 29.9980000  0  8G24G30G 4G 5G10G 7G 9G16
 -17837059.89749 -13883244.39147  19755965.805    19755964.785    19755973.950
       236.000         198.000
  -8973743.52549  -6676051.27545  23455125.329    23455124.649    23455135.240
       221.000         161.000
  -4448781.03249  -3452843.01647  20373177.386    20373176.570    20373184.563
       240.000         203.000
 -20154308.34249 -15687780.02447  20657104.738    20657103.527    20657112.475
       239.000         197.000
  -1562057.49049  -1197947.50545  23977006.698    23977005.265    23977025.196
       210.000         146.000
   6433730.10549   5007077.41246  23105428.218    23105426.342    23105438.286
       219.000         167.000
  -2534647.04749  -1960707.54247  21409777.469    21409776.205    21409785.215
       241.000         198.000
    -94411.40349    -71316.40745  23959022.966    23959021.411    23959034.675
       214.000         158.000
 00  5 15 16 55 59.9980000  0  8G24G30G 4G 5G10G 7G 9G16
 -17884002.79549 -13919823.26347  19747032.850    19747031.848    19747041.019
       235.000         198.000
  -9099722.44549  -6774216.60245  23431152.308    23431151.634    23431162.215
       222.000         159.000
  -4418522.77549  -3429265.19847  20378935.387    20378934.573    20378942.557
       241.000         203.000
 -20242788.00149 -15756725.20147  20640267.635    20640266.415    20640275.334
       240.000         197.000
  -1687682.18349  -1295836.53745  23953100.828    23953099.534    23953119.417
       210.000         148.000
   6474377.46649   5038750.56046  23113163.317    23113161.391    23113173.397
       220.000         166.000
  -2498003.50149  -1932154.22647  21416750.566    21416749.307    21416758.356
       241.000         198.000
    -92548.17849    -69864.55145  23959377.588    23959376.008    23959389.235
       217.000         159.000
 00  5 15 16 56 29.9980000  0  8G24G30G 4G 5G10G 7G 9G16
 -17930392.26949 -13955970.91547  19738205.259    19738204.230    19738213.381
       235.000         198.000
  -9225636.55649  -6872331.42445  23407191.607    23407190.951    23407201.544
       222.000         161.000
  -4387798.75149  -3405324.45247  20384782.023    20384781.197    20384789.194
       241.000         203.000
 -20330956.64849 -15825428.03647  20623489.751    20623488.466    20623497.380
       240.000         197.000
  -1813344.91149  -1393755.21545  23929187.762    23929186.561    23929206.421
       210.000         148.000
   6515079.49349   5070466.29546  23120908.914    23120906.922    23120918.873
       220.000         166.000
  -2460936.74849  -1903271.14747  21423804.228    21423802.951    21423812.023
       240.000         198.000
    -90131.65649    -67981.53645  23959837.481    23959835.900    23959849.109
       216.000         159.000
 00  5 15 16 56 59.9980000  0  8G24G30G 4G 5G10G 7G 9G16
 -17976240.59249 -13991696.88647  19729480.615    19729479.571    19729488.725
       235.000         197.000
  -9351496.20849  -6970403.80745  23383241.351    23383240.661    23383251.178
       221.000         160.000
  -4356623.38649  -3381032.00547  20390714.560    20390713.725    20390721.708
       242.000         204.000
 -20418824.13649 -15893896.19447  20606769.158    20606767.855    20606776.726
       239.000         197.000
  -1939054.67449  -1491710.54745  23905265.762    23905264.587    23905284.450
       212.000         150.000
   6555824.00249   5102215.14546  23128662.558    23128660.500    23128672.392
       218.000         165.000
  -2423461.67849  -1874069.89447  21430935.596    21430934.301    21430943.380
       241.000         197.000
    -87174.39149    -65677.17845  23960400.275    23960398.663    23960411.854
       216.000         159.000
 00  5 15 16 57 29.9980000  0  8G24G30G 4G 5G10G 7G 9G16
 -18021586.40549 -14027031.29047  19720851.602    19720850.552    19720859.696
       234.000         197.000
  -9477338.17749  -7068462.42845  23359294.381    23359293.705    23359304.221
       220.000         160.000
  -4325037.44849  -3356419.63747  20396725.215    20396724.375    20396732.353
       241.000         203.000
 -20506426.89849 -15962158.07747  20590098.877    20590097.586    20590106.441
       238.000         197.000
  -2064847.16349  -1589730.35445  23881327.997    23881326.915    23881346.763
       212.000         150.000
   6596572.44149   5133967.04846  23136416.746    23136414.746    23136426.686
       217.000         164.000
  -2385619.13349  -1844582.30447  21438136.842    21438135.552    21438144.663
       241.000         197.000
    -83715.57449    -62982.01145  23961058.380    23961056.828    23961070.051
       216.000         158.000
 00  5 15 16 57 59.9980000  0  8G24G30G 4G 5G10G 7G 9G16
 -18066504.11349 -14062032.10247  19712304.014    19712303.006    19712312.127
       235.000         198.000
  -9603234.93849  -7166563.74445  23335336.947    23335336.294    23335346.821
       220.000         160.000
  -4293117.98849  -3331547.38047  20402799.278    20402798.481    20402806.477
       242.000         203.000
 -20593837.17549 -16030269.97447  20573465.221    20573463.952    20573472.810
       239.000         197.000
  -2190793.62249  -1687870.12345  23857360.929    23857359.890    23857379.728
       212.000         150.000
   6637250.37249   5165663.99646  23144157.479    23144155.574    23144167.538
       217.000         163.000
  -2347485.88949  -1814868.19647  21445393.418    21445392.132    21445401.262
       241.000         198.000
    -79830.07549    -59954.36645  23961797.706    23961796.196    23961809.432
       216.000         159.000
 00  5 15 16 58 29.9980000  0  8G24G30G 4G 5G10G 7G 9G16
 -18110914.62349 -14096637.69547  19703852.981    19703851.983    19703861.104
       235.000         198.000
  -9729105.43849  -7264644.59445  23311384.472    23311383.876    23311394.437
       220.000         160.000
  -4260787.90449  -3306355.15647  20408951.494    20408950.706    20408958.731
       241.000         203.000
 -20680973.70549 -16098168.56347  20556883.639    20556882.400    20556891.256
       239.000         198.000
  -2316811.89549  -1786065.85345  23833380.272    23833379.220    23833399.039
       212.000         151.000
   6677937.11349   5197367.82546  23151899.982    23151898.078    23151910.060
       218.000         164.000
  -2308985.01149  -1784867.61847  21452719.957    21452718.675    21452727.842
       240.000         198.000
    -75439.35449    -56533.02945  23962633.226    23962631.768    23962644.955
       216.000         160.000
 00  5 15 16 58 59.9980000  0  8G24G30G 4G 5G10G 7G 9G16
 -18154786.79749 -14130823.80447  19695504.359    19695503.371    19695512.517
       234.000         198.000
  -9854916.69449  -7362679.29045  23287443.314    23287442.744    23287453.268
       221.000         161.000
  -4228018.55249  -3280820.64447  20415187.314    20415186.540    20415194.582
       242.000         203.000
 -20767803.28649 -16165827.97647  20540360.491    20540359.263    20540368.145
       239.000         198.000
  -2442868.30749  -1884291.29645  23809392.374    23809391.348    23809411.011
       212.000         152.000
   6718663.67949   5229102.68646  23159650.128    23159648.241    23159660.188
       217.000         166.000
  -2270088.22249  -1754558.53747  21460121.831    21460120.567    21460129.738
       240.000         197.000
    -70512.81049    -52694.15945  23963570.772    23963569.259    23963582.447
       216.000         159.000
 00  5 15 16 59 29.9980000  0  8G24G30G 4G 5G10G 7G 9G16
 -18198107.05349 -14164579.85047  19687260.779    19687259.797    19687268.933
       234.000         197.000
  -9980652.96449  -7460655.53745  23263516.418    23263515.867    23263526.400
       222.000         162.000
  -4194798.28149  -3254934.77147  20421508.945    20421508.180    20421516.222
       242.000         203.000
 -20854309.65349 -16233235.52847  20523898.851    20523897.636    20523906.533
       239.000         198.000
  -2568945.61249  -1982533.03345  23785400.487    23785399.478    23785419.057
       214.000         153.000
   6759443.92149   5260879.37046  23167410.462    23167408.612    23167420.558
       218.000         164.000
  -2230783.83249  -1723931.84547  21467601.272    21467600.009    21467609.206
       240.000         197.000
    -65037.05649    -48427.35245  23964612.737    23964611.268    23964624.429
       215.000         158.000
 00  5 15 16 59 59.9980000  0  8G24G30G 4G 5G10G 7G 9G16
 -18240920.04649 -14197940.62347  19679113.710    19679112.751    19679121.875
       234.000         197.000
 -10106356.68249  -7558606.42745  23239595.733    23239595.156    23239605.737
       221.000         161.000
  -4161173.99449  -3228734.07547  20427907.426    20427906.692    20427914.743
       242.000         203.000
 -20940535.38049 -16300424.40247  20507490.619    20507489.420    20507498.308
       239.000         198.000
  -2695085.26549  -2080823.37045  23761396.707    23761395.729    23761415.225
       213.000         154.000
   6800233.43349   5292663.28346  23175172.489    23175170.657    23175182.664
       217.000         164.000
  -2191118.91649  -1693024.22547  21475149.319    21475148.074    21475157.291
       241.000         198.000
    -59057.31049    -43767.81045  23965750.612    23965749.193    23965762.347
       215.000         158.000
 00  5 15 17  0 29.9980000  0  8G24G30G 4G 5G10G 7G 9G16
 -18283209.63149 -14230893.54747  19671066.227    19671065.279    19671074.429
       234.000         197.000
 -10232009.77949  -7656517.87745  23215684.603    23215684.079    23215694.702
       220.000         161.000
  -4127131.93849  -3202207.85347  20434385.405    20434384.709    20434392.764
       241.000         203.000
 -21026461.94249 -16367380.16347  20491139.310    20491138.135    20491147.015
       238.000         198.000
  -2821267.93649  -2179147.23245  23737384.677    23737383.749    23737403.138
       212.000         154.000
   6841048.43349   5324467.02945  23182939.263    23182937.540    23182949.669
       215.000         161.000
  -2151079.74449  -1661824.98747  21482768.586    21482767.353    21482776.604
       240.000         197.000
    -52557.87549    -38703.32345  23966987.285    23966985.983    23966999.194
       216.000         159.000
 00  5 15 17  0 59.9980000  0  8G24G30G 4G 5G10G 7G 9G16
 -18324959.98349 -14263426.28747  19663121.403    19663120.462    19663129.601
       234.000         197.000
 -10357594.07349  -7754375.69845  23191786.525    23191786.077    23191796.724
       220.000         160.000
  -4092658.40049  -3175345.40847  20440945.517    20440944.828    20440952.903
       242.000         203.000
 -21112071.19149 -16434088.66147  20474848.357    20474847.230    20474856.088
       239.000         198.000
  -2947474.52449  -2277489.73845  23713368.042    23713367.166    23713386.536
       212.000         153.000
   6881905.10649   5356303.25545  23190714.039    23190712.353    23190724.548
       217.000         162.000
  -2110652.65649  -1630323.47247  21490461.646    21490460.447    21490469.741
       240.000         197.000
    -45523.64049    -33222.11345  23968325.817    23968324.554    23968337.775
       215.000         158.000
 00  5 15 17  1 29.9980000  0  9G24G30G 4G 5G10G 7G 6G 9G16
 -18366163.36049 -14295532.81947  19655280.645    19655279.723    19655288.855
       233.000         197.000
 -10483099.63549  -7852172.17045  23167903.467    23167903.105    23167913.748
       220.000         161.000
  -4057747.86549  -3148142.44847  20447588.823    20447588.137    20447596.204
       242.000         203.000
 -21197352.95349 -16500541.97847  20458619.737    20458618.618    20458627.478
       238.000         198.000
  -3073694.31149  -2375842.54745  23689348.925    23689348.121    23689367.383
       211.000         153.000
   6922811.16249   5388177.97846  23198498.364    23198496.623    23198508.811
       218.000         163.000
   -298851.50159   -210624.10455  24808669.146    24808667.681    24808684.914
       207.000         134.000
  -2069832.36449  -1598515.56747  21498229.575    21498228.382    21498237.705
       240.000         197.000
    -37947.25849    -27318.46945  23969767.539    23969766.289    23969779.485
       215.000         159.000
 00  5 15 17  1 59.9980000  0  9G24G30G 4G 5G10G 7G 6G 9G16
 -18406834.96049 -14327224.97547  19647541.037    19647540.146    19647549.306
       233.000         196.000
 -10608539.11549  -7949917.16545  23144032.971    23144032.674    23144043.320
       220.000         162.000
  -4022417.50449  -3120612.34947  20454312.025    20454311.331    20454319.395
       242.000         203.000
 -21282319.77349 -16566749.88447  20442451.062    20442449.946    20442458.815
       238.000         198.000
  -3199938.89849  -2474214.66545  23665325.114    23665324.348    23665343.557
       209.000         152.000
   6963752.06249   5420079.84546  23206289.320    23206287.559    23206299.727
       218.000         164.000
   -400376.17349   -289734.10145  24789349.634    24789348.551    24789363.858
       206.000         133.000
  -2028636.11249  -1566414.70747  21506069.003    21506067.836    21506077.205
       240.000         197.000
    -29844.19149    -21004.41545  23971309.506    23971308.251    23971321.415
       215.000         157.000
 00  5 15 17  2 29.9980000  0  9G24G30G 4G 5G10G 7G 6G 9G16
 -18446985.48549 -14358511.10447  19639900.596    19639899.739    19639908.909
       233.000         196.000
 -10733921.62449  -8047617.76145  23120173.360    23120173.090    23120183.734
       220.000         162.000
  -3986680.27649  -3092765.21547  20461112.573    20461111.925    20461120.012
       242.000         203.000
 -21366980.03949 -16632718.91847  20426340.722    20426339.618    20426348.519
       238.000         198.000
  -3326216.04149  -2572612.15245  23641295.185    23641294.367    23641313.549
       211.000         152.000
   7004717.06449   5452000.49746  23214084.852    23214083.071    23214095.253
       217.000         163.000
   -501873.62659   -368822.91755  24770035.323    24770033.539    24770049.508
       206.000         134.000
  -1987077.00149  -1534031.09947  21513977.481    21513976.339    21513985.757
       240.000         196.000
    -21225.92549    -14288.92745  23972949.476    23972948.221    23972961.462
       214.000         158.000
 00  5 15 17  2 59.9980000  0  9G24G30G 4G 5G10G 7G 6G 9G16
 -18486614.47449 -14389390.83447  19632359.465    19632358.604    19632367.770
       234.000         196.000
 -10859244.47349  -8145271.86645  23096325.140    23096324.902    23096335.541
       221.000         161.000
  -3950538.03749  -3064602.48547  20467990.200    20467989.578    20467997.697
       242.000         202.000
 -21451331.10649 -16698447.01247  20410289.258    20410288.147    20410297.056
       239.000         198.000
  -3452521.65349  -2671031.83645  23617259.838    23617259.027    23617278.061
       210.000         152.000
   7045707.06249   5483940.61046  23221885.092    23221883.288    23221895.570
       217.000         163.000
   -603343.25449   -447890.02845  24750726.283    24750725.062    24750740.457
       208.000         138.000
  -1945157.11949  -1501366.36847  21521954.658    21521953.509    21521962.950
       240.000         197.000
    -12092.29349     -7171.83045  23974687.541    23974686.282    23974699.531
       214.000         158.000
 00  5 15 17  3 29.9980000  0  9G24G30G 4G 5G10G 7G 6G 9G16
 -18525695.21449 -14419843.36247  19624922.693    19624921.787    19624930.981
       233.000         196.000
 -10984478.35849  -8242856.65545  23072493.908    23072493.633    23072504.231
       220.000         162.000
  -3913965.90249  -3036104.78047  20474949.670    20474949.051    20474957.190
       242.000         202.000
 -21535343.75049 -16763911.40947  20394302.189    20394301.054    20394309.984
       239.000         199.000
  -3578825.52049  -2769450.16445  23593224.854    23593224.018    23593242.962
       211.000         151.000
   7086749.25349   5515921.40445  23229695.132    23229693.402    23229705.790
       215.000         162.000
   -704758.09249   -526914.45145  24731427.631    24731426.459    24731441.902
       208.000         137.000
  -1902851.59349  -1468401.13747  21530005.216    21530004.064    21530013.521
       239.000         196.000
     -2417.08849       367.25445  23976528.644    23976527.400    23976540.687
       215.000         158.000
 00  5 15 17  3 59.9980000  0  9G24G30G 4G 5G10G 7G 6G 9G16
 -18564185.35949 -14449835.68447  19617598.244    19617597.342    19617606.544
       232.000         196.000
 -11109578.74149  -8340337.42246  23048688.065    23048687.766    23048698.369
       222.000         164.000
  -3876923.84249  -3007240.89347  20481998.627    20481997.971    20482006.109
       242.000         202.000
 -21618973.37749 -16829077.34747  20378388.017    20378386.862    20378395.767
       237.000         199.000
  -3705082.06149  -2867831.61145  23569198.790    23569197.994    23569216.859
       209.000         150.000
   7127885.97549   5547975.84046  23237523.168    23237521.488    23237534.002
       216.000         164.000
   -806075.67049   -605863.09645  24712147.488    24712146.488    24712161.752
       210.000         140.000
  -1860120.75449  -1435104.49247  21538136.697    21538135.547    21538145.015
       239.000         195.000
      7841.25849      8360.74445  23978480.782    23978479.515    23978492.788
       214.000         158.000
 00  5 15 17  4 29.9980000  0  9G24G30G 4G 5G10G 7G 6G 9G16
 -18602099.23649 -14479378.96847  19610383.481    19610382.576    19610391.770
       233.000         196.000
 -11234557.38149  -8437723.31746  23024905.422    23024905.079    23024915.656
       222.000         164.000
  -3839428.11549  -2978023.50047  20489133.918    20489133.227    20489141.372
       242.000         202.000
 -21702231.47249 -16893953.77747  20362544.541    20362543.370    20362552.266
       238.000         198.000
  -3831302.00549  -2966184.53445  23545179.787    23545178.937    23545197.763
       210.000         150.000
   7169103.61349   5580093.33146  23245366.810    23245365.113    23245377.583
       218.000         163.000
   -907309.85449   -684746.71545  24692883.240    24692882.243    24692897.530
       210.000         139.000
  -1816980.92949  -1401489.16047  21546346.026    21546344.856    21546354.346
       239.000         195.000
     18668.44249     16797.46345  23980541.271    23980539.919    23980553.131
       214.000         158.000
 00  5 15 17  4 59.9980000  0  9G24G30G 4G 5G10G 7G 6G 9G16
 -18639557.60549 -14508567.30947  19603255.450    19603254.502    19603263.688
       233.000         196.000
 -11359532.63349  -8535106.56046  23001123.403    23001123.043    23001133.599
       221.000         163.000
  -3801601.63149  -2948548.37947  20496332.128    20496331.424    20496339.558
       242.000         202.000
 -21785236.36649 -16958632.90947  20346749.246    20346748.075    20346756.957
       238.000         199.000
  -3957602.85649  -3064600.51845  23521145.383    23521144.479    23521163.244
       209.000         149.000
   7210281.92649   5612180.20246  23253203.148    23253201.280    23253213.666
       218.000         163.000
  -1008581.15049   -763659.24245  24673611.938    24673610.952    24673626.248
       210.000         139.000
  -1773554.74949  -1367650.70047  21554609.853    21554608.664    21554618.179
       239.000         196.000
     29942.97049     25582.76045  23982686.894    23982685.496    23982698.613
       215.000         160.000
 00  5 15 17  5 29.9980000  0  9G24G30G 4G 5G10G 7G 6G 9G16
 -18676483.06849 -14537340.40247  19596228.809    19596227.845    19596237.008
       233.000         196.000
 -11484424.86149  -8632425.12346  22977357.158    22977356.787    22977367.334
       222.000         164.000
  -3763369.11849  -2918756.86947  20503607.590    20503606.858    20503615.010
       242.000         202.000
 -21867908.20349 -17023052.51447  20331017.357    20331016.151    20331025.025
       238.000         199.000
  -4083903.68749  -3163016.48045  23497110.863    23497110.063    23497128.791
       208.000         148.000
   7251498.53849   5644296.90345  23261046.650    23261044.720    23261057.031
       217.000         162.000
  -1109811.70049   -842540.04445  24654348.273    24654347.359    24654362.736
       211.000         141.000
  -1729767.30949  -1333530.73347  21562942.426    21562941.211    21562950.780
       239.000         196.000
     41741.55149     34776.41745  23984932.132    23984930.722    23984943.823
       216.000         159.000
 00  5 15 17  5 59.9980000  0  9G24G30G 4G 5G10G 7G 6G 9G16
 -18712886.42849 -14565706.65447  19589301.465    19589300.510    19589309.700
       233.000         196.000
 -11609242.34149  -8729685.44046  22953605.105    22953604.745    22953615.288
       222.000         164.000
  -3724743.22149  -2888658.82647  20510957.907    20510957.169    20510965.330
       242.000         202.000
 -21950255.28249 -17087219.06047  20315347.267    20315346.029    20315354.890
       238.000         199.000
  -4210211.83749  -3261438.14445  23473074.998    23473074.233    23473092.911
       208.000         146.000
   7292743.31149   5676435.55245  23268895.380    23268893.473    23268905.792
       216.000         162.000
  -1211011.93349   -921397.21045  24635090.505    24635089.524    24635104.978
       213.000         144.000
  -1685631.59949  -1299139.38747  21571341.286    21571340.053    21571349.661
       239.000         195.000
     54053.22849     44369.88545  23987274.900    23987273.531    23987286.710
       215.000         158.000
 00  5 15 17  6 29.9980000  0  9G24G30G 4G 5G10G 7G 6G 9G16
 -18748768.65349 -14593666.82847  19582473.323    19582472.345    19582481.546
       233.000         196.000
 -11733983.93849  -8826886.63046  22929867.494    22929867.131    22929877.670
       222.000         166.000
  -3685727.11049  -2858256.72747  20518382.508    20518381.749    20518389.900
       242.000         202.000
 -22032276.11249 -17151131.38847  20299739.238    20299737.993    20299746.829
       238.000         199.000
  -4336524.51549  -3359863.32845  23449038.347    23449037.452    23449056.123
       208.000         144.000
   7334015.41149   5708595.49945  23276749.207    23276747.377    23276759.754
       214.000         161.000
  -1312182.72449  -1000231.45545  24615838.338    24615837.290    24615852.792
       214.000         145.000
  -1641150.92749  -1264479.24147  21579805.786    21579804.528    21579814.173
       239.000         195.000
     66876.34449     54361.87445  23989715.060    23989713.703    23989726.936
       213.000         158.000
 00  5 15 17  6 59.9980000  0  9G24G30G 4G 5G10G 7G 6G 9G16
 -18784127.61449 -14621219.27047  19575744.779    19575743.786    19575752.954
       233.000         197.000
 -11858644.87649  -8924024.97646  22906145.146    22906144.847    22906155.421
       222.000         165.000
  -3646320.70349  -2827550.49347  20525881.380    20525880.586    20525888.748
       242.000         202.000
 -22113965.73449 -17214785.63547  20284194.236    20284192.987    20284201.811
       238.000         199.000
  -4462836.07449  -3458287.65345  23425001.846    23425000.914    23425019.568
       206.000         144.000
   7375317.78849   5740779.02845  23284608.847    23284606.999    23284619.502
       215.000         162.000
  -1413321.21749  -1079040.52545  24596592.183    24596591.243    24596606.662
       213.000         144.000
  -1596325.27649  -1229550.27747  21588335.889    21588334.648    21588344.330
       239.000         195.000
     80212.48849     64753.63345  23992252.896    23992251.520    23992264.768
       214.000         158.000
 00  5 15 17  7 29.9970000  0  9G24G30G 4G 5G10G 7G 6G 9G16
 -18818960.50649 -14648361.79047  19569116.307    19569115.337    19569124.471
       233.000         196.000
 -11983216.64949  -9021093.83946  22882439.823    22882439.567    22882450.146
       223.000         166.000
  -3606525.68949  -2796541.45447  20533454.169    20533453.382    20533461.530
       242.000         202.000
 -22195317.18849 -17278176.37547  20268713.602    20268712.333    20268721.135
       238.000         199.000
  -4589137.03149  -3556703.71345  23400967.295    23400966.449    23400985.095
       207.000         145.000
   7416651.20949   5772986.76445  23292474.406    23292472.550    23292485.144
       216.000         161.000
  -1514422.10749  -1157820.31345  24577353.196    24577352.259    24577367.711
       213.000         146.000
  -1551156.59449  -1194354.02047  21596931.298    21596930.047    21596939.761
       239.000         195.000
     94062.32949     75545.66245  23994888.499    23994887.062    23994900.343
       214.000         160.000
 00  5 15 17  7 59.9970000  0  9G24G30G 4G 5G10G 7G 6G 9G16
 -18853273.20049 -14675098.95147  19562586.807    19562585.849    19562594.980
       233.000         195.000
 -12107708.21849  -9118100.20846  22858749.887    22858749.573    22858760.130
       223.000         166.000
  -3566344.60549  -2765231.57747  20541100.401    20541099.620    20541107.799
       243.000         202.000
 -22276336.88049 -17341308.60047  20253296.069    20253294.799    20253303.596
       238.000         199.000
  -4715435.81249  -3655118.07045  23376933.147    23376932.373    23376950.913
       205.000         146.000
   7458015.44949   5805218.49745  23300345.900    23300344.055    23300356.656
       217.000         162.000
  -1615495.05349  -1236578.31645  24558119.486    24558118.604    24558134.073
       213.000         146.000
  -1505647.44449  -1158892.46547  21605591.522    21605590.242    21605599.993
       239.000         195.000
    108422.98049     86735.73245  23997621.302    23997619.865    23997633.148
       214.000         158.000
 00  5 15 17  8 29.9970000  0  9G24G30G 4G 5G10G 7G 6G 9G16
 -18887060.79949 -14701426.95647  19556157.226    19556156.292    19556165.425
       233.000         196.000
 -12232109.65249  -9215036.33346  22835077.043    22835076.715    22835087.245
       223.000         166.000
  -3525777.47949  -2733620.88847  20548820.098    20548819.327    20548827.518
       242.000         202.000
 -22357015.97049 -17404175.42947  20237943.321    20237942.054    20237950.870
       238.000         200.000
  -4841720.90249  -3753521.76145  23352901.672    23352900.887    23352919.419
       209.000         144.000
   7499413.45149   5837476.53945  23308223.875    23308222.001    23308234.567
       215.000         162.000
  -1716532.72049  -1315308.83145  24538892.471    24538891.708    24538907.159
       214.000         149.000
  -1459798.05149  -1123165.78747  21614316.432    21614315.180    21614324.961
       238.000         194.000
    123296.91549     98325.76645  24000451.633    24000450.247    24000463.588
       214.000         158.000
 00  5 15 17  8 59.9970000  0  9G24G30G 4G 5G10G 7G 6G 9G16
 -18920304.22849 -14727330.92847  19549831.201    19549830.286    19549839.403
       232.000         195.000
 -12356399.03349  -9311885.14946  22811425.597    22811425.216    22811435.665
       222.000         166.000
  -3484806.87649  -2701695.80047  20556616.548    20556615.815    20556624.030
       242.000         202.000
 -22437332.54649 -17466759.76647  20222659.579    20222658.332    20222667.123
       238.000         199.000
  -4967969.44749  -3851896.99445  23328877.175    23328876.313    23328894.815
       208.000         145.000
   7540864.78849   5869776.14345  23316111.866    23316110.056    23316122.620
       214.000         161.000
  -1817515.49949  -1393996.57445  24519676.004    24519675.264    24519690.715
       213.000         150.000
  -1413591.09249  -1087160.48347  21623109.350    21623108.149    21623117.953
       238.000         194.000
    138702.97049    110330.45345  24003383.188    24003381.897    24003395.291
       214.000         158.000
 00  5 15 17  9 29.9970000  0  9G24G30G 4G 5G10G 7G 6G 9G16
 -18953036.68449 -14752836.74847  19543602.408    19543601.519    19543610.615
       233.000         196.000
 -12480606.49549  -9408670.13046  22787789.701    22787789.286    22787799.700
       223.000         167.000
  -3443467.89649  -2669483.67247  20564483.146    20564482.414    20564490.638
       242.000         202.000
 -22517317.12649 -17529085.40947  20207439.020    20207437.783    20207446.548
       238.000         200.000
  -5094210.99949  -3950266.78245  23304853.981    23304853.173    23304871.504
       207.000         145.000
   7582337.20049   5902092.14245  23324003.877    23324002.065    23324014.655
       216.000         158.000
  -1918476.04849  -1472667.01045  24500463.715    24500463.015    24500478.528
       215.000         151.000
  -1367061.85949  -1050904.06147  21631963.650    21631962.458    21631972.265
       238.000         194.000
    154607.34649    122723.42845  24006409.743    24006408.409    24006421.837
       214.000         159.000
 00  5 15 17  9 59.9970000  0  9G24G30G 4G 5G10G 7G 6G 9G16
 -18985215.06549 -14777910.81247  19537479.052    19537478.168    19537487.274
       232.000         195.000
 -12604686.60349  -9505355.86946  22764177.980    22764177.566    22764187.988
       222.000         165.000
  -3401719.50449  -2636952.51847  20572427.636    20572426.927    20572435.152
       242.000         202.000
 -22596924.01549 -17591116.74847  20192290.289    20192289.088    20192297.854
       237.000         199.000
  -5220398.51349  -4048594.46645  23280841.087    23280840.211    23280858.527
       209.000         146.000
   7623874.27749   5934458.56545  23331908.103    23331906.363    23331919.068
       214.000         159.000
  -2019370.76949  -1551286.15645  24481263.854    24481263.282    24481278.814
       214.000         150.000
  -1320169.38249  -1014364.59547  21640887.071    21640885.901    21640895.725
       238.000         194.000
    171052.63249    135537.89045  24009539.308    24009537.925    24009551.306
       215.000         159.000
 00  5 15 17 10 29.9970000  0  9G24G30G 4G 5G10G 7G 6G 9G16
 -19016883.53249 -14802587.55147  19531452.747    19531451.852    19531460.961
       232.000         195.000
 -12728680.81549  -9601974.68346  22740582.561    22740582.193    22740592.596
       223.000         166.000
  -3359607.69649  -2604138.18347  20580441.297    20580440.583    20580448.827
       242.000         202.000
 -22676194.47149 -17652885.93147  20177205.618    20177204.421    20177213.184
       238.000         199.000
  -5346572.40149  -4146911.51845  23256830.777    23256829.924    23256848.112
       209.000         146.000
   7665432.61949   5966841.53645  23339816.403    23339814.738    23339827.519
       213.000         159.000
  -2120243.27649  -1629887.98845  24462068.305    24462067.777    24462083.332
       216.000         151.000
  -1272959.92749   -977578.12847  21649870.840    21649869.655    21649879.511
       238.000         194.000
    187994.26249    148739.12445  24012763.351    24012761.891    24012775.269
       215.000         160.000
 00  5 15 17 10 59.9970000  0  9G24G30G 4G 5G10G 7G 6G 9G16
 -19048033.46149 -14826860.23847  19525525.153    19525524.238    19525533.325
       232.000         195.000
 -12852577.97649  -9698517.84846  22717005.627    22717005.288    22717015.702
       222.000         167.000
  -3317125.88749  -2571035.53947  20588525.347    20588524.647    20588532.895
       242.000         202.000
 -22755117.31049 -17714384.24847  20162187.114    20162185.908    20162194.685
       238.000         200.000
  -5472720.55749  -4245208.53145  23232825.310    23232824.503    23232842.604
       209.000         146.000
   7707021.42049   5999248.25445  23347730.604    23347728.928    23347741.751
       215.000         161.000
  -2221084.51149  -1708465.46345  24442878.747    24442878.230    24442893.766
       216.000         153.000
  -1225427.21549   -940539.77947  21658916.140    21658914.923    21658924.830
       238.000         194.000
    205440.13749    162333.26245  24016083.181    24016081.736    24016095.132
       214.000         159.000
 00  5 15 17 11 29.9970000  0  9G24G30G 4G 5G10G 7G 6G 9G16
 -19078657.63249 -14850723.24047  19519697.583    19519696.658    19519705.732
       233.000         196.000
 -12976367.85549  -9794977.44346  22693449.101    22693448.767    22693459.223
       223.000         166.000
  -3274268.53749  -2537640.26047  20596680.879    20596680.169    20596688.435
       242.000         201.000
 -22833682.50449 -17775603.87547  20147236.701    20147235.463    20147244.210
       239.000         200.000
  -5598831.57049  -4343476.60045  23208826.931    23208826.205    23208844.143
       209.000         146.000
   7748648.76949   6031685.00945  23355652.197    23355650.429    23355663.297
       214.000         160.000
  -2321886.51949  -1787012.38345  24423696.740    24423696.145    24423711.620
       216.000         152.000
  -1177565.90349   -903245.38247  21668023.957    21668022.724    21668032.665
       238.000         194.000
    223397.08349    176325.65745  24019500.288    24019498.862    24019512.222
       216.000         157.000
 00  5 15 17 11 59.9970000  0  9G24G30G 4G 5G10G 7G 6G 9G16
 -19108744.43049 -14874167.50747  19513972.263    19513971.345    19513980.410
       232.000         195.000
 -13100036.04249  -9891342.20246  22669915.657    22669915.413    22669925.896
       223.000         167.000
  -3231026.08449  -2503944.91147  20604909.699    20604908.977    20604917.253
       242.000         201.000
 -22911875.72549 -17836533.64747  20132357.030    20132355.783    20132364.540
       237.000         200.000
  -5724890.25549  -4441703.89545  23184838.588    23184837.813    23184855.686
       211.000         147.000
   7790326.87249   6064161.30345  23363583.408    23363581.605    23363594.515
       212.000         158.000
  -2422637.12549  -1865519.24145  24404524.503    24404523.886    24404539.298
       216.000         153.000
  -1129366.38649   -865687.44547  21677196.084    21677194.866    21677204.857
       237.000         193.000
    241876.07449    190724.83345  24023016.811    24023015.329    24023028.649
       215.000         159.000
 00  5 15 17 12 29.9970000  0  9G24G30G 4G 5G10G 7G 6G 9G16
 -19138300.04449 -14897197.87447  19508347.992    19508347.099    19508356.172
       232.000         195.000
 -13223586.04049  -9987614.87046  22646404.700    22646404.540    22646415.076
       223.000         168.000
  -3187406.45749  -2469955.65947  20613210.275    20613209.578    20613217.854
       242.000         201.000
 -22989700.08749 -17897176.00747  20117547.498    20117546.302    20117555.050
       238.000         200.000
  -5850898.92649  -4539892.21145  23160859.728    23160858.949    23160876.772
       211.000         148.000
   7832050.46849   6096673.04445  23371523.265    23371521.436    23371534.361
       213.000         159.000
  -2523341.78149  -1943990.27645  24385360.978    24385360.342    24385375.695
       216.000         153.000
  -1080837.01249   -827872.48347  21686430.977    21686429.775    21686439.800
       237.000         192.000
    260870.58549    205525.70345  24026631.420    24026629.916    24026643.168
       215.000         158.000
 00  5 15 17 12 59.9970000  0  9G24G30G 4G 5G10G 7G 6G 9G16
 -19167318.44249 -14919809.61947  19502826.030    19502825.101    19502834.164
       232.000         195.000
 -13347008.82649 -10083788.39246  22622918.064    22622917.886    22622928.491
       223.000         168.000
  -3143405.51449  -2435669.27047  20621583.462    20621582.733    20621591.015
       242.000         201.000
 -23067147.04249 -17957524.27147  20102809.863    20102808.642    20102817.388
       238.000         200.000
  -5976847.67149  -4638033.84045  23136892.305    23136891.530    23136909.263
       210.000         148.000
   7873826.35249   6129225.53145  23379473.097    23379471.241    23379484.179
       214.000         159.000
  -2623993.85649  -2022420.35445  24366207.441    24366206.836    24366222.116
       219.000         154.000
  -1031973.72549   -789797.31447  21695729.426    21695728.239    21695738.280
       237.000         193.000
    280386.21049    220732.65045  24030345.224    24030343.641    24030356.923
       216.000         158.000
 00  5 15 17 13 29.9970000  0  9G24G30G 4G 5G10G 7G 6G 9G16
 -19195791.35249 -14941996.31547  19497407.845    19497406.900    19497415.944
       232.000         195.000
 -13470293.37849 -10179854.21946  22599457.768    22599457.582    22599468.163
       223.000         169.000
  -3099016.52149  -2401080.51047  20630030.481    20630029.742    20630038.034
       242.000         201.000
 -23144205.31749 -18017569.67547  20088146.194    20088144.956    20088153.668
       238.000         200.000
  -6102724.02449  -4736119.06045  23112938.718    23112937.888    23112955.519
       211.000         150.000
   7915663.79149   6161825.98845  23387434.731    23387432.796    23387445.723
       218.000         160.000
  -2724584.27949  -2100802.35945  24347065.671    24347065.075    24347080.308
       218.000         154.000
   -982770.03849   -751456.90747  21705092.657    21705091.463    21705101.562
       237.000         193.000
    300430.57749    236351.59845  24034159.581    24034158.030    24034171.279
       215.000         159.000
 00  5 15 17 13 59.9970000  0  9G24G30G 4G 5G10G 7G 6G 9G16
 -19223743.70349 -14963777.37747  19492088.709    19492087.765    19492096.788
       233.000         194.000
 -13593461.94349 -10275829.66546  22576019.597    22576019.344    22576029.939
       224.000         169.000
  -3054266.42349  -2366210.36647  20638546.180    20638545.441    20638553.754
       242.000         200.000
 -23220897.33449 -18077329.67847  20073552.181    20073550.948    20073559.661
       238.000         200.000
  -6228549.13649  -4834164.34345  23088994.884    23088993.967    23089011.558
       211.000         151.000
   7957538.47349   6194455.46345  23395403.433    23395401.468    23395414.339
       217.000         160.000
  -2825137.68349  -2179155.52545  24327930.965    24327930.277    24327945.485
       218.000         155.000
   -933253.11249   -712872.41847  21714515.522    21714514.328    21714524.472
       237.000         193.000
    320978.36449    252362.81245  24038069.672    24038068.184    24038081.448
       214.000         158.000
 00  5 15 17 14 29.9970000  0  9G24G30G 4G 5G10G 7G 6G 9G16
 -19251185.55749 -14985160.65447  19486866.695    19486865.754    19486874.788
       232.000         195.000
 -13716521.04049 -10371719.81846  22552602.243    22552601.943    22552612.538
       224.000         170.000
  -3009167.02549  -2331068.04547  20647128.344    20647127.607    20647135.937
       241.000         200.000
 -23297229.95149 -18136809.63347  20059026.527    20059025.310    20059034.041
       238.000         200.000
  -6354328.84549  -4932174.23545  23065059.637    23065058.722    23065076.252
       211.000         151.000
   7999441.44049   6227106.96945  23403377.348    23403375.425    23403388.358
       214.000         159.000
  -2925663.14349  -2257486.91745  24308801.532    24308800.837    24308815.981
       219.000         155.000
   -883434.74849   -674053.05247  21723995.737    21723994.539    21724004.731
       237.000         192.000
    342019.03949    268758.11245  24042073.508    24042072.110    24042085.397
       214.000         156.000
 00  5 15 17 14 59.9970000  0  9G24G30G 4G 5G10G 7G 6G 9G16
 -19278111.53449 -15006141.94847  19481742.839    19481741.913    19481750.960
       232.000         195.000
 -13839462.77249 -10467518.52446  22529207.200    22529206.905    22529217.434
       224.000         170.000
  -2963714.54749  -2295650.59747  20655777.641    20655776.966    20655785.298
       241.000         200.000
 -23373195.14749 -18196003.29047  20044570.785    20044569.611    20044578.345
       238.000         200.000
  -6480054.21349  -5030141.78445  23041134.656    23041133.787    23041151.255
       211.000         151.000
   8041378.81249   6259785.26845  23411357.652    23411355.835    23411368.949
       214.000         157.000
  -3026154.73749  -2335791.92345  24289678.522    24289677.863    24289692.902
       217.000         156.000
   -833311.71249   -634996.27847  21733533.921    21733532.734    21733542.951
       237.000         192.000
    363557.33649    285541.17545  24046172.054    24046170.702    24046184.040
       213.000         158.000
 00  5 15 17 15 29.9970000  0  9G24G30G 4G 5G10G 7G 6G 9G16
 -19304517.32349 -15026717.90047  19476717.976    19476717.074    19476726.130
       232.000         195.000
 -13962279.74449 -10563220.00746  22505835.957    22505835.591    22505846.091
       224.000         170.000
  -2917906.77449  -2259956.29147  20664494.605    20664493.937    20664502.273
       242.000         200.000
 -23448785.92049 -18254905.18047  20030186.377    20030185.181    20030193.908
       238.000         201.000
  -6605716.96549  -5128060.53545  23017221.662    23017220.803    23017238.222
       209.000         150.000
   8083355.74649   6292494.40445  23419345.746    23419343.884    23419357.025
       217.000         160.000
  -3126607.39549  -2414066.58945  24270562.946    24270562.258    24270577.317
       218.000         157.000
   -782881.68549   -595700.28947  21743130.546    21743129.353    21743139.567
       236.000         192.000
    385596.75649    302714.70245  24050366.153    24050364.751    24050377.994
       214.000         157.000
 00  5 15 17 15 59.9970000  0  9G24G30G 4G 5G10G 7G 6G 9G16
 -19330420.33649 -15046902.07547  19471788.877    19471787.915    19471796.963
       232.000         195.000
 -14084986.36149 -10658835.49946  22482485.693    22482485.283    22482495.717
       225.000         170.000
  -2871762.62449  -2223999.87747  20673275.629    20673274.928    20673283.258
       241.000         200.000
 -23524016.75249 -18313526.59947  20015870.449    20015869.230    20015877.953
       238.000         201.000
  -6731330.28649  -5225940.77345  22993317.991    22993317.165    22993334.588
       207.000         150.000
   8125355.79249   6325221.55445  23427338.384    23427336.433    23427349.522
       218.000         160.000
  -3227037.88049  -2492323.97745  24251451.541    24251450.852    24251465.934
       217.000         157.000
   -732164.00749   -556180.15747  21752781.950    21752780.712    21752790.921
       237.000         192.000
    408119.72149    320265.02745  24054652.264    24054650.798    24054663.972
       215.000         157.000
 00  5 15 17 16 29.9970000  0  9G24G30G 4G 5G10G 7G 6G 9G16
 -19355800.27149 -15066678.66447  19466959.238    19466958.297    19466967.321
       232.000         195.000
 -14207559.14549 -10754346.71146  22459160.853    22459160.430    22459170.828
       224.000         170.000
  -2825263.44649  -2187766.81747  20682124.203    20682123.487    20682131.835
       242.000         200.000
 -23598864.06549 -18371849.17947  20001627.470    20001626.250    20001634.979
       238.000         200.000
  -6856869.47649  -5323763.23945  22969428.418    22969427.662    22969445.019
       209.000         150.000
   8167400.52249   6357983.53745  23435339.612    23435337.522    23435350.506
       217.000         161.000
  -3327424.92049  -2570547.51945  24232348.424    24232347.743    24232362.815
       219.000         157.000
   -681140.14849   -516421.45347  21762491.587    21762490.332    21762500.569
       236.000         191.000
    431146.05949    338207.58345  24059034.067    24059032.588    24059045.756
       216.000         158.000
 00  5 15 17 16 59.9970000  0  9G24G30G 4G 5G10G 7G 6G 9G16
 -19380644.43949 -15086037.76647  19462231.558    19462230.606    19462239.653
       231.000         195.000
 -14329982.48749 -10849741.47846  22435864.428    22435864.004    22435874.372
       223.000         171.000
  -2778398.29749  -2151248.58647  20691042.440    20691041.694    20691050.043
       241.000         200.000
 -23673312.43849 -18429860.89047  19987460.411    19987459.201    19987467.915
       238.000         201.000
  -6982318.19249  -5421515.19845  22945556.100    22945555.346    22945572.696
       208.000         152.000
   8209503.35549   6390790.78145  23443351.595    23443349.564    23443362.579
       214.000         158.000
  -3427755.05449  -2648726.71745  24213256.131    24213255.474    24213270.520
       219.000         158.000
   -629799.52149   -476415.90547  21772261.457    21772260.222    21772270.519
       236.000         192.000
    454687.74349    356551.71745  24063513.816    24063512.429    24063525.641
       214.000         157.000
 00  5 15 17 17 29.9970000  0  9G24G30G 4G 5G10G 7G 6G 9G16
 -19404975.68549 -15104997.19147  19457601.453    19457600.536    19457609.579
       232.000         196.000
 -14452275.93249 -10945035.01046  22412592.679    22412592.288    22412602.657
       224.000         171.000
  -2731191.69949  -2114464.28947  20700025.587    20700024.876    20700033.229
       240.000         200.000
 -23747381.71849 -18487577.20447  19973365.495    19973364.304    19973372.986
       238.000         201.000
  -7107694.84849  -5519211.01245  22921697.453    22921696.750    22921714.091
       211.000         151.000
   8251642.54949   6423626.33745  23451370.207    23451368.407    23451381.583
       212.000         158.000
  -3528050.27049  -2726878.69245  24194170.480    24194169.869    24194184.870
       218.000         157.000
   -578166.73849   -436182.71947  21782086.924    21782085.702    21782096.060
       236.000         191.000
    478721.69149    375279.43345  24068087.406    24068086.008    24068099.199
       215.000         156.000
 00  5 15 17 17 59.9970000  0  9G24G30G 4G 5G10G 7G 6G 9G16
 -19428800.80949 -15123562.23847  19453067.698    19453066.798    19453075.817
       232.000         196.000
 -14574443.36149 -11040230.36146  22389344.942    22389344.556    22389354.896
       225.000         172.000
  -2683652.01449  -2077420.44547  20709072.140    20709071.420    20709079.802
       240.000         199.000
 -23821075.90649 -18545001.23847  19959341.938    19959340.773    19959349.433
       238.000         201.000
  -7233002.16049  -5616852.79845  22897852.082    22897851.365    22897868.647
       212.000         154.000
   8293812.33449   6456485.73945  23459394.736    23459393.107    23459406.358
       215.000         158.000
  -3628316.68149  -2805008.23645  24175090.296    24175089.705    24175104.671
       218.000         159.000
   -526250.54749   -395728.69147  21791966.362    21791965.140    21791975.507
       237.000         191.000
    503240.25949    394384.76845  24072753.198    24072751.786    24072764.986
       215.000         158.000
 00  5 15 17 18 29.9970000  0  9G24G30G 4G 5G10G 7G 6G 9G16
 -19452083.61249 -15141704.69247  19448637.176    19448636.239    19448645.258
       231.000         195.000
 -14696445.57949 -11135296.97946  22366128.634    22366128.263    22366138.617
       225.000         172.000
  -2635744.89849  -2040090.29047  20718188.565    20718187.886    20718196.301
       240.000         200.000
 -23894356.24649 -18602102.79647  19945397.136    19945395.983    19945404.672
       238.000         201.000
  -7358200.00649  -5714409.27745  22874027.523    22874026.820    22874044.061
       213.000         153.000
   8336049.81149   6489397.88445  23467432.438    23467430.789    23467444.049
       216.000         160.000
  -3728517.28949  -2883086.50845  24156022.668    24156022.097    24156036.997
       220.000         161.000
   -474016.47949   -355026.96947  21801906.286    21801905.065    21801915.446
       236.000         190.000
    528279.25249    413895.62345  24077518.011    24077516.579    24077529.833
       215.000         157.000
 00  5 15 17 18 59.9970000  0  9G24G30G 4G 5G10G 7G 6G 9G16
 -19474846.46249 -15159441.98747  19444305.523    19444304.613    19444313.626
       232.000         195.000
 -14818301.39949 -11230249.52246  22342940.213    22342939.846    22342950.216
       226.000         173.000
  -2587494.10449  -2002492.33147  20727370.435    20727369.752    20727378.193
       241.000         200.000
 -23967241.60149 -18658896.57647  19931527.530    19931526.368    19931535.038
       238.000         201.000
  -7483306.39349  -5811894.49845  22850220.402    22850219.687    22850236.803
       213.000         155.000
   8378333.88449   6522346.35345  23475479.112    23475477.348    23475490.601
       216.000         159.000
  -3828673.38949  -2961130.09445  24136963.464    24136962.953    24136977.790
       219.000         160.000
   -421488.75649   -314096.42047  21811902.086    21811900.866    21811911.276
       236.000         190.000
    553815.72749    433794.13445  24082377.488    24082376.062    24082389.300
       215.000         158.000
 00  5 15 17 19 29.9970000  0  9G24G30G 4G 5G10G 7G 6G 9G16
 -19497113.61849 -15176793.03147  19440068.230    19440067.314    19440076.327
       232.000         195.000
 -14940031.84049 -11325104.37246  22319775.619    22319775.275    22319785.680
       225.000         173.000
  -2538925.46449  -1964646.70647  20736612.806    20736612.108    20736620.557
       241.000         200.000
 -24039753.21049 -18715399.12447  19917729.061    19917727.871    19917736.546
       238.000         201.000
  -7608341.62249  -5909324.28045  22826426.865    22826426.071    22826443.144
       214.000         155.000
   8420641.34249   6555313.03145  23483530.180    23483528.354    23483541.571
       215.000         158.000
  -3928808.45849  -3039157.31645  24117908.194    24117907.746    24117922.577
       218.000         161.000
   -368693.69449   -272957.55947  21821948.749    21821947.531    21821957.981
       236.000         190.000
    579825.17949    454061.18945  24087326.969    24087325.506    24087338.772
       214.000         156.000
 00  5 15 17 19 59.9970000  0  9G24G30G 4G 5G10G 7G 6G 9G16
 -19518863.81349 -15193741.25047  19435929.353    19435928.404    19435937.435
       232.000         195.000
 -15061612.58549 -11419842.56746  22296639.588    22296639.206    22296649.632
       226.000         175.000
  -2490019.55849  -1926538.28247  20745919.393    20745918.663    20745927.093
       240.000         199.000
 -24111867.18749 -18771591.83347  19904006.278    19904005.065    19904013.688
       238.000         201.000
  -7733280.01549  -6006678.61045  22802651.809    22802650.991    22802667.910
       215.000         155.000
   8462994.51249   6588315.30645  23491589.829    23491588.017    23491601.252
       214.000         156.000
  -4028900.25849  -3117150.80945  24098861.226    24098860.761    24098875.605
       219.000         161.000
   -315611.69949   -231595.12447  21832050.019    21832048.806    21832059.301
       235.000         190.000
    606328.17349    474712.82445  24092370.367    24092368.920    24092382.161
       214.000         155.000
 00  5 15 17 20 29.9970000  0  9G24G30G 4G 5G10G 7G 6G 9G16
 -19540101.43349 -15210290.05147  19431887.986    19431887.046    19431896.058
       232.000         195.000
 -15183044.74549 -11514464.97746  22273531.834    22273531.426    22273541.819
       227.000         174.000
  -2440782.32049  -1888171.67147  20755289.042    20755288.273    20755296.688
       240.000         199.000
 -24183584.86749 -18827475.73347  19890358.882    19890357.651    19890366.258
       238.000         201.000
  -7858121.57049  -6103957.49345  22778895.158    22778894.253    22778911.065
       216.000         155.000
   8505390.15949   6621350.68945  23499657.501    23499655.745    23499669.047
       215.000         157.000
  -4128952.41549  -3195113.39646  24079821.898    24079821.401    24079836.172
       220.000         163.000
   -262249.25549   -190014.15447  21842204.667    21842203.450    21842213.995
       236.000         190.000
    633319.48349    495744.96445  24097506.656    24097505.255    24097518.486
       213.000         156.000
 00  5 15 17 20 59.9970000  0  9G24G30G 4G 5G10G 7G 6G 9G16
 -19560814.74749 -15226430.30647  19427946.367    19427945.446    19427954.462
       231.000         195.000
 -15304313.42249 -11608959.99846  22250455.190    22250454.763    22250465.115
       227.000         175.000
  -2391203.19049  -1849538.65447  20764723.671    20764722.922    20764731.350
       240.000         198.000
 -24254891.36249 -18883039.23447  19876789.695    19876788.472    19876797.089
       237.000         201.000
  -7982850.37849  -6201148.52145  22755159.930    22755158.988    22755175.690
       214.000         155.000
   8547841.13449   6654429.18445  23507735.806    23507734.013    23507747.384
       216.000         161.000
  -4228952.18049  -3273035.18545  24060792.534    24060792.012    24060806.775
       221.000         162.000
   -208596.16449   -148206.70047  21852414.647    21852413.403    21852423.997
       235.000         190.000
    660810.70249    517166.66345  24102738.024    24102736.630    24102749.924
       212.000         154.000
 00  5 15 17 21 29.9970000  0  9G24G30G 4G 5G10G 7G 6G 9G16
 -19581026.81149 -15242179.97547  19424100.166    19424099.221    19424108.243
       231.000         195.000
 -15425438.35349 -11703342.99546  22227405.906    22227405.443    22227415.761
       228.000         176.000
  -2341307.06349  -1810658.61847  20774218.611    20774217.880    20774226.347
       239.000         198.000
 -24325806.51549 -18938297.79347  19863295.014    19863293.780    19863302.395
       237.000         201.000
  -8107485.35549  -6298266.44245  22731442.476    22731441.596    22731458.148
       214.000         153.000
   8590325.67149   6687533.83145  23515820.573    23515818.727    23515832.130
       214.000         160.000
  -4328921.46349  -3350933.20846  24041769.008    24041768.429    24041783.158
       220.000         163.000
   -154677.35049   -106192.18947  21862675.170    21862673.939    21862684.551
       235.000         189.000
    688778.43149    538959.65645  24108060.106    24108058.730    24108072.025
       213.000         154.000
 00  5 15 17 21 59.9970000  0  9G24G30G 4G 5G10G 7G 6G 9G16
 -19600729.13149 -15257532.44347  19420350.974    19420350.018    19420359.033
       231.000         195.000
 -15546407.67849 -11797604.75546  22204386.260    22204385.740    22204396.021
       228.000         176.000
  -2291087.01149  -1771526.18147  20783775.162    20783774.465    20783782.975
       240.000         199.000
 -24396319.00149 -18993242.59447  19849876.935    19849875.686    19849884.291
       238.000         202.000
  -8232013.47849  -6395301.10345  22707745.373    22707744.523    22707760.912
       213.000         153.000
   8632853.41749   6720672.13445  23523913.518    23523911.660    23523925.066
       216.000         159.000
  -4428850.93949  -3428800.22246  24022753.015    24022752.434    24022767.105
       220.000         163.000
   -100486.10049    -63965.40347  21872987.537    21872986.300    21872996.952
       234.000         190.000
    717230.26349    561129.86845  24113474.477    24113473.051    24113486.300
       214.000         155.000
 00  5 15 17 22 29.9970000  0  9G24G30G 4G 5G10G 7G 6G 9G16
 -19619925.53949 -15272490.70047  19416698.042    19416697.091    19416706.094
       232.000         195.000
 -15667221.90149 -11891745.66446  22181396.046    22181395.555    22181405.769
       228.000         176.000
  -2240548.31249  -1732145.44447  20793392.385    20793391.705    20793400.257
       240.000         199.000
 -24466429.72049 -19047874.32547  19836535.328    19836534.082    19836542.674
       238.000         202.000
  -8356434.35749  -6492252.19045  22684068.606    22684067.784    22684084.126
       211.000         152.000
   8675421.62249   6753841.97745  23532014.028    23532012.170    23532025.698
       213.000         157.000
  -4528743.50749  -3506638.47346  24003743.929    24003743.378    24003758.067
       220.000         164.000
    -46027.96849    -21530.65847  21883350.684    21883349.442    21883360.154
       235.000         189.000
    746161.84249    583673.90945  24118980.103    24118978.629    24118991.858
       214.000         155.000
 00  5 15 17 22 59.9970000  0  9G24G30G 4G 5G10G 7G 6G 9G16
 -19638615.59049 -15287054.38147  19413141.432    19413140.485    19413149.524
       232.000         195.000
 -15787877.13749 -11985762.67046  22158436.056    22158435.572    22158445.761
       228.000         176.000
  -2189691.80449  -1692517.06847  20803070.148    20803069.435    20803078.017
       240.000         198.000
 -24536135.06249 -19102190.17947  19823270.861    19823269.604    19823278.179
       238.000         202.000
  -8480743.21749  -6589116.00345  22660413.112    22660412.344    22660428.694
       211.000         152.000
   8718032.14949   6787044.77945  23540122.581    23540120.750    23540134.391
       215.000         158.000
  -4628597.61349  -3584446.74145  23984742.168    23984741.655    23984756.320
       219.000         162.000
      8695.64249     21110.95647  21893764.382    21893763.120    21893773.867
       236.000         189.000
    775573.07249    606591.71345  24124576.926    24124575.444    24124588.666
       215.000         155.000
 00  5 15 17 23 29.9970000  0  9G24G30G 4G 5G10G 7G 6G 9G16
 -19656803.46249 -15301226.76547  19409680.400    19409679.458    19409688.487
       232.000         195.000
 -15908374.36749 -12079656.54546  22135506.118    22135505.668    22135515.836
       229.000         176.000
  -2138523.46349  -1652645.70447  20812807.255    20812806.515    20812815.114
       241.000         198.000
 -24605436.27549 -19156191.12247  19810083.300    19810082.043    19810090.618
       239.000         202.000
  -8604939.92749  -6685892.43145  22636778.924    22636778.226    22636794.574
       211.000         153.000
   8760682.07549   6820278.29845  23548238.817    23548236.967    23548250.596
       217.000         160.000
  -4728416.55449  -3662227.62546  23965747.239    23965746.627    23965761.240
       221.000         163.000
     63678.85249     63954.85547  21904227.496    21904226.198    21904236.984
       236.000         188.000
    805459.49149    629879.79945  24130264.155    24130262.689    24130275.918
       214.000         154.000
 00  5 15 17 23 59.9970000  0  9G24G30G 4G 5G10G 7G 6G 9G16
 -19674499.04249 -15315015.53647  19406313.072    19406312.121    19406321.144
       232.000         195.000
 -16028719.97449 -12173432.27146  22112605.050    22112604.623    22112614.757
       230.000         177.000
  -2087054.35349  -1612539.97647  20822601.583    20822600.830    20822609.413
       240.000         198.000
 -24674340.11449 -19209882.42847  19796971.327    19796970.083    19796978.664
       238.000         202.000
  -8729029.65549  -6782585.49945  22613165.219    22613164.507    22613180.836
       210.000         155.000
   8803362.75349   6853535.78445  23556360.982    23556359.068    23556372.678
       217.000         160.000
  -4828209.05049  -3739987.88546  23946757.312    23946756.682    23946771.279
       221.000         163.000
    118910.31249    106992.18747  21914737.831    21914736.519    21914747.331
       236.000         189.000
    835810.65949    653530.03745  24136039.852    24136038.342    24136051.591
       214.000         155.000
 00  5 15 17 24 29.9970000  0  9G24G30G 4G 5G10G 7G 6G 9G16
 -19691704.99149 -15328422.77247  19403038.911    19403037.951    19403046.968
       232.000         196.000
 -16148912.84949 -12267088.98946  22089733.081    22089732.646    22089742.758
       230.000         176.000
  -2035288.80549  -1572203.25247  20832452.312    20832451.544    20832460.124
       239.000         197.000
 -24742846.23249 -19263263.81947  19783935.075    19783933.803    19783942.372
       238.000         202.000
  -8853010.92549  -6879194.05945  22589572.193    22589571.444    22589587.768
       211.000         156.000
   8846072.78849   6886816.12445  23564488.615    23564486.711    23564500.317
       215.000         159.000
  -4927976.78149  -3817728.85446  23927772.154    23927771.462    23927786.005
       220.000         164.000
    174385.30349    150219.29647  21925294.520    21925293.180    21925304.034
       236.000         189.000
    866623.21949    677539.80345  24141903.307    24141901.788    24141915.086
       212.000         150.000
 00  5 15 17 24 59.9970000  0  9G24G30G 4G 5G10G 7G 6G 9G16
 -19708425.89949 -15341452.05747  19399857.062    19399856.086    19399865.091
       233.000         196.000
 -16268954.37549 -12360627.78346  22066889.940    22066889.461    22066899.550
       230.000         177.000
  -1983232.59149  -1531640.04647  20842358.336    20842357.567    20842366.136
       241.000         197.000
 -24810956.21849 -19316336.54047  19770974.228    19770972.924    19770981.469
       240.000         202.000
  -8976884.01249  -6975718.32345  22565999.747    22565998.970    22566015.285
       212.000         157.000
   8888808.93849   6920116.81445  23572621.159    23572619.239    23572632.918
       216.000         157.000
  -5027723.15549  -3895453.19146  23908790.992    23908790.262    23908804.788
       221.000         164.000
    230097.53649    193631.25447  21935896.373    21935895.007    21935905.879
       236.000         189.000
    897891.97049    701905.04845  24147853.605    24147852.087    24147865.342
       213.000         153.000
 00  5 15 17 25 29.9970000  0  9G24G30G 4G 5G10G 7G 6G 9G16
 -19724644.86949 -15354090.22247  19396770.740    19396769.734    19396778.741
       232.000         196.000
 -16388824.15049 -12454032.73746  22044079.481    22044078.991    22044089.033
       231.000         178.000
  -1930870.35249  -1490838.38047  20852322.583    20852321.816    20852330.369
       239.000         196.000
 -24878649.96949 -19369084.92547  19758092.555    19758091.235    19758099.786
       239.000         202.000
  -9100627.55649  -7072141.64845  22542452.011    22542451.169    22542467.457
       215.000         158.000
   8931589.31049   6953451.95245  23580762.088    23580760.180    23580773.848
       216.000         158.000
  -5127430.27849  -3973146.93446  23889817.218    23889816.552    23889831.069
       219.000         165.000
    286062.32449    237240.00947  21946546.293    21946544.885    21946555.784
       236.000         188.000
    929633.48549    726638.66345  24153893.755    24153892.337    24153905.571
       212.000         150.000
 00  5 15 17 25 59.9970000  0  9G24G30G 4G 5G10G 7G 6G 9G16
 -19740360.06249 -15366335.83847  19393780.256    19393779.238    19393788.251
       232.000         196.000
 -16508516.75149 -12547299.65246  22021302.712    22021302.222    22021312.197
       231.000         179.000
  -1878201.45349  -1449797.75847  20862345.186    20862344.419    20862352.992
       239.000         196.000
 -24945922.35349 -19421504.97647  19745291.018    19745289.737    19745298.289
       239.000         202.000
  -9224234.79349  -7168458.76645  22518930.203    22518929.324    22518945.559
       217.000         159.000
   8974417.23949   6986824.15845  23588912.146    23588910.205    23588923.915
       217.000         159.000
  -5227095.10349  -4050807.71546  23870851.511    23870850.855    23870865.374
       220.000         165.000
    342279.92849    281045.76346  21957244.278    21957242.879    21957253.795
       236.000         187.000
    961849.10549    751741.72345  24160024.242    24160022.799    24160036.069
       214.000         151.000
 00  5 15 17 26 29.9970000  0  9G24G30G 4G 5G10G 7G 6G 9G16
 -19755579.64249 -15378195.25947  19390884.088    19390883.071    19390892.048
       232.000         196.000
 -16628036.71949 -12640432.04646  21998558.762    21998558.276    21998568.247
       231.000         178.000
  -1825235.65749  -1408525.78147  20872424.292    20872423.535    20872432.116
       239.000         197.000
 -25012778.40649 -19473600.60247  19732568.786    19732567.476    19732576.015
       239.000         202.000
  -9347709.35149  -7264672.50845  22495433.661    22495432.739    22495448.919
       217.000         160.000
   9017286.00549   7020228.18845  23597070.079    23597068.074    23597081.773
       218.000         161.000
  -5326724.71949  -4128441.06446  23851892.470    23851891.846    23851906.382
       220.000         164.000
    398740.55649    325040.89146  21967988.469    21967987.087    21967998.053
       235.000         187.000
    994529.94249    777207.27745  24166243.292    24166241.799    24166255.052
       212.000         151.000
 00  5 15 17 26 59.9970000  0  9G24G30G 4G 5G10G 7G 6G 9G16
 -19770293.54649 -15389660.65247  19388084.136    19388083.115    19388092.093
       232.000         195.000
 -16747370.71349 -12733419.52846  21975850.203    21975849.710    21975859.677
       231.000         179.000
  -1771963.94049  -1367015.43247  20882561.670    20882560.879    20882569.469
       239.000         197.000
 -25079204.85749 -19525361.48047  19719928.281    19719926.966    19719935.474
       238.000         202.000
  -9471036.89749  -7360771.70045  22471965.056    22471964.149    22471980.249
       217.000         160.000
   9060206.79149   7053672.73545  23605237.898    23605235.812    23605249.528
       216.000         160.000
  -5426307.94349  -4206038.27346  23832942.365    23832941.701    23832956.208
       221.000         165.000
    455452.63649    369231.95646  21978780.550    21978779.168    21978790.157
       235.000         187.000
   1027685.69749    803042.89245  24172552.588    24172551.159    24172564.411
       211.000         149.000
 00  5 15 17 27 29.9970000  0  9G24G30G 4G 5G10G 7G 6G 9G16
 -19784481.48149 -15400716.19147  19385384.272    19385383.249    19385392.234
       232.000         196.000
 -16866494.64449 -12826243.32346  21953181.592    21953181.135    21953191.074
       231.000         179.000
  -1718367.65649  -1325252.17747  20892760.820    20892759.991    20892768.602
       240.000         197.000
 -25145178.31149 -19576769.37147  19707373.944    19707372.631    19707381.149
       238.000         202.000
  -9594192.80049  -7456737.14645  22448529.175    22448528.238    22448544.254
       217.000         160.000
   9103201.72149   7087175.05945  23613419.649    23613417.576    23613431.393
       215.000         158.000
  -5525823.25649  -4283582.55846  23814005.163    23814004.499    23814019.001
       221.000         165.000
    512434.48749    413633.22346  21989623.939    21989622.575    21989633.608
       234.000         187.000
   1061336.00849    829263.88845  24178956.042    24178954.597    24178967.810
       212.000         150.000
 00  5 15 17 27 59.9970000  0  9G24G30G 4G 5G10G 7G 6G 9G16
 -19798173.61249 -15411385.39847  19382778.732    19382777.729    19382786.726
       232.000         196.000
 -16985435.01749 -12918924.08346  21930547.886    21930547.463    21930557.409
       232.000         180.000
  -1664477.93249  -1283260.26447  20903015.760    20903014.935    20903023.560
       239.000         196.000
 -25210725.82849 -19627845.36447  19694900.619    19694899.340    19694907.889
       239.000         202.000
  -9717202.36949  -7552588.57045  22425121.137    22425120.184    22425136.086
       216.000         160.000
   9146241.80549   7120712.56945  23621609.894    23621607.911    23621621.828
       215.000         159.000
  -5625299.63349  -4361096.50746  23795075.400    23795074.717    23795089.179
       221.000         165.000
    569654.60049    458220.15746  22000512.655    22000511.316    22000522.401
       234.000         187.000
   1095450.49249    855846.55345  24185447.787    24185446.417    24185459.597
       212.000         149.000
 00  5 15 17 28 29.9970000  0  9G24G30G 4G 5G10G 7G 6G 9G16
 -19811403.08249 -15421694.09047  19380261.218    19380260.248    19380269.254
       232.000         196.000
 -17104221.40249 -13011484.85046  21907943.529    21907943.119    21907953.045
       232.000         180.000
  -1610329.34849  -1241066.64847  20913319.930    20913319.125    20913327.774
       239.000         196.000
 -25275877.23649 -19678612.70447  19682502.709    19682501.448    19682509.973
       239.000         203.000
  -9840094.12849  -7648348.18145  22401735.467    22401734.511    22401750.328
       220.000         159.000
   9189295.43149   7154260.62545  23629802.885    23629800.900    23629814.850
       217.000         161.000
  -5724768.78549  -4438604.82946  23776146.962    23776146.283    23776160.755
       220.000         165.000
    627078.33549    502965.76246  22011440.138    22011438.805    22011449.953
       235.000         186.000
   1129995.18449    882764.46845  24192021.490    24192020.086    24192033.256
       213.000         150.000
 00  5 15 17 28 59.9970000  0  9G24G30G 4G 5G10G 7G 6G 9G16
 -19824150.40049 -15431627.08447  19377835.517    19377834.525    19377843.527
       233.000         196.000
 -17222830.51349 -13103907.50146  21885372.904    21885372.518    21885382.458
       231.000         181.000
  -1555903.64849  -1198657.10047  20923676.836    20923676.046    20923684.707
       238.000         196.000
 -25340610.03749 -19729053.86247  19670184.483    19670183.219    19670191.725
       239.000         202.000
  -9962844.32649  -7743997.48945  22378376.808    22378375.786    22378391.476
       216.000         159.000
   9232383.41149   7187835.46945  23638002.513    23638000.474    23638014.430
       218.000         160.000
  -5824210.23149  -4516091.57846  23757223.781    23757223.090    23757237.554
       220.000         163.000
    684723.27549    547883.72546  22022409.765    22022408.408    22022419.566
       235.000         186.000
   1164989.20049    910032.49345  24198680.654    24198679.256    24198692.416
       213.000         150.000
 00  5 15 17 29 29.9970000  0  9G24G30G 4G 5G10G 7G 6G 9G16
 -19836405.16449 -15441176.26947  19375503.532    19375502.531    19375511.519
       232.000         196.000
 -17341248.45649 -13196181.16446  21862838.693    21862838.301    21862848.260
       232.000         181.000
  -1501191.72749  -1156024.52147  20934088.191    20934087.424    20934096.104
       238.000         196.000
 -25404910.75849 -19779158.32147  19657948.463    19657947.199    19657955.704
       238.000         202.000
 -10085437.48649  -7839524.42445  22355047.940    22355046.911    22355062.534
       216.000         159.000
   9275517.66849   7221446.36545  23646210.955    23646208.856    23646222.808
       215.000         159.000
  -5923612.25249  -4593547.60246  23738308.059    23738307.407    23738321.849
       220.000         164.000
    742598.61349    592981.22746  22033423.254    22033421.881    22033433.037
       235.000         186.000
   1200442.34049    937658.28145  24205427.299    24205425.803    24205439.000
       214.000         153.000
 00  5 15 17 29 59.9970000  0  9G24G30G 4G 5G10G 7G 6G 9G16
 -19848154.75349 -15450331.81147  19373267.609    19373266.646    19373275.666
       232.000         196.000
 -17459458.73449 -13288293.01346  21840343.982    21840343.587    21840353.579
       231.000         181.000
  -1446182.37949  -1113160.18747  20944556.136    20944555.393    20944564.098
       238.000         195.000
 -25468763.70249 -19828913.88047  19645797.633    19645796.389    19645804.911
       238.000         202.000
 -10207856.48849  -7934915.64545  22331752.221    22331751.193    22331766.768
       217.000         161.000
   9318712.45649   7255104.40645  23654430.721    23654428.707    23654442.680
       213.000         158.000
  -6022960.96449  -4670962.07146  23719402.518    23719401.892    23719416.300
       221.000         165.000
    800715.38649    638266.85946  22044482.654    22044481.273    22044492.453
       234.000         185.000
   1236366.70349    965651.24845  24212263.556    24212262.032    24212275.267
       214.000         151.000
 00  5 15 17 30 29.9970000  0  9G24G30G 4G 5G10G 7G 6G 9G16
 -19859430.96149 -15459118.48147  19371121.800    19371120.838    19371129.882
       232.000         196.000
 -17577489.58249 -13380265.04546  21817883.442    21817883.014    21817893.008
       231.000         181.000
  -1390908.30249  -1070089.56647  20955074.474    20955073.739    20955082.484
       239.000         195.000
 -25532197.38749 -19878342.73247  19633726.635    19633725.360    19633733.893
       238.000         203.000
 -10330128.66649  -8030192.45745  22308484.459    22308483.407    22308498.932
       218.000         162.000
   9361937.43849   7288785.97945  23662656.208    23662654.246    23662668.340
       215.000         159.000
  -6122286.91949  -4748358.81246  23700501.381    23700500.727    23700515.063
       220.000         164.000
    859040.16649    683714.56546  22055581.581    22055580.216    22055591.458
       233.000         185.000
   1272730.00849    993986.26245  24219183.229    24219181.732    24219195.002
       212.000         150.000
 00  5 15 17 30 59.9970000  0  9G24G30G 4G 5G10G 7G 6G 9G16
 -19870227.09249 -15467531.08347  19369067.350    19369066.403    19369075.448
       232.000         196.000
 -17695330.58249 -13472089.16146  21795459.003    21795458.564    21795468.558
       232.000         182.000
  -1335363.93249  -1026808.33747  20965644.304    20965643.544    20965652.310
       238.000         195.000
 -25595201.87449 -19927437.15447  19621737.269    19621736.014    19621744.540
       239.000         202.000
 -10452242.80749  -8125346.14346  22285246.775    22285245.693    22285261.144
       221.000         163.000
   9405200.79749   7322497.45945  23670889.136    23670887.113    23670901.332
       216.000         160.000
  -6221582.11449  -4825731.58646  23681606.058    23681605.381    23681619.671
       221.000         163.000
    917578.06149    729328.32446  22066721.043    22066719.705    22066731.009
       234.000         185.000
   1309538.35549   1022668.05145  24226187.630    24226186.152    24226199.430
       212.000         149.000
 00  5 15 17 31 29.9970000  0  8G24G30G 4G 5G10G 7G 6G 9
 -19880548.67349 -15475573.89147  19367103.235    19367102.296    19367111.336
       232.000         196.000
 -17812983.43749 -13563766.67346  21773070.368    21773069.931    21773079.906
       232.000         182.000
  -1279556.32749   -983321.97647  20976264.236    20976263.443    20976272.226
       238.000         195.000
 -25657779.41549 -19976198.87947  19609829.170    19609827.910    19609836.433
       238.000         202.000
 -10574199.58649  -8220377.19146  22262039.065    22262037.936    22262053.275
       220.000         165.000
   9448498.55349   7356235.74945  23679128.640    23679126.622    23679140.864
       216.000         159.000
  -6320850.63549  -4903083.57845  23662715.773    23662715.163    23662729.366
       221.000         162.000
    976321.91649    775102.57946  22077899.711    22077898.387    22077909.764
       233.000         184.000
 00  5 15 17 31 59.9970000  0  8G24G30G 4G 5G10G 7G 6G 9
 -19890399.87849 -15483250.17647  19365228.633    19365227.682    19365236.734
       233.000         196.000
 -17930448.67049 -13655297.97746  21750717.425    21750717.008    21750726.922
       233.000         183.000
  -1223490.79449   -939634.64347  20986933.279    20986932.443    20986941.231
       239.000         195.000
 -25719931.02849 -20024628.71647  19598002.112    19598000.872    19598009.384
       238.000         202.000
 -10695998.27349  -8315285.05346  22238861.396    22238860.266    22238875.579
       221.000         166.000
   9491828.06449   7389998.77845  23687374.148    23687372.142    23687386.405
       215.000         159.000
  -6420095.63949  -4980417.23945  23643830.034    23643829.365    23643843.516
       221.000         162.000
   1035266.21649    821033.01946  22089116.539    22089115.233    22089126.662
       233.000         183.000
 00  5 15 17 32 29.9970000  0  8G24G30G 4G 5G10G 7G 6G 9
 -19899764.97749 -15490547.67747  19363446.518    19363445.562    19363454.617
       232.000         196.000
 -18047706.38649 -13746667.58146  21728403.982    21728403.562    21728413.427
       233.000         183.000
  -1167152.57349   -895734.82447  20997654.193    20997653.342    20997662.139
       238.000         195.000
 -25781637.95249 -20072712.04047  19586259.681    19586258.431    19586266.974
       238.000         203.000
 -10817618.48649  -8410053.85246  22215717.681    22215716.573    22215731.832
       222.000         168.000
   9535206.72149   7423800.09445  23695629.010    23695627.001    23695641.315
       213.000         158.000
  -6519299.93649  -5057719.17745  23624952.034    23624951.352    23624965.437
       221.000         162.000
   1094425.22149    867130.76446  22100374.259    22100372.941    22100384.405
       233.000         183.000
 00  5 15 17 32 59.9970000  0  8G24G30G 4G 5G10G 7G 6G 9
 -19908663.49949 -15497481.61347  19361753.213    19361752.253    19361761.312
       232.000         197.000
 -18164772.40149 -13837887.80346  21706127.029    21706126.627    21706136.419
       233.000         184.000
  -1110562.26749   -851638.57547  21008423.029    21008422.182    21008431.027
       237.000         195.000
 -25842916.36649 -20120461.46247  19574598.799    19574597.549    19574606.081
       239.000         202.000
 -10939075.04949  -8504695.10946  22192605.132    22192604.036    22192619.230
       222.000         168.000
   9578616.62649   7457625.75245  23703889.688    23703887.782    23703902.125
       213.000         157.000
  -6618481.43949  -5135003.34945  23606078.314    23606077.666    23606091.706
       219.000         161.000
   1153777.92149    913379.42646  22111668.823    22111667.515    22111678.999
       232.000         183.000
 00  5 15 17 33 29.9970000  0  8G24G30G 4G 5G10G 7G 6G 9
 -19917081.35249 -15504040.99947  19360151.359    19360150.409    19360159.458
       233.000         197.000
 -18281629.08149 -13928944.90846  21683889.906    21683889.511    21683899.250
       233.000         184.000
  -1053707.08949   -807335.93847  21019242.254    21019241.426    21019250.308
       237.000         195.000
 -25903749.25249 -20167863.71447  19563022.696    19563021.436    19563029.951
       238.000         203.000
 -11060349.28549  -8599194.31246  22169527.236    22169526.171    22169541.348
       221.000         168.000
   9622073.34249   7491487.88345  23712159.292    23712157.448    23712171.884
       214.000         159.000
  -6717625.04549  -5212257.98945  23587211.780    23587211.149    23587225.226
       219.000         162.000
   1213336.72849    959788.70246  22123002.592    22123001.292    22123012.838
       231.000         183.000
 00  5 15 17 33 59.9970000  0  8G24G30G 4G 5G10G 7G 6G 9
 -19925026.06649 -15510231.70047  19358639.516    19358638.592    19358647.659
       233.000         197.000
 -18398279.96949 -14019841.66146  21661691.969    21661691.569    21661701.262
       233.000         184.000
   -996595.56249   -762833.54047  21030110.213    21030109.441    21030118.393
       237.000         194.000
 -25964140.56349 -20214921.88447  19551530.562    19551529.351    19551537.868
       238.000         202.000
 -11181443.76749  -8693553.43246  22146483.552    22146482.497    22146497.652
       222.000         167.000
   9665571.15849   7525382.05245  23720436.881    23720434.962    23720449.491
       216.000         160.000
  -6816736.65949  -5289487.69545  23568351.301    23568350.696    23568364.768
       220.000         162.000
   1273092.95949   1006351.80646  22134373.913    22134372.653    22134384.225
       231.000         182.000
 00  5 15 17 34 29.9970000  0  8G24G30G 4G 5G10G 7G 6G 9
 -19932510.99549 -15516064.12947  19357215.199    19357214.270    19357223.335
       233.000         197.000
 -18514734.51949 -14110585.41446  21639531.408    21639531.005    21639540.663
       234.000         185.000
   -939241.94649   -718142.49647  21041024.261    21041023.515    21041032.527
       237.000         194.000
 -26024100.41149 -20261643.85247  19540120.573    19540119.371    19540127.910
       238.000         202.000
 -11302367.14349  -8787779.23146  22123472.448    22123471.420    22123486.489
       221.000         167.000
   9709098.27749   7559299.04645  23728720.038    23728718.117    23728732.653
       216.000         160.000
  -6915828.37849  -5366701.90545  23549494.682    23549494.073    23549508.147
       212.000         155.000
   1333031.71249   1053057.12746  22145780.022    22145778.739    22145790.351
       231.000         182.000
 00  5 15 17 34 59.9970000  0  8G24G30G 4G 5G10G 7G 6G 9
 -19939492.51749 -15521504.29247  19355886.655    19355885.757    19355894.804
       234.000         197.000
 -18630945.18849 -14201139.13546  21617417.226    21617416.803    21617426.468
       234.000         185.000
   -881603.97749   -673229.89047  21051992.417    21051991.707    21052000.754
       237.000         194.000
 -26083581.97949 -20307993.12947  19528801.609    19528800.410    19528808.976
       238.000         203.000
 -11423071.28149  -8881834.19646  22100503.040    22100502.034    22100517.057
       221.000         168.000
   9752699.87249   7593274.07745  23737017.380    23737015.425    23737029.986
       216.000         160.000
  -7014855.21049  -5443865.55045  23530650.375    23530649.814    23530663.868
       221.000         162.000
   1393194.76049   1099937.22846  22157228.839    22157227.549    22157239.180
       231.000         182.000
 00  5 15 17 35 29.9970000  0  8G24G30G 4G 5G10G 7G 6G 9
 -19945981.85249 -15526560.93147  19354651.773    19354650.879    19354659.945
       233.000         197.000
 -18746918.92849 -14291508.23646  21595348.078    21595347.697    21595357.378
       233.000         185.000
   -823693.73349   -628105.10947  21063012.425    21063011.720    21063020.790
       237.000         194.000
 -26142593.17149 -20353975.88247  19517572.158    19517570.956    19517579.524
       238.000         203.000
 -11543562.34549  -8975723.12246  22077574.254    22077573.188    22077588.182
       223.000         167.000
   9796366.50849   7627299.80045  23745326.985    23745325.068    23745339.695
       216.000         160.000
  -7113826.89649  -5520986.23745  23511816.633    23511816.061    23511830.107
       220.000         162.000
   1453569.91649   1146982.59846  22168718.034    22168716.719    22168728.362
       232.000         181.000
 00  5 15 17 35 59.9970000  0  8G24G30G 4G 5G10G 7G 6G 9
 -19952015.64149 -15531262.59847  19353503.591    19353502.705    19353511.774
       233.000         197.000
 -18862688.74549 -14381718.43446  21573317.760    21573317.377    21573327.101
       233.000         186.000
   -765549.04349   -582797.65747  21074077.090    21074076.352    21074085.431
       237.000         194.000
 -26201167.73649 -20399618.40447  19506425.807    19506424.615    19506433.148
       238.000         203.000
 -11663872.20149  -9069470.86746  22054679.872    22054678.859    22054693.759
       222.000         168.000
   9840063.25049   7661348.97545  23753642.351    23753640.433    23753655.135
       215.000         159.000
  -7212778.66549  -5598091.41746  23492986.643    23492986.081    23493000.091
       219.000         163.000
   1514119.03849   1194163.53546  22180240.324    22180238.993    22180250.664
       231.000         180.000
 00  5 15 17 36 29.9960000  0  8G24G30G 4G 5G10G 7G 6G 9
 -19957597.37649 -15535612.02047  19352441.401    19352440.536    19352449.615
       233.000         198.000
 -18978250.60349 -14471766.58646  21551326.972    21551326.634    21551336.394
       233.000         187.000
   -707176.47849   -537312.63447  21085185.067    21085184.348    21085193.446
       236.000         193.000
 -26259304.12649 -20444919.49147  19495362.815    19495361.634    19495370.158
       238.000         202.000
 -11783995.51549  -9163073.25346  22031820.964    22031819.966    22031834.833
       224.000         169.000
   9883786.73549   7695418.99245  23761962.786    23761960.903    23761975.692
       215.000         160.000
  -7311709.25349  -5675180.06945  23474160.703    23474160.155    23474174.117
       220.000         162.000
   1574835.05249   1241474.51246  22191794.378    22191793.030    22191804.719
       231.000         181.000
 00  5 15 17 36 59.9960000  0  8G24G30G 4G 5G10G 7G 6G 9
 -19962710.98449 -15539596.66347  19351468.315    19351467.451    19351476.551
       233.000         197.000
 -19093591.56249 -14561642.60346  21529378.289    21529377.943    21529387.716
       234.000         186.000
   -648556.49049   -491634.81547  21096340.167    21096339.434    21096348.535
       236.000         193.000
 -26316986.31849 -20489866.65647  19484386.244    19484385.078    19484393.615
       238.000         203.000
 -11903919.20749  -9256520.10446  22009000.089    22008999.104    22009013.881
       224.000         169.000
   9927557.92949   7729526.18445  23770292.347    23770290.454    23770305.329
       216.000         161.000
  -7410607.34149  -5752243.40645  23455340.953    23455340.412    23455354.326
       221.000         162.000
   1635737.10049   1288930.44246  22203383.805    22203382.437    22203394.177
       229.000         181.000
 00  5 15 17 37 29.9960000  0  8G24G30G 4G 5G10G 7G 6G 9
 -19967374.58949 -15543230.66047  19350580.852    19350580.012    19350589.091
       233.000         197.000
 -19208722.43449 -14651354.91946  21507469.572    21507469.233    21507478.999
       234.000         187.000
   -589710.46849   -445780.86647  21107538.298    21107537.540    21107546.655
       236.000         193.000
 -26374227.54449 -20534470.22147  19473493.611    19473492.425    19473500.975
       238.000         203.000
 -12023652.72249  -9349818.75146  21986215.391    21986214.419    21986229.121
       222.000         170.000
   9971358.90149   7763656.56945  23778627.600    23778625.670    23778640.606
       216.000         160.000
  -7509486.38349  -5829291.90545  23436524.784    23436524.252    23436538.170
       219.000         161.000
   1696803.63449   1336514.53346  22215004.480    22215003.137    22215014.961
       230.000         181.000
 00  5 15 17 37 59.9960000  0  8G24G30G 4G 5G10G 7G 6G 9
 -19971557.98749 -15546490.45947  19349784.792    19349783.940    19349793.032
       233.000         197.000
 -19323608.64549 -14740876.58246  21485607.438    21485607.077    21485616.829
       234.000         187.000
   -530609.17249   -399727.99547  21118785.000    21118784.225    21118793.356
       236.000         193.000
 -26430994.39649 -20578704.13847  19462691.234    19462690.070    19462698.624
       238.000         203.000
 -12143160.92249  -9442941.84746  21963473.528    21963472.568    21963487.246
       222.000         170.000
  10015221.53349   7797835.01045  23786974.522    23786972.624    23786987.673
       216.000         160.000
  -7608314.78349  -5906300.93045  23417718.237    23417717.730    23417731.655
       220.000         161.000
   1758063.34749   1384249.16046  22226661.929    22226660.618    22226672.513
       229.000         181.000
 00  5 15 17 38 29.9960000  0  8G24G30G 4G 5G10G 7G 6G 9
 -19975280.14949 -15549390.86747  19349076.496    19349075.657    19349084.761
       233.000         198.000
 -19438265.51549 -14830219.55346  21463788.897    21463788.565    21463798.285
       235.000         187.000
   -471272.55749   -353491.76947  21130076.459    21130075.696    21130084.816
       235.000         193.000
 -26487302.80249 -20622580.83347  19451976.108    19451974.958    19451983.488
       238.000         203.000
 -12262457.61649  -9535900.11746  21940771.901    21940771.003    21940785.647
       221.000         170.000
  10059128.46549   7832047.95845  23795329.893    23795327.971    23795343.136
       215.000         160.000
  -7707110.05049  -5983284.15046  23398918.084    23398917.535    23398931.411
       221.000         163.000
   1819495.57849   1432118.21246  22238352.202    22238350.912    22238362.895
       229.000         180.000
 00  5 15 17 38 59.9960000  0  8G24G30G 4G 5G10G 7G 6G 9
 -19978556.92949 -15551944.21347  19348452.967    19348452.125    19348461.225
       234.000         197.000
 -19552704.50949 -14919392.73747  21442011.826    21442011.518    21442021.181
       234.000         188.000
   -411717.24849   -307085.12447  21141409.503    21141408.759    21141417.908
       236.000         193.000
 -26543165.32649 -20666110.08247  19441345.794    19441344.655    19441353.221
       238.000         203.000
 -12381554.13249  -9628702.40146  21918108.388    21918107.504    21918122.167
       223.000         170.000
  10103065.81649   7866284.62345  23803691.125    23803689.181    23803704.375
       215.000         160.000
  -7805886.55249  -6060252.75246  23380121.514    23380120.922    23380134.762
       219.000         163.000
   1881083.45649   1480108.55246  22250072.135    22250070.855    22250082.889
       229.000         180.000
 00  5 15 17 39 29.9960000  0  8G24G30G 4G 5G10G 7G 6G 9
 -19981372.74649 -15554138.37547  19347917.173    19347916.316    19347925.398
       234.000         198.000
 -19666906.19049 -15008381.01447  21420279.941    21420279.616    21420289.279
       235.000         188.000
   -351928.78649   -260496.80947  21152786.868    21152786.174    21152795.391
       235.000         192.000
 -26598563.13549 -20709277.21747  19430803.943    19430802.809    19430811.383
       238.000         202.000
 -12500430.00949  -9721332.77646  21895486.885    21895486.017    21895500.652
       223.000         170.000
  10147050.80249   7900558.39145  23812061.440    23812059.497    23812074.652
       217.000         160.000
  -7904627.19549  -6137193.39745  23361331.794    23361331.178    23361344.944
       219.000         162.000
   1942841.43949   1528231.42846  22261824.468    22261823.167    22261835.249
       229.000         179.000
 00  5 15 17 39 59.9960000  0  8G24G30G 4G 5G10G 7G 6G 9
 -19983727.64449 -15555973.37947  19347469.043    19347468.186    19347477.293
       234.000         197.000
 -19780866.42149 -15097181.15047  21398593.992    21398593.658    21398603.314
       236.000         189.000
   -291907.78449   -213727.28047  21164208.528    21164207.827    21164217.114
       235.000         192.000
 -26653492.90449 -20752079.64547  19420351.187    19420350.040    19420358.614
       238.000         203.000
 -12619080.31149  -9813787.37346  21872908.325    21872907.450    21872922.086
       222.000         171.000
  10191085.41349   7934870.81945  23820441.157    23820439.204    23820454.396
       215.000         160.000
  -8003330.17749  -6214104.67646  23342549.180    23342548.550    23342562.282
       218.000         163.000
   2004768.10549   1576485.74546  22273608.883    22273607.553    22273619.703
       228.000         179.000
 00  5 15 17 40 29.9960000  0  8G24G30G 4G 5G10G 7G 6G 9
 -19985616.87949 -15557445.53147  19347109.568    19347108.695    19347117.803
       234.000         198.000
 -19894576.21349 -15185786.13847  21376955.703    21376955.366    21376965.029
       236.000         189.000
   -231650.51349   -166773.65247  21175675.157    21175674.451    21175683.799
       235.000         191.000
 -26707946.79949 -20794511.26947  19409988.994    19409987.810    19409996.387
       238.000         202.000
 -12737495.21949  -9906058.56846  21850374.613    21850373.702    21850388.291
       224.000         171.000
  10235176.27849   7969227.07145  23828831.533    23828829.558    23828844.842
       216.000         158.000
  -8101989.21249  -6290981.70945  23323774.901    23323774.294    23323787.984
       218.000         162.000
   2066866.99649   1624874.25846  22285426.097    22285424.732    22285436.937
       229.000         178.000
 00  5 15 17 40 59.9960000  0  8G24G30G 4G 5G10G 7G 6G 9
 -19987053.40049 -15558564.91847  19346836.279    19346835.361    19346844.446
       234.000         198.000
 -20008044.63149 -15274203.03847  21355363.374    21355363.013    21355372.689
       236.000         190.000
   -171170.75549   -119646.65547  21187184.141    21187183.416    21187192.826
       234.000         191.000
 -26761934.27649 -20836579.44747  19399715.566    19399714.348    19399722.926
       238.000         202.000
 -12855682.82649  -9998152.64846  21827884.221    21827883.233    21827897.765
       224.000         172.000
  10279312.06149   8003618.33545  23837230.472    23837228.495    23837243.859
       215.000         158.000
  -8200615.51949  -6367833.26045  23305006.835    23305006.265    23305019.902
       217.000         162.000
   2129123.82649   1673385.84046  22297273.406    22297271.999    22297284.225
       229.000         179.000
 00  5 15 17 41 29.9960000  0  8G24G30G 4G 5G10G 7G 6G 9
 -19988038.11049 -15559332.24347  19346648.970    19346648.012    19346657.080
       235.000         198.000
 -20121268.27849 -15362429.21547  21333817.623    21333817.227    21333826.932
       235.000         190.000
   -110470.40149    -72347.77047  21198735.131    21198734.372    21198743.818
       234.000         191.000
 -26815453.15249 -20878282.47847  19389531.315    19389530.076    19389538.632
       238.000         203.000
 -12973638.94549 -10090066.36346  21805437.891    21805436.828    21805451.268
       224.000         174.000
  10323493.72449   8038045.35845  23845638.148    23845636.190    23845651.576
       216.000         158.000
  -8299208.50849  -6444658.84045  23286245.102    23286244.548    23286258.156
       217.000         161.000
   2191536.40149   1722018.78046  22309150.376    22309148.909    22309161.149
       228.000         179.000
 00  5 15 17 41 59.9960000  0  8G24G30G 4G 5G10G 7G 6G 9
 -19988577.81349 -15559752.80547  19346546.307    19346545.331    19346554.388
       235.000         199.000
 -20234249.80749 -15450466.72347  21312317.916    21312317.513    21312327.225
       236.000         190.000
    -49556.88649    -24882.77847  21210326.644    21210325.899    21210335.356
       234.000         191.000
 -26868506.83549 -20919623.02847  19379435.566    19379434.313    19379442.863
       238.000         202.000
 -13091365.26449 -10181801.00446  21783035.237    21783034.164    21783048.518
       225.000         173.000
  10367716.41649   8072504.34245  23854053.696    23854051.690    23854067.109
       216.000         158.000
  -8397773.42849  -6521462.55645  23267488.751    23267488.186    23267501.715
       218.000         162.000
   2254096.66349   1770766.80546  22321055.372    22321053.898    22321066.173
       229.000         178.000
 00  5 15 17 42 29.9960000  0  8G24G30G 4G 5G10G 7G 6G 9
 -19988662.05949 -15559818.47747  19346530.262    19346529.292    19346538.373
       234.000         199.000
 -20346974.81249 -15538304.34347  21290867.004    21290866.618    21290876.319
       236.000         190.000
     11579.47249     22755.85547  21221960.590    21221959.836    21221969.305
       234.000         191.000
 -26921081.86349 -20960590.60247  19369430.848    19369429.626    19369438.186
       237.000         202.000
 -13208846.39449 -10273344.59646  21760679.198    21760678.121    21760692.445
       224.000         173.000
  10411992.31449   8107004.81445  23862479.241    23862477.274    23862492.777
       215.000         157.000
  -8496298.16949  -6598234.96745  23248739.977    23248739.455    23248752.927
       218.000         162.000
   2316813.87449   1819637.12146  22332990.180    22332988.729    22333001.107
       228.000         178.000
 00  5 15 17 42 59.9960000  0  8G24G30G 4G 5G10G 7G 6G 9
 -19988299.35149 -15559535.86747  19346599.282    19346598.343    19346607.411
       235.000         199.000
 -20459447.45749 -15625945.31447  21269464.125    21269463.753    21269473.425
       236.000         190.000
     72929.31849     70560.84847  21233635.164    21233634.403    21233643.870
       235.000         191.000
 -26973183.32349 -21001189.16447  19359516.228    19359515.041    19359523.619
       237.000         203.000
 -13326086.15249 -10364700.10646  21738369.079    21738368.026    21738382.302
       225.000         173.000
  10456314.77649   8141541.54645  23870913.613    23870911.732    23870927.289
       214.000         157.000
  -8594789.51049  -6674981.35045  23229997.675    23229997.100    23230010.491
       219.000         162.000
   2379678.15349   1868622.03646  22344953.013    22344951.570    22344964.028
       228.000         177.000
 00  5 15 17 43 29.9960000  0  8G24G30G 4G 5G10G 7G 6G 9
 -19987494.27849 -15558908.56247  19346752.492    19346751.550    19346760.620
       235.000         198.000
 -20571668.17049 -15713389.98547  21248109.227    21248108.846    21248118.471
       236.000         191.000
    134487.30449    118528.01847  21245349.329    21245348.580    21245358.042
       234.000         191.000
 -27024812.46649 -21041419.69147  19349691.545    19349690.360    19349698.933
       237.000         202.000
 -13443084.01549 -10455867.13246  21716104.994    21716103.937    21716118.182
       224.000         174.000
  10500681.26549   8176112.56945  23879356.419    23879354.549    23879370.207
       215.000         157.000
  -8693250.29149  -6751703.93545  23211261.141    23211260.580    23211273.900
       219.000         162.000
   2442683.94749   1917717.22846  22356942.700    22356941.325    22356953.867
       227.000         176.000
 00  5 15 17 43 59.9960000  0  8G24G30G 4G 5G10G 7G 6G 9
 -19986242.38149 -15557933.08047  19346990.731    19346989.805    19346998.864
       235.000         199.000
 -20683628.38149 -15800631.66647  21226803.930    21226803.500    21226813.092
       237.000         191.000
    196256.94549    166660.13047  21257103.788    21257103.026    21257112.491
       234.000         190.000
 -27075961.90349 -21081276.41547  19339958.166    19339956.970    19339965.531
       237.000         203.000
 -13559830.72049 -10546838.44746  21693888.654    21693887.643    21693901.871
       224.000         175.000
  10545098.06549   8210722.80845  23887808.890    23887806.987    23887822.689
       216.000         158.000
  -8791674.59349  -6828398.09246  23192531.547    23192530.973    23192544.265
       218.000         164.000
   2505834.46449   1966925.18946  22368959.956    22368958.624    22368971.258
       227.000         175.000
 00  5 15 17 44 29.9960000  0  8G24G30G 4G 5G10G 7G 6G 9
 -19984540.83449 -15556607.23247  19347314.525    19347313.622    19347322.674
       235.000         199.000
 -20795320.74049 -15887664.63547  21205549.552    21205549.141    21205558.681
       237.000         192.000
    258240.72649    214959.08847  21268898.946    21268898.227    21268907.677
       234.000         190.000
 -27126625.62949 -21120754.67447  19330317.180    19330316.000    19330324.562
       237.000         202.000
 -13676318.09949 -10637607.69646  21671721.703    21671720.714    21671734.909
       226.000         176.000
  10589570.04849   8245376.03845  23896271.847    23896269.921    23896285.696
       215.000         157.000
  -8890057.85549  -6905060.25845  23173809.724    23173809.158    23173822.455
       218.000         162.000
   2569131.38949   2016247.22946  22381005.098    22381003.781    22381016.488
       226.000         175.000
 00  5 15 17 44 59.9960000  0  8G24G30G 4G 5G10G 7G 6G 9
 -19982404.20149 -15554942.35047  19347721.107    19347720.227    19347729.285
       235.000         199.000
 -20906755.74949 -15974497.07747  21184344.133    21184343.743    21184353.253
       237.000         192.000
    320423.16749    263412.85847  21280731.883    21280731.213    21280740.671
       233.000         189.000
 -27176814.72449 -21159863.08847  19320766.481    19320765.342    19320773.910
       237.000         203.000
 -13792555.66249 -10728182.29146  21649602.311    21649601.315    21649615.490
       226.000         176.000
  10634084.61149   8280062.46845  23904742.897    23904740.945    23904756.781
       216.000         156.000
  -8988412.56549  -6981700.17545  23155093.347    23155092.821    23155106.092
       218.000         161.000
   2632558.94049   2065671.06246  22393075.054    22393073.788    22393086.574
       226.000         174.000
 00  5 15 17 45 29.9960000  0  8G24G30G 4G 5G10G 7G 6G 9
 -19979828.43049 -15552935.29047  19348211.263    19348210.399    19348219.465
       235.000         199.000
 -21017925.40649 -16061122.75147  21163189.256    21163188.843    21163198.301
       238.000         192.000
    382807.50249    312023.94647  21292603.239    21292602.604    21292612.089
       233.000         189.000
 -27226522.01349 -21198596.06847  19311307.515    19311306.376    19311314.944
       237.000         202.000
 -13908534.70549 -10818555.44246  21627532.161    21627531.135    21627545.257
       225.000         175.000
  10678647.28649   8314786.35345  23913223.082    23913221.108    23913237.024
       214.000         155.000
  -9086733.33949  -7058313.65245  23136383.464    23136382.928    23136396.180
       218.000         162.000
   2696119.82149   2115198.77046  22405170.404    22405169.169    22405182.043
       225.000         174.000
 00  5 15 17 45 59.9960000  0  8G24G30G 4G 5G10G 7G 6G 9
 -19976825.90149 -15550595.68647  19348782.674    19348781.793    19348790.828
       236.000         199.000
 -21128837.42249 -16147547.64947  21142083.389    21142082.981    21142092.398
       237.000         192.000
    445380.69649    360782.19247  21304510.571    21304509.941    21304519.453
       233.000         189.000
 -27275756.65049 -21236960.75347  19301938.518    19301937.345    19301945.931
       237.000         202.000
 -14024262.28849 -10908732.66246  21605509.844    21605508.820    21605522.854
       226.000         174.000
  10723248.05449   8349539.92945  23921710.513    23921708.557    23921724.473
       214.000         156.000
  -9185030.67549  -7134908.86045  23117678.000    23117677.501    23117690.718
       217.000         161.000
   2759800.66749   2164819.96446  22417288.675    22417287.384    22417300.334
       226.000         174.000
 00  5 15 17 46 29.9960000  0  8G24G30G 4G 5G10G 7G 6G 9
 -19973408.45649 -15547932.78647  19349433.058    19349432.147    19349441.176
       235.000         200.000
 -21239499.71549 -16233777.96847  21121025.028    21121024.618    21121034.019
       237.000         192.000
    508130.36649    409677.95347  21316451.476    21316450.857    21316460.400
       233.000         189.000
 -27324527.14549 -21274963.76947  19292657.833    19292656.652    19292665.232
       237.000         203.000
 -14139745.40549 -10998719.38746  21583534.077    21583533.016    21583546.969
       226.000         175.000
  10767876.90249   8384315.38445  23930203.320    23930201.314    23930217.315
       215.000         157.000
  -9283314.71149  -7211493.71245  23098975.130    23098974.603    23098987.796
       217.000         162.000
   2823588.56949   2214524.55646  22429427.322    22429425.999    22429438.987
       225.000         174.000
 00  5 15 17 46 59.9960000  0  8G24G30G 4G 5G10G 7G 6G 9
 -19969567.61249 -15544939.95047  19350164.010    19350163.070    19350172.088
       236.000         200.000
 -21349899.23449 -16319803.51947  21100016.725    21100016.264    21100025.644
       238.000         192.000
    571064.32949    458717.33247  21328427.489    21328426.834    21328436.433
       233.000         189.000
 -27372821.97149 -21312596.12147  19283467.704    19283466.486    19283475.043
       237.000         202.000
 -14254970.21449 -11088504.82646  21561607.475    21561606.369    21561620.269
       226.000         176.000
  10812544.35149   8419120.91345  23938703.443    23938701.451    23938717.561
       212.000         153.000
  -9381575.15649  -7288060.18745  23080276.673    23080276.185    23080289.351
       218.000         162.000
   2887490.73949   2264318.20746  22441587.707    22441586.349    22441599.418
       226.000         173.000
 00  5 15 17 47 29.9960000  0  8G24G30G 4G 5G10G 7G 6G 9
 -19965280.24949 -15541599.18147  19350979.877    19350978.939    19350987.987
       236.000         200.000
 -21460008.49849 -16405602.90047  21079063.626    21079063.155    21079072.495
       238.000         193.000
    634204.93249    507917.71847  21340442.810    21340442.142    21340451.789
       233.000         189.000
 -27420614.77449 -21349837.29147  19274373.109    19274371.857    19274380.414
       237.000         203.000
 -14369908.87149 -11178067.29446  21539735.295    21539734.194    21539748.028
       227.000         178.000
  10857275.33949   8453975.95145  23947215.773    23947213.719    23947229.849
       213.000         153.000
  -9479787.26049  -7364588.98245  23061587.471    23061586.969    23061600.097
       217.000         162.000
   2951529.36649   2314218.17646  22453774.056    22453772.686    22453785.796
       226.000         174.000
 00  5 15 17 47 59.9960000  0  8G24G30G 4G 5G10G 7G 6G 9
 -19960547.64349 -15537911.47547  19351880.478    19351879.538    19351888.592
       235.000         200.000
 -21569824.73949 -16491173.96047  21058166.251    21058165.779    21058175.113
       238.000         192.000
    697550.50149    557277.80947  21352497.117    21352496.460    21352506.161
       232.000         189.000
 -27467903.72849 -21386685.85047  19265374.326    19265373.083    19265381.663
       237.000         202.000
 -14484557.33449 -11267403.64146  21517918.354    21517917.217    21517931.009
       226.000         179.000
  10902070.74249   8488881.19445  23955740.310    23955738.205    23955754.399
       212.000         150.000
  -9577950.24649  -7441079.51246  23042907.626    23042907.092    23042920.198
       218.000         163.000
   3015701.92349   2364222.50146  22465985.877    22465984.478    22465997.667
       225.000         172.000
 00  5 15 17 48 29.9960000  0  8G24G30G 4G 5G10G 7G 6G 9
 -19955393.58049 -15533895.36747  19352861.273    19352860.357    19352869.398
       235.000         200.000
 -21679367.34349 -16576531.79547  21037320.846    21037320.462    21037329.809
       237.000         193.000
    761076.55849    606778.55447  21364585.786    21364585.126    21364594.879
       232.000         188.000
 -27514709.23949 -21423157.70247  19256467.531    19256466.312    19256474.887
       237.000         202.000
 -14598934.14149 -11356528.31146  21496153.064    21496151.933    21496165.720
       226.000         179.000
  10946908.82649   8523819.67745  23964272.953    23964270.784    23964287.060
       211.000         154.000
  -9676086.09849  -7517548.92546  23024232.891    23024232.378    23024245.451
       218.000         163.000
   3079983.66549   2414311.91846  22478218.459    22478217.057    22478230.321
       223.000         171.000
 00  5 15 17 48 59.9960000  0  8G24G30G 4G 5G10G 7G 6G 9
 -19949797.96249 -15529535.18147  19353926.076    19353925.181    19353934.236
       236.000         200.000
 -21788611.54249 -16661657.10247  21016532.260    21016531.933    21016541.298
       237.000         193.000
    824802.78449    656435.26847  21376712.569    21376711.882    21376721.681
       232.000         188.000
 -27561007.81549 -21459234.53347  19247657.204    19247656.001    19247664.577
       237.000         202.000
 -14713014.02849 -11445421.60946  21474444.280    21474443.177    21474456.920
       226.000         178.000
  10991811.55449   8558808.51545  23972817.788    23972815.715    23972831.979
       213.000         153.000
  -9774172.84949  -7593980.05746  23005567.493    23005567.016    23005580.046
       219.000         163.000
   3144393.55449   2464501.17846  22490475.402    22490474.023    22490487.357
       224.000         171.000
 00  5 15 17 49 29.9960000  0  8G24G30G 4G 5G10G 7G 6G 9
 -19943768.90349 -15524837.25647  19355073.359    19355072.495    19355081.555
       236.000         200.000
 -21897561.66049 -16746553.25547  20995799.667    20995799.357    20995808.764
       238.000         194.000
    888720.13549    706240.91347  21388875.697    21388875.019    21388884.858
       232.000         188.000
 -27606804.92049 -21494920.61547  19238942.270    19238941.111    19238949.693
       237.000         202.000
 -14826800.64249 -11534086.38146  21452791.314    21452790.208    21452803.921
       227.000         178.000
  11036772.68749   8593842.79845  23981373.664    23981371.714    23981388.074
       210.000         148.000
  -9872217.28949  -7670378.21845  22986910.117    22986909.698    22986922.693
       218.000         162.000
   3208922.26449   2514783.02646  22502754.958    22502753.612    22502766.995
       224.000         171.000
 00  5 15 17 49 59.9960000  0  8G24G30G 4G 5G10G 7G 6G 9
 -19937295.09049 -15519792.76347  19356305.276    19356304.449    19356313.531
       236.000         200.000
 -22006201.84049 -16831207.89847  20975126.033    20975125.782    20975135.182
       238.000         193.000
    952839.57649    756204.02547  21401077.290    21401076.614    21401086.482
       232.000         188.000
 -27652085.77049 -21530204.41147  19230325.593    19230324.473    19230333.064
       237.000         202.000
 -14940277.35949 -11622509.67646  21431197.297    21431196.214    21431209.898
       226.000         178.000
  11081806.20249   8628933.63145  23989943.394    23989941.523    23989957.942
       211.000         152.000
  -9970205.88149  -7746732.84546  22968263.352    22968262.998    22968275.976
       219.000         163.000
   3273580.36849   2565165.69046  22515059.176    22515057.826    22515071.265
       223.000         170.000
 00  5 15 17 50 29.9960000  0  8G24G30G 4G 5G10G 7G 6G 9
 -19930393.35849 -15514414.83447  19357618.624    19357617.823    19357626.920
       236.000         200.000
 -22114544.47949 -16915630.69347  20954509.020    20954508.821    20954518.209
       238.000         194.000
   1017143.74449    806311.08847  21413314.026    21413313.368    21413323.249
       232.000         188.000
 -27696864.06849 -21565096.61547  19221804.583    19221803.472    19221812.054
       237.000         202.000
 -15053455.75549 -11710700.52646  21409660.048    21409658.995    21409672.636
       227.000         177.000
  11126896.79749   8664068.88045  23998524.073    23998522.161    23998538.690
       213.000         154.000
 -10068153.63349  -7823055.65545  22949624.376    22949624.046    22949637.033
       219.000         162.000
   3338349.99849   2615635.25146  22527384.599    22527383.275    22527396.769
       223.000         171.000
 00  5 15 17 50 59.9960000  0  8G24G30G 4G 5G10G 7G 6G 9
 -19923070.63949 -15508708.85947  19359012.105    19359011.311    19359020.413
       237.000         200.000
 -22222592.11749 -16999823.62347  20933948.194    20933947.999    20933957.365
       238.000         194.000
   1081625.10449    856556.22247  21425584.509    21425583.847    21425593.736
       232.000         188.000
 -27741143.74049 -21599600.28347  19213378.470    19213377.353    19213385.945
       237.000         202.000
 -15166337.68649 -11798660.35546  21388179.221    21388178.190    21388191.786
       227.000         177.000
  11172039.36749   8699244.61845  24007114.634    24007112.762    24007129.303
       210.000         151.000
 -10166065.76849  -7899350.71245  22930992.255    22930991.937    22931004.835
       217.000         161.000
   3403222.84449   2666185.22646  22539729.769    22539728.379    22539741.914
       225.000         171.000
 00  5 15 17 51 29.9960000  0  8G24G30G 4G 5G10G 7G 6G 9
 -19915354.61149 -15502696.41547  19360480.507    19360479.670    19360488.752
       236.000         201.000
 -22330368.16949 -17083804.92047  20913439.092    20913438.866    20913448.223
       239.000         195.000
   1146255.51749    906917.49947  21437883.364    21437882.701    21437892.583
       232.000         188.000
 -27784948.96649 -21633734.24547  19205042.667    19205041.531    19205050.112
       237.000         202.000
 -15278945.69649 -11886406.73646  21366750.550    21366749.510    21366763.069
       227.000         179.000
  11217208.60349   8734441.13545  24015710.286    24015708.424    24015725.012
       210.000         150.000
 -10263967.82049  -7975637.91745  22912361.992    22912361.664    22912374.617
       218.000         162.000
   3468170.40549   2716793.42746  22552089.157    22552087.726    22552101.306
       224.000         172.000
 00  5 15 17 51 59.9960000  0  8G24G30G 4G 5G10G 7G 6G 9
 -19907224.96349 -15496361.66547  19362027.595    19362026.741    19362035.804
       237.000         201.000
 -22437847.65749 -17167555.13647  20892986.420    20892986.172    20892995.509
       239.000         195.000
   1211054.89249    957410.43846  21450214.400    21450213.700    21450223.582
       232.000         187.000
 -27828256.60849 -21667480.48347  19196801.548    19196800.386    19196808.963
       236.000         202.000
 -15391254.26649 -11973919.79346  21345378.879    21345377.812    21345391.313
       228.000         179.000
  11262426.93749   8769675.93045  24024315.236    24024313.376    24024330.076
       211.000         147.000
 -10361837.63349  -8051900.01145  22893737.943    22893737.554    22893750.539
       218.000         162.000
   3533212.05549   2767474.94746  22564466.411    22564464.977    22564478.582
       223.000         171.000
 00  5 15 17 52 29.9960000  0  8G24G30G 4G 5G10G 7G 6G 9
 -19898663.38549 -15489690.35347  19363656.843    19363656.013    19363665.057
       236.000         201.000
 -22545008.16149 -17251056.79147  20872594.427    20872594.177    20872603.520
       239.000         195.000
   1276040.79949   1008048.72546  21462580.869    21462580.175    21462590.081
       231.000         186.000
 -27871045.06649 -21700822.16247  19188659.151    19188658.030    19188666.615
       237.000         202.000
 -15503240.14949 -12061181.41046  21324068.533    21324067.497    21324080.995
       226.000         180.000
  11307714.69649   8804964.78645  24032933.397    24032931.537    24032948.321
       210.000         148.000
 -10459655.12349  -8128121.32345  22875123.765    22875123.420    22875136.436
       217.000         162.000
   3598365.02849   2818243.21446  22576864.776    22576863.367    22576877.066
       221.000         170.000
 00  5 15 17 52 59.9960000  0  7G24G30G 4G 5G10G 6G 9
 -19889686.69449 -15482695.56647  19365365.096    19365364.249    19365373.307
       237.000         201.000
 -22651861.89149 -17334319.40347  20852260.812    20852260.564    20852269.896
       239.000         195.000
   1341196.14849   1058819.03746  21474979.587    21474978.903    21474988.814
       232.000         187.000
 -27913327.68549 -21733769.67947  19180613.051    19180611.932    19180620.533
       238.000         202.000
 -15614914.98349 -12148200.63546  21302817.433    21302816.389    21302829.855
       228.000         180.000
 -10557435.06649  -8204313.40145  22856516.757    22856516.416    22856529.412
       218.000         162.000
   3663611.61749   2869084.40846  22589280.999    22589279.573    22589293.329
       221.000         170.000
 00  5 15 17 53 29.9960000  0  7G24G30G 4G 5G10G 6G 9
 -19880319.22549 -15475396.28447  19367147.688    19367146.847    19367155.932
       237.000         201.000
 -22758429.10949 -17417358.76047  20831981.712    20831981.476    20831990.802
       239.000         196.000
   1406496.03449   1109701.98446  21487405.790    21487405.125    21487415.048
       232.000         186.000
 -27955126.07549 -21766339.87547  19172659.124    19172657.999    19172666.589
       238.000         202.000
 -15726298.19649 -12234992.63946  21281621.881    21281620.795    21281634.219
       228.000         180.000
 -10655200.06749  -8280493.82046  22837912.681    22837912.311    22837925.212
       218.000         163.000
   3728926.30649   2919978.66846  22601710.185    22601708.769    22601722.557
       222.000         168.000
 00  5 15 17 53 59.9960000  0  7G24G30G 4G 5G10G 6G 9
 -19870554.98349 -15467787.82947  19369005.834    19369004.969    19369014.032
       237.000         201.000
 -22864698.60749 -17500166.11947  20811759.311    20811759.045    20811768.361
       239.000         196.000
   1471946.39649   1160702.17946  21499860.624    21499859.978    21499869.916
       231.000         186.000
 -27996430.92749 -21798525.49847  19164799.125    19164797.966    19164806.555
       238.000         202.000
 -15837378.26849 -12321548.42246  21260484.006    21260482.884    21260496.248
       228.000         180.000
 -10752941.82449  -8356656.13845  22819313.015    22819312.579    22819325.456
       218.000         162.000
   3794314.55649   2970930.26046  22614153.364    22614151.919    22614165.780
       220.000         167.000
 00  5 15 17 54 29.9960000  0  7G24G30G 4G 5G10G 6G 9
 -19860412.99149 -15459885.01747  19370935.876    19370934.965    19370944.024
       237.000         201.000
 -22970685.42449 -17582753.21047  20791590.729    20791590.418    20791599.707
       239.000         196.000
   1537527.33849   1211804.13546  21512340.305    21512339.679    21512349.639
       232.000         186.000
 -28037258.25249 -21830339.01647  19157029.975    19157028.818    19157037.394
       238.000         202.000
 -15948169.34149 -12407879.01346  21239401.107    21239399.972    21239413.286
       228.000         180.000
 -10850677.68849  -8432813.84445  22800714.454    22800714.004    22800726.826
       217.000         162.000
   3859756.01449   3021923.31846  22626606.688    22626605.265    22626619.144
       221.000         167.000
 00  5 15 17 54 59.9960000  0  7G24G30G 4G 5G10G 6G 9
 -19849871.56649 -15451670.96847  19372941.876    19372940.975    19372950.015
       237.000         201.000
 -23076363.61049 -17665099.81447  20771480.839    20771480.514    20771489.794
       240.000         196.000
   1603260.44649   1263024.65046  21524848.991    21524848.357    21524858.300
       231.000         186.000
 -28077583.07849 -21861760.97847  19149356.463    19149355.282    19149363.861
       239.000         202.000
 -16058644.43949 -12493963.39946  21218378.340    21218377.180    21218390.464
       228.000         181.000
 -10948383.93549  -8508948.47245  22782121.499    22782121.034    22782133.801
       217.000         161.000
   3925271.70249   3072974.19946  22639074.142    22639072.701    22639086.645
       221.000         167.000
 00  5 15 17 55 29.9960000  0  7G24G30G 4G 5G10G 6G 9
 -19838944.79249 -15443156.63547  19375021.173    19375020.296    19375029.346
       237.000         201.000
 -23181742.63749 -17747213.29947  20751427.828    20751427.519    20751436.803
       240.000         197.000
   1669131.10749   1314352.36546  21537383.837    21537383.193    21537393.158
       231.000         185.000
 -28117416.57949 -21892800.08547  19141776.392    19141775.242    19141783.823
       238.000         201.000
 -16168812.71949 -12579808.68946  21197413.937    21197412.784    21197426.036
       229.000         181.000
 -11046072.68149  -8585069.47945  22763531.868    22763531.392    22763544.124
       218.000         162.000
   3990846.44049   3124071.08846  22651552.860    22651551.388    22651565.360
       220.000         167.000
 00  5 15 17 55 59.9960000  0  7G24G30G 4G 5G10G 6G 9
 -19827624.34549 -15434335.55047  19377175.412    19377174.541    19377183.590
       238.000         201.000
 -23286809.94049 -17829083.89447  20731434.157    20731433.853    20731443.117
       240.000         197.000
   1735147.31849   1365793.47946  21549946.371    21549945.734    21549955.687
       231.000         185.000
 -28156747.35849 -21923447.47247  19134292.021    19134290.865    19134299.447
       238.000         202.000
 -16278660.93649 -12665404.58546  21176510.438    21176509.270    21176522.494
       228.000         181.000
 -11143733.62849  -8661168.81746  22744947.490    22744947.045    22744959.760
       218.000         163.000
   4056487.63849   3175219.76146  22664044.182    22664042.699    22664056.741
       220.000         166.000
 00  5 15 17 56 29.9960000  0  7G24G30G 4G 5G10G 6G 9
 -19815893.29249 -15425194.50947  19379407.802    19379406.928    19379415.976
       238.000         202.000
 -23391543.79449 -17910694.66047  20711503.938    20711503.634    20711512.890
       240.000         197.000
   1801325.64649   1417360.92146  21562539.763    21562539.129    21562549.093
       230.000         184.000
 -28195555.46849 -21953687.57747  19126907.069    19126905.944    19126914.529
       238.000         201.000
 -16388166.46349 -12750733.45346  21155672.115    21155670.984    21155684.168
       228.000         182.000
 -11241347.95749  -8737231.82746  22726372.064    22726371.572    22726384.291
       218.000         163.000
   4122211.37949   3226432.75146  22676551.202    22676549.714    22676563.848
       219.000         165.000
 00  5 15 17 56 59.9960000  0  7G24G30G 4G 5G10G 6G 9
 -19803791.72149 -15415764.75247  19381710.706    19381709.818    19381718.878
       238.000         201.000
 -23495979.84649 -17992073.36647  20691630.440    20691630.098    20691639.335
       240.000         197.000
   1867625.63949   1469023.15946  21575156.321    21575155.677    21575165.647
       230.000         184.000
 -28233877.67349 -21983549.05547  19119614.651    19119613.500    19119622.072
       238.000         202.000
 -16497364.62349 -12835822.81046  21134892.287    21134891.176    21134904.337
       229.000         183.000
 -11338953.56149  -8813288.04146  22707798.301    22707797.764    22707810.486
       218.000         164.000
   4187976.59649   3277678.05046  22689066.146    22689064.665    22689078.843
       221.000         165.000
 00  5 15 17 57 29.9960000  0  7G24G30G 4G 5G10G 6G 9
 -19791297.81349 -15406029.27847  19384088.296    19384087.373    19384096.426
       237.000         202.000
 -23600091.85149 -18073199.57447  20671818.597    20671818.234    20671827.445
       241.000         197.000
   1934068.85149   1520797.00346  21587800.129    21587799.468    21587809.446
       230.000         183.000
 -28271689.27049 -22013012.66247  19112419.429    19112418.230    19112426.791
       238.000         202.000
 -16606228.38149 -12920651.58546  21114176.130    21114174.995    21114188.135
       228.000         182.000
 -11436526.63149  -8889318.91446  22689230.749    22689230.184    22689242.886
       219.000         164.000
   4253804.33749   3328972.07246  22701593.058    22701591.500    22701605.756
       220.000         166.000
 00  5 15 17 57 59.9960000  0  7G24G30G 4G 5G10G 6G 9
 -19778395.54049 -15395975.59947  19386543.590    19386542.644    19386551.685
       238.000         201.000
 -23703859.32649 -18154057.31547  20652072.291    20652071.935    20652081.118
       241.000         198.000
   2000670.95149   1572694.65246  21600474.166    21600473.482    21600483.497
       230.000         184.000
 -28308971.09949 -22042063.46747  19105324.958    19105323.754    19105332.314
       238.000         201.000
 -16714736.57549 -13005203.31646  21093527.616    21093526.487    21093539.591
       228.000         182.000
 -11534049.05349  -8965310.32146  22670672.789    22670672.246    22670684.862
       220.000         163.000
   4319709.73849   3380326.59446  22714134.743    22714133.151    22714147.406
       221.000         165.000
 00  5 15 17 58 29.9960000  0  7G24G30G 4G 5G10G 6G 9
 -19765107.84449 -15385621.59147  19389072.177    19389071.233    19389080.272
       238.000         201.000
 -23807300.63049 -18234660.89647  20632388.073    20632387.692    20632396.861
       241.000         198.000
   2067408.83749   1624698.10946  21613173.999    21613173.344    21613183.376
       230.000         183.000
 -28345743.01749 -22070716.93547  19098327.550    19098326.323    19098334.870
       238.000         201.000
 -16822906.81149 -13089491.69446  21072943.412    21072942.293    21072955.394
       230.000         182.000
 -11631541.81349  -9041278.60646  22652120.441    22652119.879    22652132.503
       219.000         164.000
   4385668.98549   3431723.08846  22726686.645    22726685.048    22726699.285
       220.000         165.000
 00  5 15 17 58 59.9960000  0  7G24G30G 4G 5G10G 6G 9
 -19751438.55649 -15374970.23247  19391673.406    19391672.458    19391681.477
       238.000         202.000
 -23910415.31349 -18315009.96547  20612766.040    20612765.621    20612774.765
       242.000         198.000
   2134278.02449   1676803.87546  21625898.856    21625898.201    21625908.243
       230.000         182.000
 -28382006.24449 -22098974.02147  19091426.938    19091425.700    19091434.237
       238.000         201.000
 -16930738.16849 -13173516.01246  21052423.741    21052422.603    21052435.675
       229.000         183.000
 -11729006.77249  -9117225.22446  22633573.393    22633572.835    22633585.411
       220.000         164.000
   4451677.38349   3483157.88246  22739247.957    22739246.327    22739260.568
       221.000         164.000
 00  5 15 17 59 29.9960000  0  7G24G30G 4G 5G10G 6G 9
 -19737406.75449 -15364036.40147  19394343.601    19394342.657    19394351.682
       238.000         202.000
 -24013217.65849 -18395115.65847  20593203.409    20593203.012    20593212.109
       241.000         198.000
   2201259.56149   1728997.19046  21638645.095    21638644.432    21638654.502
       230.000         182.000
 -28417776.70149 -22126847.13847  19084620.044    19084618.819    19084627.360
       238.000         201.000
 -17038244.09549 -13257286.75246  21031965.982    21031964.826    21031977.872
       229.000         184.000
 -11826460.84149  -9193163.37146  22615028.405    22615027.873    22615040.404
       220.000         164.000
   4517715.23149   3534615.60846  22751814.815    22751813.167    22751827.465
       220.000         165.000
 00  5 15 17 59 59.9960000  0  7G24G30G 4G 5G10G 6G 9
 -19722991.27049 -15352803.58647  19397086.809    19397085.861    19397094.906
       238.000         202.000
 -24115682.14449 -18474958.07847  20573705.021    20573704.633    20573713.739
       241.000         198.000
   2268374.19349   1781294.21246  21651416.662    21651415.985    21651426.093
       230.000         182.000
 -28453030.14249 -22154317.38147  19077911.541    19077910.332    19077918.882
       238.000         202.000
 -17145398.85649 -13340783.85646  21011575.015    21011573.881    21011586.882
       230.000         184.000
 -11923880.80449  -9269074.94246  22596490.000    22596489.422    22596501.908
       220.000         165.000
   4583802.50549   3586111.84346  22764391.000    22764389.383    22764403.772
       219.000         164.000
 00  5 15 18  0 29.9960000  0  7G24G30G 4G 5G10G 6G 9
 -19708186.69449 -15341267.59047  19399904.026    19399903.110    19399912.174
       238.000         203.000
 -24217798.82849 -18554529.49047  20554272.734    20554272.428    20554281.550
       241.000         198.000
   2335627.12449   1833698.99446  21664214.475    21664213.856    21664223.981
       229.000         182.000
 -28487758.08349 -22181378.15347  19071302.995    19071301.844    19071310.393
       238.000         201.000
 -17252191.56349 -13423998.83646  20991252.926    20991251.819    20991264.788
       229.000         183.000
 -12021259.26049  -9344954.16546  22577959.396    22577958.836    22577971.274
       220.000         166.000
   4649943.86049   3637650.22546  22776977.429    22776975.885    22776990.368
       218.000         164.000
 00  5 15 18  0 59.9960000  0  7G24G30G 4G 5G10G 6G 9
 -19693007.70949 -15329439.84147  19402792.482    19402791.614    19402800.698
       238.000         202.000
 -24319577.97749 -18633837.88347  20534904.692    20534904.446    20534913.579
       241.000         199.000
   2403003.22049   1886199.75546  21677035.767    21677035.162    21677045.314
       229.000         182.000
 -28521972.40949 -22208038.70347  19064792.229    19064791.087    19064799.641
       238.000         201.000
 -17358631.91149 -13506939.25546  20970997.851    20970996.784    20971009.750
       230.000         184.000
 -12118608.73449  -9420810.80746  22559434.339    22559433.808    22559446.182
       221.000         166.000
   4716123.89449   3689218.72846  22789571.241    22789569.725    22789584.341
       219.000         164.000
 00  5 15 18  1 29.9960000  0  7G24G30G 4G 5G10G 6G 9
 -19677456.31649 -15317321.90847  19405751.829    19405750.973    19405760.068
       238.000         202.000
 -24421016.78749 -18712881.08847  20515601.485    20515601.263    20515610.378
       242.000         199.000
   2470500.66549   1938795.05346  21689880.168    21689879.544    21689889.753
       229.000         181.000
 -28555671.62049 -22234297.86847  19058379.539    19058378.380    19058386.927
       238.000         201.000
 -17464716.41449 -13589602.39246  20950810.550    20950809.477    20950822.425
       230.000         184.000
 -12215928.99349  -9496644.69846  22540914.829    22540914.326    22540926.652
       221.000         166.000
   4782340.01849   3740815.35946  22802172.053    22802170.503    22802185.150
       220.000         165.000
 00  5 15 18  1 59.9960000  0  7G24G30G 4G 5G10G 6G 9
 -19661520.29449 -15304904.26947  19408784.413    19408783.522    19408792.617
       238.000         202.000
 -24522098.74449 -18791646.22747  20496366.250    20496366.000    20496375.075
       242.000         199.000
   2538131.34149   1991494.17146  21702749.945    21702749.316    21702759.524
       228.000         180.000
 -28588840.86949 -22260144.07147  19052067.673    19052066.502    19052075.055
       238.000         201.000
 -17570428.02849 -13671974.97246  20930694.208    20930693.141    20930706.059
       231.000         185.000
 -12313205.96949  -9572444.86646  22522403.452    22522403.049    22522415.376
       220.000         166.000
   4848603.47949   3792448.86146  22814781.891    22814780.292    22814794.971
       220.000         164.000
 00  5 15 18  2 29.9960000  0  7G24G30G 4G 5G10G 6G 9
 -19645223.29049 -15292205.33747  19411885.660    19411884.777    19411893.858
       239.000         202.000
 -24622842.88049 -18870148.12047  20477195.300    20477195.016    20477204.075
       242.000         199.000
   2605871.36649   2044278.49946  21715640.543    21715639.885    21715650.104
       229.000         181.000
 -28621501.09249 -22285593.63447  19045852.642    19045851.483    19045860.055
       238.000         202.000
 -17675785.42249 -13754071.54046  20910645.339    20910644.236    20910657.104
       231.000         185.000
 -12410461.09349  -9648227.99946  22503896.300    22503895.907    22503908.259
       221.000         166.000
   4914889.75949   3844100.16546  22827396.054    22827394.426    22827409.150
       219.000         163.000
 00  5 15 18  2 59.9960000  0  7G24G30G 4G 5G10G 6G 9
 -19628571.97249 -15279230.31447  19415054.339    19415053.442    19415062.527
       239.000         202.000
 -24723251.35349 -18948388.46647  20458088.188    20458087.909    20458096.950
       242.000         199.000
   2673713.91949   2097142.72246  21728550.670    21728549.995    21728560.210
       229.000         180.000
 -28653655.84149 -22310649.31547  19039733.855    19039732.685    19039741.245
       238.000         202.000
 -17780789.88949 -13835893.09246  20890663.619    20890662.490    20890675.320
       231.000         185.000
 -12507698.72349  -9723997.48846  22485392.514    22485392.096    22485404.460
       222.000         167.000
   4981191.34949   3895763.39545  22840013.096    22840011.446    22840026.233
       219.000         162.000
 00  5 15 18  3 29.9960000  0  7G24G30G 4G 5G10G 6G 9
 -19611541.37049 -15265959.74547  19418295.194    19418294.304    19418303.386
       239.000         202.000
 -24823294.49349 -19026344.12647  20439050.610    20439050.312    20439059.352
       242.000         199.000
   2741683.74349   2150106.12446  21741485.041    21741484.305    21741494.533
       229.000         180.000
 -28685277.25749 -22335289.41047  19033716.547    19033715.371    19033723.923
       238.000         201.000
 -17885411.48049 -13917416.30546  20870754.714    20870753.584    20870766.385
       231.000         185.000
 -12604891.88549  -9799732.32546  22466897.224    22466896.808    22466909.176
       221.000         167.000
   5047532.80449   3947457.68946  22852637.716    22852636.083    22852650.928
       219.000         163.000
 00  5 15 18  3 59.9960000  0  7G24G30G 4G 5G10G 6G 9
 -19594155.97949 -15252412.72047  19421603.564    19421602.681    19421611.748
       239.000         203.000
 -24922992.41249 -19104030.78947  20420078.714    20420078.416    20420087.446
       242.000         199.000
   2809756.19949   2203149.49046  21754438.882    21754438.172    21754448.394
       228.000         180.000
 -28716386.99849 -22359530.80247  19027796.588    19027795.417    19027803.955
       238.000         201.000
 -17989669.77849 -13998656.42546  20850914.900    20850913.806    20850926.555
       231.000         185.000
 -12702062.99249  -9875449.99046  22448406.135    22448405.697    22448418.050
       220.000         167.000
   5113888.72549   3999163.23145  22865265.076    22865263.444    22865278.362
       218.000         162.000
 00  5 15 18  4 29.9960000  0  7G24G30G 4G 5G10G 6G 9
 -19576417.11449 -15238590.25647  19424979.189    19424978.305    19424987.382
       239.000         203.000
 -25022341.83649 -19181445.89247  20401173.128    20401172.823    20401181.847
       242.000         199.000
   2877929.96349   2256271.80146  21767412.019    21767411.305    21767421.540
       228.000         180.000
 -28746983.58849 -22383372.32947  19021974.263    19021973.106    19021981.651
       238.000         201.000
 -18093560.67349 -14079610.26346  20831145.066    20831143.933    20831156.665
       232.000         186.000
 -12799211.05449  -9951149.69046  22429919.472    22429918.998    22429931.293
       222.000         168.000
   5180257.17049   4050878.55045  22877894.826    22877893.223    22877908.200
       219.000         162.000
 00  5 15 18  4 59.9960000  0  7G24G30G 4G 5G10G 6G 9
 -19558323.81449 -15224491.60547  19428422.225    19428421.359    19428430.461
       239.000         202.000
 -25121337.50649 -19258585.34047  20382334.839    20382334.549    20382343.559
       241.000         199.000
   2946205.88349   2309473.71846  21780404.595    21780403.887    21780414.132
       228.000         179.000
 -28777063.01149 -22406810.86247  19016250.404    19016249.214    19016257.774
       239.000         202.000
 -18197078.28349 -14160273.22746  20811446.266    20811445.121    20811457.809
       232.000         187.000
 -12896332.97849 -10026829.00546  22411437.766    22411437.260    22411449.526
       222.000         168.000
   5246638.32949   4102603.77446  22890527.049    22890525.432    22890540.464
       219.000         164.000
 00  5 15 18  5 29.9960000  0  7G24G30G 4G 5G10G 6G 9
 -19539856.17749 -15210101.26947  19431936.491    19431935.642    19431944.750
       239.000         202.000
 -25219954.77849 -19335429.93647  20363568.562    20363568.274    20363577.273
       242.000         200.000
   3014603.71749   2362770.63646  21793420.379    21793419.653    21793429.933
       228.000         180.000
 -28806602.41049 -22429828.59947  19010629.292    19010628.090    19010636.642
       238.000         202.000
 -18300197.57649 -14240625.81346  20791823.281    20791822.114    20791834.755
       231.000         186.000
 -12993406.60949 -10102470.72046  22392965.276    22392964.718    22392976.913
       222.000         168.000
   5313051.16849   4154353.66146  22903165.277    22903163.630    22903178.757
       219.000         164.000
 00  5 15 18  5 59.9950000  0  7G24G30G 4G 5G10G 6G 9
 -19521034.88649 -15195435.35747  19435518.111    19435517.253    19435526.342
       239.000         203.000
 -25318205.52749 -19411988.93247  20344872.048    20344871.745    20344880.747
       241.000         200.000
   3083100.83049   2416144.91046  21806455.034    21806454.302    21806464.609
       228.000         179.000
 -28835618.23749 -22452438.36047  19005107.749    19005106.580    19005115.142
       238.000         202.000
 -18402930.02549 -14320676.96446  20772273.911    20772272.734    20772285.324
       232.000         186.000
 -13090446.72749 -10178086.29946  22374499.075    22374498.565    22374510.728
       222.000         167.000
   5379472.95549   4206110.52946  22915805.177    22915803.538    22915818.773
       220.000         165.000
 00  5 15 18  6 29.9950000  0  7G24G30G 4G 5G10G 6G 9
 -19501856.84349 -15180491.45747  19439167.608    19439166.754    19439175.827
       239.000         203.000
 -25416090.39949 -19488262.82847  20326245.150    20326244.860    20326253.875
       242.000         200.000
   3151703.78049   2469601.65246  21819509.813    21819509.102    21819519.437
       227.000         179.000
 -28864107.82249 -22474638.06147  18999686.379    18999685.208    18999693.790
       238.000         202.000
 -18505275.44649 -14400426.53746  20752798.154    20752796.968    20752809.535
       232.000         186.000
 -13187455.82049 -10253677.71446  22356038.728    22356038.254    22356050.422
       222.000         168.000
   5445909.33349   4257878.76246  22928447.843    22928446.219    22928461.538
       219.000         164.000
 00  5 15 18  6 59.9950000  0  7G24G30G 4G 5G10G 6G 9
 -19482301.26049 -15165253.37547  19442888.919    19442888.079    19442897.152
       239.000         203.000
 -25513580.24049 -19564228.91347  20307693.421    20307693.144    20307702.151
       242.000         201.000
   3220431.73049   2523155.79646  21832588.370    21832587.668    21832598.026
       227.000         178.000
 -28892045.84749 -22496407.97447  18994369.944    18994368.810    18994377.387
       237.000         202.000
 -18607204.21649 -14479851.44946  20733401.584    20733400.472    20733413.019
       232.000         186.000
 -13284406.84949 -10329223.87946  22337589.434    22337588.983    22337601.163
       221.000         168.000
   5512378.78949   4309672.77346  22941096.806    22941095.180    22941110.610
       219.000         164.000
 00  5 15 18  7 29.9950000  0  7G24G30G 4G 5G10G 6G 9
 -19462409.27049 -15149753.16247  19446674.212    19446673.418    19446682.493
       239.000         203.000
 -25610711.16249 -19639915.32547  20289209.971    20289209.731    20289218.752
       242.000         201.000
   3289243.24349   2576775.05746  21845682.830    21845682.138    21845692.544
       227.000         178.000
 -28919470.71949 -22517778.03447  18989151.122    18989150.037    18989158.651
       238.000         202.000
 -18708752.45149 -14558979.84146  20714077.427    20714076.374    20714088.911
       232.000         186.000
 -13381338.94849 -10404755.28746  22319143.719    22319143.326    22319155.500
       221.000         169.000
   5578839.24749   4361459.77246  22953743.982    22953742.425    22953757.996
       218.000         163.000
 00  5 15 18  7 59.9950000  0  7G24G30G 4G 5G10G 6G 9
 -19442182.13549 -15133991.79147  19450523.258    19450522.527    19450531.624
       238.000         203.000
 -25707480.10049 -19715319.67147  20270795.385    20270795.190    20270804.189
       241.000         201.000
   3358137.12649   2630458.49646  21858792.903    21858792.270    21858802.724
       226.000         177.000
 -28946380.66149 -22538746.84447  18984030.298    18984029.263    18984037.891
       237.000         202.000
 -18809915.99249 -14637808.46946  20694826.519    20694825.500    20694838.020
       232.000         186.000
 -13478251.16549 -10480271.21446  22300701.770    22300701.445    22300713.653
       221.000         167.000
   5645288.67449   4413238.16145  22966389.030    22966387.576    22966403.243
       218.000         162.000
 00  5 15 18  8 29.9950000  0  7G24G30G 4G 5G10G 6G 9
 -19421632.56349 -15117979.17647  19454433.744    19454433.005    19454442.115
       240.000         203.000
 -25803895.56249 -19790448.58347  20252448.081    20252447.887    20252456.897
       242.000         201.000
   3427100.58249   2684196.14846  21871916.238    21871915.656    21871926.140
       226.000         176.000
 -28972785.79249 -22559322.29647  18979005.590    18979004.558    18979013.191
       238.000         201.000
 -18910702.78949 -14716343.52646  20675647.316    20675646.329    20675658.834
       233.000         187.000
 -13575154.02349 -10555779.85646  22282261.650    22282261.351    22282273.572
       221.000         168.000
   5711713.74349   4464997.57545  22979029.580    22979028.092    22979043.882
       217.000         162.000
 00  5 15 18  8 59.9950000  0  7G24G30G 4G 5G10G 6G 9
 -19400737.70049 -15101697.51147  19458409.973    19458409.208    19458418.324
       239.000         203.000
 -25899929.63649 -19865280.30947  20234173.370    20234173.190    20234182.189
       242.000         201.000
   3496156.33249   2738005.71946  21885057.172    21885056.598    21885067.134
       227.000         177.000
 -28998660.44349 -22579484.38647  18974081.832    18974080.784    18974089.429
       238.000         202.000
 -19011084.76249 -14794563.14046  20656545.210    20656544.208    20656556.691
       234.000         187.000
 -13672022.26649 -10631261.51846  22263828.131    22263827.854    22263840.059
       221.000         168.000
   5778136.73649   4516755.34045  22991669.732    22991668.246    22991684.091
       217.000         162.000
 00  5 15 18  9 29.9950000  0  7G24G30G 4G 5G10G 6G 9
 -19379496.26849 -15085145.78847  19462452.184    19462451.372    19462460.475
       240.000         204.000
 -25995576.53949 -19939810.34247  20215972.410    20215972.191    20215981.154
       242.000         201.000
   3565306.01249   2791888.48446  21898216.073    21898215.453    21898226.016
       228.000         177.000
 -29024000.68549 -22599230.05347  18969259.805    18969258.740    18969267.382
       238.000         202.000
 -19111055.48749 -14872462.29347  20637521.384    20637520.338    20637532.799
       234.000         188.000
 -13768852.29849 -10706713.40746  22245401.916    22245401.636    22245413.817
       221.000         169.000
   5844558.45349   4568512.13245  23004309.711    23004308.186    23004324.069
       218.000         161.000
 00  5 15 18  9 59.9950000  0  7G24G30G 4G 5G10G 6G 9
 -19357899.07649 -15068316.85947  19466562.117    19466561.238    19466570.317
       241.000         204.000
 -26090822.77749 -20014028.17547  20197847.737    20197847.453    20197856.386
       242.000         202.000
   3634558.39749   2845851.26546  21911394.510    21911393.851    21911404.415
       228.000         177.000
 -29048794.67449 -22618550.07747  18964541.761    18964540.632    18964549.279
       238.000         201.000
 -19210601.06749 -14950030.17047  20618578.500    20618577.400    20618589.795
       234.000         188.000
 -13865632.82349 -10782126.72446  22226985.169    22226984.858    22226996.975
       223.000         169.000
   5910987.39549   4620274.56045  23016951.119    23016949.512    23016965.401
       219.000         161.000
 00  5 15 18 10 29.9950000  0  7G24G30G 4G 5G10G 6G 9
 -19335963.48849 -15051224.24347  19470736.413    19470735.501    19470744.557
       240.000         203.000
 -26185681.07049 -20087943.70747  20179796.861    20179796.518    20179805.431
       242.000         202.000
   3703896.51749   2899880.87246  21924589.277    21924588.574    21924599.135
       227.000         176.000
 -29073057.14349 -22637455.92747  18959924.860    18959923.667    18959932.301
       238.000         202.000
 -19309733.71949 -15027276.27646  20599714.175    20599713.023    20599725.364
       235.000         187.000
 -13962378.98849 -10857513.25846  22208575.023    22208574.635    22208586.694
       222.000         169.000
   5977405.47149   4672028.50446  23029590.394    23029588.719    23029604.714
       219.000         163.000
 00  5 15 18 10 59.9950000  0  7G24G30G 4G 5G10G 6G 9
 -19313692.50049 -15033870.27647  19474974.481    19474973.563    19474982.628
       240.000         203.000
 -26280150.04449 -20161555.88247  20161820.017    20161819.669    20161828.568
       242.000         201.000
   3773317.16349   2953974.76646  21937799.767    21937799.023    21937809.552
       227.000         176.000
 -29096788.13249 -22655947.64247  18955409.060    18955407.851    18955416.463
       239.000         202.000
 -19408451.41749 -15104199.04147  20580928.788    20580927.606    20580939.878
       234.000         188.000
 -14059091.44749 -10932873.54246  22190171.245    22190170.801    22190182.818
       222.000         170.000
   6043809.19749   4723771.25746  23042226.937    23042225.267    23042241.288
       221.000         163.000
